<?xml version="1.0" encoding="UTF-8"?>
<gpx version="1.1" creator="https://www.youtrack.es" xsi:schemaLocation="http://www.topografix.com/GPX/1/1 http://www.topografix.com/GPX/1/1/gpx.xsd http://www.garmin.com/xmlschemas/GpxExtensions/v3 http://www.garmin.com/xmlschemas/GpxExtensionsv3.xsd http://www.garmin.com/xmlschemas/TrackPointExtension/v1 http://www.garmin.com/xmlschemas/TrackPointExtensionv1.xsd" xmlns:gpxtpx="http://www.garmin.com/xmlschemas/TrackPointExtension/v1" xmlns:gpxx="http://www.garmin.com/xmlschemas/GpxExtensions/v3" xmlns:xsi="http://www.w3.org/2001/XMLSchema-instance">
  <metadata>
    <link href="https://www.youtrack.es">
      <text>YouTrack.es</text>
    </link>
    <time>2026-05-07T16:23:23Z</time>
  </metadata>
  <trk>
    <src>https://www.youtrack.es</src>
    <link href="https://www.youtrack.es/ruta/15042-gabiri-korosti-brinkolazar-gabiri">
      <text>YouTrack.es</text>
    </link>
    <trkseg>
      <trkpt lat="43.0471130" lon="-2.3602080">
        <ele>950.0</ele>
        <time>2020-08-14T10:47:45Z</time>
      </trkpt>
      <trkpt lat="43.0471170" lon="-2.3601970">
        <ele>950.4</ele>
        <time>2020-08-14T10:47:46Z</time>
      </trkpt>
      <trkpt lat="43.0471230" lon="-2.3601830">
        <ele>950.6</ele>
        <time>2020-08-14T10:47:47Z</time>
      </trkpt>
      <trkpt lat="43.0471350" lon="-2.3601570">
        <ele>950.4</ele>
        <time>2020-08-14T10:47:49Z</time>
      </trkpt>
      <trkpt lat="43.0471410" lon="-2.3601380">
        <ele>950.0</ele>
        <time>2020-08-14T10:47:50Z</time>
      </trkpt>
      <trkpt lat="43.0471480" lon="-2.3601050">
        <ele>949.6</ele>
        <time>2020-08-14T10:47:51Z</time>
      </trkpt>
      <trkpt lat="43.0471510" lon="-2.3600730">
        <ele>949.2</ele>
        <time>2020-08-14T10:47:52Z</time>
      </trkpt>
      <trkpt lat="43.0471260" lon="-2.3600190">
        <ele>948.2</ele>
        <time>2020-08-14T10:47:54Z</time>
      </trkpt>
      <trkpt lat="43.0470340" lon="-2.3599870">
        <ele>947.0</ele>
        <time>2020-08-14T10:47:57Z</time>
      </trkpt>
      <trkpt lat="43.0469580" lon="-2.3600380">
        <ele>945.8</ele>
        <time>2020-08-14T10:47:59Z</time>
      </trkpt>
      <trkpt lat="43.0469180" lon="-2.3601360">
        <ele>944.8</ele>
        <time>2020-08-14T10:48:01Z</time>
      </trkpt>
      <trkpt lat="43.0469160" lon="-2.3602060">
        <ele>942.8</ele>
        <time>2020-08-14T10:48:02Z</time>
      </trkpt>
      <trkpt lat="43.0469230" lon="-2.3602860">
        <ele>945.0</ele>
        <time>2020-08-14T10:48:03Z</time>
      </trkpt>
      <trkpt lat="43.0469800" lon="-2.3604880">
        <ele>946.4</ele>
        <time>2020-08-14T10:48:05Z</time>
      </trkpt>
      <trkpt lat="43.0470540" lon="-2.3606710">
        <ele>945.8</ele>
        <time>2020-08-14T10:48:07Z</time>
      </trkpt>
      <trkpt lat="43.0470950" lon="-2.3607510">
        <ele>945.4</ele>
        <time>2020-08-14T10:48:08Z</time>
      </trkpt>
      <trkpt lat="43.0471470" lon="-2.3608280">
        <ele>944.8</ele>
        <time>2020-08-14T10:48:09Z</time>
      </trkpt>
      <trkpt lat="43.0472650" lon="-2.3609830">
        <ele>942.8</ele>
        <time>2020-08-14T10:48:11Z</time>
      </trkpt>
      <trkpt lat="43.0473190" lon="-2.3610550">
        <ele>941.8</ele>
        <time>2020-08-14T10:48:12Z</time>
      </trkpt>
      <trkpt lat="43.0473730" lon="-2.3611250">
        <ele>940.8</ele>
        <time>2020-08-14T10:48:13Z</time>
      </trkpt>
      <trkpt lat="43.0474880" lon="-2.3612520">
        <ele>938.8</ele>
        <time>2020-08-14T10:48:15Z</time>
      </trkpt>
      <trkpt lat="43.0475400" lon="-2.3613070">
        <ele>937.8</ele>
        <time>2020-08-14T10:48:16Z</time>
      </trkpt>
      <trkpt lat="43.0476160" lon="-2.3614070">
        <ele>936.0</ele>
        <time>2020-08-14T10:48:18Z</time>
      </trkpt>
      <trkpt lat="43.0476300" lon="-2.3614580">
        <ele>935.0</ele>
        <time>2020-08-14T10:48:19Z</time>
      </trkpt>
      <trkpt lat="43.0476220" lon="-2.3614940">
        <ele>933.8</ele>
        <time>2020-08-14T10:48:20Z</time>
      </trkpt>
      <trkpt lat="43.0476020" lon="-2.3615170">
        <ele>932.6</ele>
        <time>2020-08-14T10:48:21Z</time>
      </trkpt>
      <trkpt lat="43.0475140" lon="-2.3614920">
        <ele>930.6</ele>
        <time>2020-08-14T10:48:23Z</time>
      </trkpt>
      <trkpt lat="43.0473840" lon="-2.3614330">
        <ele>929.2</ele>
        <time>2020-08-14T10:48:25Z</time>
      </trkpt>
      <trkpt lat="43.0472220" lon="-2.3613610">
        <ele>928.2</ele>
        <time>2020-08-14T10:48:27Z</time>
      </trkpt>
      <trkpt lat="43.0470570" lon="-2.3612980">
        <ele>927.2</ele>
        <time>2020-08-14T10:48:29Z</time>
      </trkpt>
      <trkpt lat="43.0468780" lon="-2.3612560">
        <ele>925.8</ele>
        <time>2020-08-14T10:48:31Z</time>
      </trkpt>
      <trkpt lat="43.0467050" lon="-2.3612200">
        <ele>924.0</ele>
        <time>2020-08-14T10:48:33Z</time>
      </trkpt>
      <trkpt lat="43.0465280" lon="-2.3611860">
        <ele>921.8</ele>
        <time>2020-08-14T10:48:35Z</time>
      </trkpt>
      <trkpt lat="43.0464320" lon="-2.3611710">
        <ele>919.8</ele>
        <time>2020-08-14T10:48:36Z</time>
      </trkpt>
      <trkpt lat="43.0463300" lon="-2.3611640">
        <ele>918.4</ele>
        <time>2020-08-14T10:48:37Z</time>
      </trkpt>
      <trkpt lat="43.0462280" lon="-2.3611680">
        <ele>917.0</ele>
        <time>2020-08-14T10:48:38Z</time>
      </trkpt>
      <trkpt lat="43.0461270" lon="-2.3611720">
        <ele>915.8</ele>
        <time>2020-08-14T10:48:39Z</time>
      </trkpt>
      <trkpt lat="43.0460290" lon="-2.3611840">
        <ele>914.6</ele>
        <time>2020-08-14T10:48:40Z</time>
      </trkpt>
      <trkpt lat="43.0459410" lon="-2.3611930">
        <ele>913.0</ele>
        <time>2020-08-14T10:48:41Z</time>
      </trkpt>
      <trkpt lat="43.0458490" lon="-2.3612010">
        <ele>911.0</ele>
        <time>2020-08-14T10:48:42Z</time>
      </trkpt>
      <trkpt lat="43.0457620" lon="-2.3612000">
        <ele>910.0</ele>
        <time>2020-08-14T10:48:43Z</time>
      </trkpt>
      <trkpt lat="43.0456140" lon="-2.3611370">
        <ele>908.6</ele>
        <time>2020-08-14T10:48:45Z</time>
      </trkpt>
      <trkpt lat="43.0455440" lon="-2.3610840">
        <ele>907.4</ele>
        <time>2020-08-14T10:48:46Z</time>
      </trkpt>
      <trkpt lat="43.0454780" lon="-2.3610110">
        <ele>906.2</ele>
        <time>2020-08-14T10:48:47Z</time>
      </trkpt>
      <trkpt lat="43.0454180" lon="-2.3609260">
        <ele>905.0</ele>
        <time>2020-08-14T10:48:48Z</time>
      </trkpt>
      <trkpt lat="43.0453590" lon="-2.3608340">
        <ele>903.6</ele>
        <time>2020-08-14T10:48:49Z</time>
      </trkpt>
      <trkpt lat="43.0452650" lon="-2.3606240">
        <ele>902.0</ele>
        <time>2020-08-14T10:48:51Z</time>
      </trkpt>
      <trkpt lat="43.0452090" lon="-2.3603790">
        <ele>900.6</ele>
        <time>2020-08-14T10:48:53Z</time>
      </trkpt>
      <trkpt lat="43.0451740" lon="-2.3601200">
        <ele>899.0</ele>
        <time>2020-08-14T10:48:55Z</time>
      </trkpt>
      <trkpt lat="43.0451660" lon="-2.3600010">
        <ele>898.4</ele>
        <time>2020-08-14T10:48:56Z</time>
      </trkpt>
      <trkpt lat="43.0451580" lon="-2.3598930">
        <ele>897.8</ele>
        <time>2020-08-14T10:48:57Z</time>
      </trkpt>
      <trkpt lat="43.0451450" lon="-2.3597110">
        <ele>895.6</ele>
        <time>2020-08-14T10:48:59Z</time>
      </trkpt>
      <trkpt lat="43.0451430" lon="-2.3595470">
        <ele>893.4</ele>
        <time>2020-08-14T10:49:01Z</time>
      </trkpt>
      <trkpt lat="43.0451200" lon="-2.3593290">
        <ele>892.2</ele>
        <time>2020-08-14T10:49:03Z</time>
      </trkpt>
      <trkpt lat="43.0450980" lon="-2.3592140">
        <ele>891.2</ele>
        <time>2020-08-14T10:49:04Z</time>
      </trkpt>
      <trkpt lat="43.0450660" lon="-2.3591010">
        <ele>890.0</ele>
        <time>2020-08-14T10:49:05Z</time>
      </trkpt>
      <trkpt lat="43.0450340" lon="-2.3589910">
        <ele>888.8</ele>
        <time>2020-08-14T10:49:06Z</time>
      </trkpt>
      <trkpt lat="43.0449760" lon="-2.3587660">
        <ele>887.2</ele>
        <time>2020-08-14T10:49:08Z</time>
      </trkpt>
      <trkpt lat="43.0449480" lon="-2.3586580">
        <ele>886.0</ele>
        <time>2020-08-14T10:49:09Z</time>
      </trkpt>
      <trkpt lat="43.0449270" lon="-2.3585550">
        <ele>883.0</ele>
        <time>2020-08-14T10:49:10Z</time>
      </trkpt>
      <trkpt lat="43.0449040" lon="-2.3584530">
        <ele>881.6</ele>
        <time>2020-08-14T10:49:11Z</time>
      </trkpt>
      <trkpt lat="43.0448730" lon="-2.3583500">
        <ele>880.0</ele>
        <time>2020-08-14T10:49:12Z</time>
      </trkpt>
      <trkpt lat="43.0448420" lon="-2.3582560">
        <ele>879.0</ele>
        <time>2020-08-14T10:49:13Z</time>
      </trkpt>
      <trkpt lat="43.0448040" lon="-2.3581750">
        <ele>877.6</ele>
        <time>2020-08-14T10:49:14Z</time>
      </trkpt>
      <trkpt lat="43.0447530" lon="-2.3580960">
        <ele>876.4</ele>
        <time>2020-08-14T10:49:15Z</time>
      </trkpt>
      <trkpt lat="43.0447010" lon="-2.3580150">
        <ele>875.0</ele>
        <time>2020-08-14T10:49:16Z</time>
      </trkpt>
      <trkpt lat="43.0446430" lon="-2.3579340">
        <ele>873.6</ele>
        <time>2020-08-14T10:49:17Z</time>
      </trkpt>
      <trkpt lat="43.0445810" lon="-2.3578520">
        <ele>872.2</ele>
        <time>2020-08-14T10:49:18Z</time>
      </trkpt>
      <trkpt lat="43.0445220" lon="-2.3577710">
        <ele>871.2</ele>
        <time>2020-08-14T10:49:19Z</time>
      </trkpt>
      <trkpt lat="43.0444060" lon="-2.3575960">
        <ele>869.6</ele>
        <time>2020-08-14T10:49:21Z</time>
      </trkpt>
      <trkpt lat="43.0442870" lon="-2.3574120">
        <ele>867.6</ele>
        <time>2020-08-14T10:49:23Z</time>
      </trkpt>
      <trkpt lat="43.0441610" lon="-2.3572120">
        <ele>865.6</ele>
        <time>2020-08-14T10:49:25Z</time>
      </trkpt>
      <trkpt lat="43.0440280" lon="-2.3570180">
        <ele>864.0</ele>
        <time>2020-08-14T10:49:27Z</time>
      </trkpt>
      <trkpt lat="43.0438900" lon="-2.3568370">
        <ele>862.6</ele>
        <time>2020-08-14T10:49:29Z</time>
      </trkpt>
      <trkpt lat="43.0437510" lon="-2.3566590">
        <ele>860.8</ele>
        <time>2020-08-14T10:49:31Z</time>
      </trkpt>
      <trkpt lat="43.0436270" lon="-2.3564820">
        <ele>859.0</ele>
        <time>2020-08-14T10:49:33Z</time>
      </trkpt>
      <trkpt lat="43.0435100" lon="-2.3563170">
        <ele>857.6</ele>
        <time>2020-08-14T10:49:35Z</time>
      </trkpt>
      <trkpt lat="43.0433450" lon="-2.3560880">
        <ele>856.0</ele>
        <time>2020-08-14T10:49:38Z</time>
      </trkpt>
      <trkpt lat="43.0429260" lon="-2.3555590">
        <ele>855.2</ele>
        <time>2020-08-14T10:49:47Z</time>
      </trkpt>
      <trkpt lat="43.0428050" lon="-2.3554310">
        <ele>855.6</ele>
        <time>2020-08-14T10:49:50Z</time>
      </trkpt>
      <trkpt lat="43.0425740" lon="-2.3551880">
        <ele>856.8</ele>
        <time>2020-08-14T10:49:56Z</time>
      </trkpt>
      <trkpt lat="43.0424570" lon="-2.3550720">
        <ele>857.2</ele>
        <time>2020-08-14T10:49:59Z</time>
      </trkpt>
      <trkpt lat="43.0423340" lon="-2.3549600">
        <ele>857.6</ele>
        <time>2020-08-14T10:50:02Z</time>
      </trkpt>
      <trkpt lat="43.0421910" lon="-2.3547580">
        <ele>857.6</ele>
        <time>2020-08-14T10:50:06Z</time>
      </trkpt>
      <trkpt lat="43.0421610" lon="-2.3546960">
        <ele>857.6</ele>
        <time>2020-08-14T10:50:07Z</time>
      </trkpt>
      <trkpt lat="43.0420790" lon="-2.3543860">
        <ele>857.4</ele>
        <time>2020-08-14T10:50:11Z</time>
      </trkpt>
      <trkpt lat="43.0421080" lon="-2.3535960">
        <ele>856.6</ele>
        <time>2020-08-14T10:50:19Z</time>
      </trkpt>
      <trkpt lat="43.0421330" lon="-2.3534850">
        <ele>856.6</ele>
        <time>2020-08-14T10:50:20Z</time>
      </trkpt>
      <trkpt lat="43.0422500" lon="-2.3531450">
        <ele>854.8</ele>
        <time>2020-08-14T10:50:23Z</time>
      </trkpt>
      <trkpt lat="43.0423060" lon="-2.3530380">
        <ele>853.6</ele>
        <time>2020-08-14T10:50:24Z</time>
      </trkpt>
      <trkpt lat="43.0423720" lon="-2.3529300">
        <ele>852.8</ele>
        <time>2020-08-14T10:50:25Z</time>
      </trkpt>
      <trkpt lat="43.0424320" lon="-2.3528260">
        <ele>851.8</ele>
        <time>2020-08-14T10:50:26Z</time>
      </trkpt>
      <trkpt lat="43.0424950" lon="-2.3527270">
        <ele>850.8</ele>
        <time>2020-08-14T10:50:27Z</time>
      </trkpt>
      <trkpt lat="43.0426030" lon="-2.3525540">
        <ele>848.6</ele>
        <time>2020-08-14T10:50:29Z</time>
      </trkpt>
      <trkpt lat="43.0426510" lon="-2.3524880">
        <ele>847.2</ele>
        <time>2020-08-14T10:50:30Z</time>
      </trkpt>
      <trkpt lat="43.0427100" lon="-2.3524360">
        <ele>845.4</ele>
        <time>2020-08-14T10:50:31Z</time>
      </trkpt>
      <trkpt lat="43.0427770" lon="-2.3523960">
        <ele>844.0</ele>
        <time>2020-08-14T10:50:32Z</time>
      </trkpt>
      <trkpt lat="43.0428530" lon="-2.3523820">
        <ele>843.0</ele>
        <time>2020-08-14T10:50:33Z</time>
      </trkpt>
      <trkpt lat="43.0429860" lon="-2.3523750">
        <ele>841.0</ele>
        <time>2020-08-14T10:50:35Z</time>
      </trkpt>
      <trkpt lat="43.0430600" lon="-2.3523820">
        <ele>840.0</ele>
        <time>2020-08-14T10:50:36Z</time>
      </trkpt>
      <trkpt lat="43.0432010" lon="-2.3523860">
        <ele>838.6</ele>
        <time>2020-08-14T10:50:38Z</time>
      </trkpt>
      <trkpt lat="43.0433460" lon="-2.3524280">
        <ele>837.6</ele>
        <time>2020-08-14T10:50:40Z</time>
      </trkpt>
      <trkpt lat="43.0434190" lon="-2.3524650">
        <ele>837.0</ele>
        <time>2020-08-14T10:50:41Z</time>
      </trkpt>
      <trkpt lat="43.0437060" lon="-2.3527510">
        <ele>835.6</ele>
        <time>2020-08-14T10:50:45Z</time>
      </trkpt>
      <trkpt lat="43.0438880" lon="-2.3530120">
        <ele>834.4</ele>
        <time>2020-08-14T10:50:48Z</time>
      </trkpt>
      <trkpt lat="43.0439980" lon="-2.3531990">
        <ele>833.4</ele>
        <time>2020-08-14T10:50:50Z</time>
      </trkpt>
      <trkpt lat="43.0441010" lon="-2.3533800">
        <ele>831.8</ele>
        <time>2020-08-14T10:50:52Z</time>
      </trkpt>
      <trkpt lat="43.0441960" lon="-2.3535710">
        <ele>830.4</ele>
        <time>2020-08-14T10:50:54Z</time>
      </trkpt>
      <trkpt lat="43.0443790" lon="-2.3539200">
        <ele>829.8</ele>
        <time>2020-08-14T10:50:58Z</time>
      </trkpt>
      <trkpt lat="43.0448000" lon="-2.3541650">
        <ele>829.4</ele>
        <time>2020-08-14T10:51:04Z</time>
      </trkpt>
      <trkpt lat="43.0448740" lon="-2.3541800">
        <ele>829.0</ele>
        <time>2020-08-14T10:51:05Z</time>
      </trkpt>
      <trkpt lat="43.0450130" lon="-2.3542210">
        <ele>828.4</ele>
        <time>2020-08-14T10:51:07Z</time>
      </trkpt>
      <trkpt lat="43.0451380" lon="-2.3543070">
        <ele>827.6</ele>
        <time>2020-08-14T10:51:09Z</time>
      </trkpt>
      <trkpt lat="43.0452730" lon="-2.3544200">
        <ele>826.8</ele>
        <time>2020-08-14T10:51:11Z</time>
      </trkpt>
      <trkpt lat="43.0454380" lon="-2.3547030">
        <ele>826.4</ele>
        <time>2020-08-14T10:51:14Z</time>
      </trkpt>
      <trkpt lat="43.0454860" lon="-2.3548030">
        <ele>826.4</ele>
        <time>2020-08-14T10:51:15Z</time>
      </trkpt>
      <trkpt lat="43.0457190" lon="-2.3552750">
        <ele>824.6</ele>
        <time>2020-08-14T10:51:20Z</time>
      </trkpt>
      <trkpt lat="43.0458460" lon="-2.3553820">
        <ele>822.6</ele>
        <time>2020-08-14T10:51:22Z</time>
      </trkpt>
      <trkpt lat="43.0460040" lon="-2.3554650">
        <ele>821.2</ele>
        <time>2020-08-14T10:51:24Z</time>
      </trkpt>
      <trkpt lat="43.0461900" lon="-2.3555360">
        <ele>819.8</ele>
        <time>2020-08-14T10:51:26Z</time>
      </trkpt>
      <trkpt lat="43.0463400" lon="-2.3556130">
        <ele>818.6</ele>
        <time>2020-08-14T10:51:28Z</time>
      </trkpt>
      <trkpt lat="43.0465820" lon="-2.3556800">
        <ele>817.2</ele>
        <time>2020-08-14T10:51:31Z</time>
      </trkpt>
      <trkpt lat="43.0466680" lon="-2.3556830">
        <ele>817.0</ele>
        <time>2020-08-14T10:51:32Z</time>
      </trkpt>
      <trkpt lat="43.0468460" lon="-2.3556760">
        <ele>816.2</ele>
        <time>2020-08-14T10:51:34Z</time>
      </trkpt>
      <trkpt lat="43.0471780" lon="-2.3556640">
        <ele>814.8</ele>
        <time>2020-08-14T10:51:38Z</time>
      </trkpt>
      <trkpt lat="43.0473880" lon="-2.3556590">
        <ele>813.4</ele>
        <time>2020-08-14T10:51:41Z</time>
      </trkpt>
      <trkpt lat="43.0475380" lon="-2.3556280">
        <ele>812.4</ele>
        <time>2020-08-14T10:51:43Z</time>
      </trkpt>
      <trkpt lat="43.0476100" lon="-2.3555970">
        <ele>811.8</ele>
        <time>2020-08-14T10:51:44Z</time>
      </trkpt>
      <trkpt lat="43.0476760" lon="-2.3555640">
        <ele>811.0</ele>
        <time>2020-08-14T10:51:45Z</time>
      </trkpt>
      <trkpt lat="43.0477420" lon="-2.3555340">
        <ele>810.0</ele>
        <time>2020-08-14T10:51:46Z</time>
      </trkpt>
      <trkpt lat="43.0478070" lon="-2.3555150">
        <ele>809.0</ele>
        <time>2020-08-14T10:51:47Z</time>
      </trkpt>
      <trkpt lat="43.0478780" lon="-2.3554990">
        <ele>808.2</ele>
        <time>2020-08-14T10:51:48Z</time>
      </trkpt>
      <trkpt lat="43.0480360" lon="-2.3554590">
        <ele>806.4</ele>
        <time>2020-08-14T10:51:50Z</time>
      </trkpt>
      <trkpt lat="43.0481230" lon="-2.3554260">
        <ele>805.2</ele>
        <time>2020-08-14T10:51:51Z</time>
      </trkpt>
      <trkpt lat="43.0482270" lon="-2.3553680">
        <ele>804.2</ele>
        <time>2020-08-14T10:51:52Z</time>
      </trkpt>
      <trkpt lat="43.0483100" lon="-2.3553140">
        <ele>803.0</ele>
        <time>2020-08-14T10:51:53Z</time>
      </trkpt>
      <trkpt lat="43.0484470" lon="-2.3552130">
        <ele>801.2</ele>
        <time>2020-08-14T10:51:55Z</time>
      </trkpt>
      <trkpt lat="43.0485150" lon="-2.3551780">
        <ele>800.2</ele>
        <time>2020-08-14T10:51:56Z</time>
      </trkpt>
      <trkpt lat="43.0485850" lon="-2.3551480">
        <ele>799.2</ele>
        <time>2020-08-14T10:51:57Z</time>
      </trkpt>
      <trkpt lat="43.0486510" lon="-2.3551220">
        <ele>798.0</ele>
        <time>2020-08-14T10:51:58Z</time>
      </trkpt>
      <trkpt lat="43.0487220" lon="-2.3551060">
        <ele>796.4</ele>
        <time>2020-08-14T10:51:59Z</time>
      </trkpt>
      <trkpt lat="43.0487980" lon="-2.3551000">
        <ele>795.2</ele>
        <time>2020-08-14T10:52:00Z</time>
      </trkpt>
      <trkpt lat="43.0488810" lon="-2.3550990">
        <ele>794.0</ele>
        <time>2020-08-14T10:52:01Z</time>
      </trkpt>
      <trkpt lat="43.0489740" lon="-2.3551040">
        <ele>793.0</ele>
        <time>2020-08-14T10:52:02Z</time>
      </trkpt>
      <trkpt lat="43.0490660" lon="-2.3551110">
        <ele>791.0</ele>
        <time>2020-08-14T10:52:03Z</time>
      </trkpt>
      <trkpt lat="43.0492480" lon="-2.3551210">
        <ele>789.2</ele>
        <time>2020-08-14T10:52:05Z</time>
      </trkpt>
      <trkpt lat="43.0494310" lon="-2.3551400">
        <ele>787.4</ele>
        <time>2020-08-14T10:52:07Z</time>
      </trkpt>
      <trkpt lat="43.0495190" lon="-2.3551470">
        <ele>786.0</ele>
        <time>2020-08-14T10:52:08Z</time>
      </trkpt>
      <trkpt lat="43.0496800" lon="-2.3551510">
        <ele>784.0</ele>
        <time>2020-08-14T10:52:10Z</time>
      </trkpt>
      <trkpt lat="43.0497580" lon="-2.3551580">
        <ele>782.4</ele>
        <time>2020-08-14T10:52:11Z</time>
      </trkpt>
      <trkpt lat="43.0498400" lon="-2.3551540">
        <ele>781.2</ele>
        <time>2020-08-14T10:52:12Z</time>
      </trkpt>
      <trkpt lat="43.0499240" lon="-2.3551390">
        <ele>780.2</ele>
        <time>2020-08-14T10:52:13Z</time>
      </trkpt>
      <trkpt lat="43.0500070" lon="-2.3551180">
        <ele>778.8</ele>
        <time>2020-08-14T10:52:14Z</time>
      </trkpt>
      <trkpt lat="43.0501500" lon="-2.3550480">
        <ele>776.4</ele>
        <time>2020-08-14T10:52:16Z</time>
      </trkpt>
      <trkpt lat="43.0502110" lon="-2.3550110">
        <ele>775.0</ele>
        <time>2020-08-14T10:52:17Z</time>
      </trkpt>
      <trkpt lat="43.0503460" lon="-2.3549520">
        <ele>773.2</ele>
        <time>2020-08-14T10:52:19Z</time>
      </trkpt>
      <trkpt lat="43.0504910" lon="-2.3549120">
        <ele>771.4</ele>
        <time>2020-08-14T10:52:21Z</time>
      </trkpt>
      <trkpt lat="43.0505780" lon="-2.3548840">
        <ele>770.2</ele>
        <time>2020-08-14T10:52:22Z</time>
      </trkpt>
      <trkpt lat="43.0507910" lon="-2.3548250">
        <ele>768.2</ele>
        <time>2020-08-14T10:52:24Z</time>
      </trkpt>
      <trkpt lat="43.0510140" lon="-2.3547590">
        <ele>766.6</ele>
        <time>2020-08-14T10:52:26Z</time>
      </trkpt>
      <trkpt lat="43.0512200" lon="-2.3546890">
        <ele>764.6</ele>
        <time>2020-08-14T10:52:28Z</time>
      </trkpt>
      <trkpt lat="43.0513210" lon="-2.3546510">
        <ele>763.2</ele>
        <time>2020-08-14T10:52:29Z</time>
      </trkpt>
      <trkpt lat="43.0514150" lon="-2.3546060">
        <ele>761.8</ele>
        <time>2020-08-14T10:52:30Z</time>
      </trkpt>
      <trkpt lat="43.0515140" lon="-2.3545500">
        <ele>760.8</ele>
        <time>2020-08-14T10:52:31Z</time>
      </trkpt>
      <trkpt lat="43.0516870" lon="-2.3544070">
        <ele>759.0</ele>
        <time>2020-08-14T10:52:33Z</time>
      </trkpt>
      <trkpt lat="43.0518330" lon="-2.3542430">
        <ele>758.2</ele>
        <time>2020-08-14T10:52:35Z</time>
      </trkpt>
      <trkpt lat="43.0518940" lon="-2.3541480">
        <ele>757.8</ele>
        <time>2020-08-14T10:52:36Z</time>
      </trkpt>
      <trkpt lat="43.0520360" lon="-2.3538300">
        <ele>756.6</ele>
        <time>2020-08-14T10:52:39Z</time>
      </trkpt>
      <trkpt lat="43.0521710" lon="-2.3535030">
        <ele>755.4</ele>
        <time>2020-08-14T10:52:42Z</time>
      </trkpt>
      <trkpt lat="43.0522930" lon="-2.3533720">
        <ele>754.2</ele>
        <time>2020-08-14T10:52:44Z</time>
      </trkpt>
      <trkpt lat="43.0524370" lon="-2.3533240">
        <ele>752.8</ele>
        <time>2020-08-14T10:52:46Z</time>
      </trkpt>
      <trkpt lat="43.0525100" lon="-2.3533210">
        <ele>751.8</ele>
        <time>2020-08-14T10:52:47Z</time>
      </trkpt>
      <trkpt lat="43.0525850" lon="-2.3533290">
        <ele>750.8</ele>
        <time>2020-08-14T10:52:48Z</time>
      </trkpt>
      <trkpt lat="43.0527250" lon="-2.3533730">
        <ele>749.4</ele>
        <time>2020-08-14T10:52:50Z</time>
      </trkpt>
      <trkpt lat="43.0528620" lon="-2.3534470">
        <ele>748.8</ele>
        <time>2020-08-14T10:52:52Z</time>
      </trkpt>
      <trkpt lat="43.0530710" lon="-2.3535820">
        <ele>748.2</ele>
        <time>2020-08-14T10:52:55Z</time>
      </trkpt>
      <trkpt lat="43.0532960" lon="-2.3537110">
        <ele>746.8</ele>
        <time>2020-08-14T10:52:58Z</time>
      </trkpt>
      <trkpt lat="43.0533790" lon="-2.3537490">
        <ele>745.6</ele>
        <time>2020-08-14T10:52:59Z</time>
      </trkpt>
      <trkpt lat="43.0535490" lon="-2.3538230">
        <ele>744.0</ele>
        <time>2020-08-14T10:53:01Z</time>
      </trkpt>
      <trkpt lat="43.0536350" lon="-2.3538560">
        <ele>742.8</ele>
        <time>2020-08-14T10:53:02Z</time>
      </trkpt>
      <trkpt lat="43.0538040" lon="-2.3539040">
        <ele>740.6</ele>
        <time>2020-08-14T10:53:04Z</time>
      </trkpt>
      <trkpt lat="43.0539700" lon="-2.3539490">
        <ele>738.4</ele>
        <time>2020-08-14T10:53:06Z</time>
      </trkpt>
      <trkpt lat="43.0540530" lon="-2.3539680">
        <ele>737.0</ele>
        <time>2020-08-14T10:53:07Z</time>
      </trkpt>
      <trkpt lat="43.0541330" lon="-2.3539730">
        <ele>735.6</ele>
        <time>2020-08-14T10:53:08Z</time>
      </trkpt>
      <trkpt lat="43.0542120" lon="-2.3539640">
        <ele>734.0</ele>
        <time>2020-08-14T10:53:09Z</time>
      </trkpt>
      <trkpt lat="43.0542860" lon="-2.3539480">
        <ele>732.4</ele>
        <time>2020-08-14T10:53:10Z</time>
      </trkpt>
      <trkpt lat="43.0543580" lon="-2.3539300">
        <ele>731.0</ele>
        <time>2020-08-14T10:53:11Z</time>
      </trkpt>
      <trkpt lat="43.0544990" lon="-2.3539060">
        <ele>728.0</ele>
        <time>2020-08-14T10:53:13Z</time>
      </trkpt>
      <trkpt lat="43.0545770" lon="-2.3539160">
        <ele>726.8</ele>
        <time>2020-08-14T10:53:14Z</time>
      </trkpt>
      <trkpt lat="43.0546550" lon="-2.3539340">
        <ele>725.4</ele>
        <time>2020-08-14T10:53:15Z</time>
      </trkpt>
      <trkpt lat="43.0547270" lon="-2.3539480">
        <ele>724.0</ele>
        <time>2020-08-14T10:53:16Z</time>
      </trkpt>
      <trkpt lat="43.0548650" lon="-2.3539830">
        <ele>722.4</ele>
        <time>2020-08-14T10:53:18Z</time>
      </trkpt>
      <trkpt lat="43.0549410" lon="-2.3540010">
        <ele>721.4</ele>
        <time>2020-08-14T10:53:19Z</time>
      </trkpt>
      <trkpt lat="43.0550210" lon="-2.3540190">
        <ele>720.0</ele>
        <time>2020-08-14T10:53:20Z</time>
      </trkpt>
      <trkpt lat="43.0551100" lon="-2.3540330">
        <ele>718.6</ele>
        <time>2020-08-14T10:53:21Z</time>
      </trkpt>
      <trkpt lat="43.0551990" lon="-2.3540490">
        <ele>717.0</ele>
        <time>2020-08-14T10:53:22Z</time>
      </trkpt>
      <trkpt lat="43.0552900" lon="-2.3540670">
        <ele>715.6</ele>
        <time>2020-08-14T10:53:23Z</time>
      </trkpt>
      <trkpt lat="43.0553850" lon="-2.3540950">
        <ele>714.4</ele>
        <time>2020-08-14T10:53:24Z</time>
      </trkpt>
      <trkpt lat="43.0554750" lon="-2.3541210">
        <ele>713.2</ele>
        <time>2020-08-14T10:53:25Z</time>
      </trkpt>
      <trkpt lat="43.0555720" lon="-2.3541470">
        <ele>712.0</ele>
        <time>2020-08-14T10:53:26Z</time>
      </trkpt>
      <trkpt lat="43.0556770" lon="-2.3541770">
        <ele>710.6</ele>
        <time>2020-08-14T10:53:27Z</time>
      </trkpt>
      <trkpt lat="43.0557770" lon="-2.3542190">
        <ele>708.8</ele>
        <time>2020-08-14T10:53:28Z</time>
      </trkpt>
      <trkpt lat="43.0558780" lon="-2.3542670">
        <ele>707.2</ele>
        <time>2020-08-14T10:53:29Z</time>
      </trkpt>
      <trkpt lat="43.0559780" lon="-2.3543220">
        <ele>705.6</ele>
        <time>2020-08-14T10:53:30Z</time>
      </trkpt>
      <trkpt lat="43.0560690" lon="-2.3543850">
        <ele>704.0</ele>
        <time>2020-08-14T10:53:31Z</time>
      </trkpt>
      <trkpt lat="43.0561550" lon="-2.3544730">
        <ele>702.2</ele>
        <time>2020-08-14T10:53:32Z</time>
      </trkpt>
      <trkpt lat="43.0562220" lon="-2.3545740">
        <ele>700.8</ele>
        <time>2020-08-14T10:53:33Z</time>
      </trkpt>
      <trkpt lat="43.0562700" lon="-2.3546770">
        <ele>699.2</ele>
        <time>2020-08-14T10:53:34Z</time>
      </trkpt>
      <trkpt lat="43.0563010" lon="-2.3547680">
        <ele>697.0</ele>
        <time>2020-08-14T10:53:35Z</time>
      </trkpt>
      <trkpt lat="43.0563290" lon="-2.3548410">
        <ele>695.2</ele>
        <time>2020-08-14T10:53:36Z</time>
      </trkpt>
      <trkpt lat="43.0563490" lon="-2.3548880">
        <ele>693.2</ele>
        <time>2020-08-14T10:53:37Z</time>
      </trkpt>
      <trkpt lat="43.0563860" lon="-2.3548940">
        <ele>691.6</ele>
        <time>2020-08-14T10:53:38Z</time>
      </trkpt>
      <trkpt lat="43.0564310" lon="-2.3548640">
        <ele>690.0</ele>
        <time>2020-08-14T10:53:39Z</time>
      </trkpt>
      <trkpt lat="43.0564660" lon="-2.3548130">
        <ele>688.8</ele>
        <time>2020-08-14T10:53:40Z</time>
      </trkpt>
      <trkpt lat="43.0564950" lon="-2.3546510">
        <ele>687.0</ele>
        <time>2020-08-14T10:53:42Z</time>
      </trkpt>
      <trkpt lat="43.0564870" lon="-2.3544480">
        <ele>685.6</ele>
        <time>2020-08-14T10:53:44Z</time>
      </trkpt>
      <trkpt lat="43.0564100" lon="-2.3541600">
        <ele>684.2</ele>
        <time>2020-08-14T10:53:47Z</time>
      </trkpt>
      <trkpt lat="43.0564060" lon="-2.3540860">
        <ele>682.8</ele>
        <time>2020-08-14T10:53:48Z</time>
      </trkpt>
      <trkpt lat="43.0564290" lon="-2.3539840">
        <ele>681.4</ele>
        <time>2020-08-14T10:53:50Z</time>
      </trkpt>
      <trkpt lat="43.0564470" lon="-2.3539680">
        <ele>680.4</ele>
        <time>2020-08-14T10:53:51Z</time>
      </trkpt>
      <trkpt lat="43.0565080" lon="-2.3540350">
        <ele>678.8</ele>
        <time>2020-08-14T10:53:53Z</time>
      </trkpt>
      <trkpt lat="43.0565910" lon="-2.3541890">
        <ele>677.0</ele>
        <time>2020-08-14T10:53:55Z</time>
      </trkpt>
      <trkpt lat="43.0566430" lon="-2.3542840">
        <ele>676.4</ele>
        <time>2020-08-14T10:53:56Z</time>
      </trkpt>
      <trkpt lat="43.0566960" lon="-2.3543810">
        <ele>675.8</ele>
        <time>2020-08-14T10:53:57Z</time>
      </trkpt>
      <trkpt lat="43.0568080" lon="-2.3545940">
        <ele>674.6</ele>
        <time>2020-08-14T10:53:59Z</time>
      </trkpt>
      <trkpt lat="43.0568900" lon="-2.3548270">
        <ele>672.8</ele>
        <time>2020-08-14T10:54:01Z</time>
      </trkpt>
      <trkpt lat="43.0569000" lon="-2.3550660">
        <ele>671.2</ele>
        <time>2020-08-14T10:54:03Z</time>
      </trkpt>
      <trkpt lat="43.0568820" lon="-2.3552380">
        <ele>669.6</ele>
        <time>2020-08-14T10:54:05Z</time>
      </trkpt>
      <trkpt lat="43.0568890" lon="-2.3552990">
        <ele>668.4</ele>
        <time>2020-08-14T10:54:06Z</time>
      </trkpt>
      <trkpt lat="43.0569050" lon="-2.3553370">
        <ele>667.2</ele>
        <time>2020-08-14T10:54:07Z</time>
      </trkpt>
      <trkpt lat="43.0569320" lon="-2.3553550">
        <ele>665.8</ele>
        <time>2020-08-14T10:54:08Z</time>
      </trkpt>
      <trkpt lat="43.0569950" lon="-2.3552670">
        <ele>664.2</ele>
        <time>2020-08-14T10:54:10Z</time>
      </trkpt>
      <trkpt lat="43.0570710" lon="-2.3550540">
        <ele>662.8</ele>
        <time>2020-08-14T10:54:13Z</time>
      </trkpt>
      <trkpt lat="43.0571660" lon="-2.3547360">
        <ele>661.2</ele>
        <time>2020-08-14T10:54:16Z</time>
      </trkpt>
      <trkpt lat="43.0572250" lon="-2.3544760">
        <ele>660.0</ele>
        <time>2020-08-14T10:54:18Z</time>
      </trkpt>
      <trkpt lat="43.0572470" lon="-2.3543420">
        <ele>659.2</ele>
        <time>2020-08-14T10:54:19Z</time>
      </trkpt>
      <trkpt lat="43.0572570" lon="-2.3542060">
        <ele>658.4</ele>
        <time>2020-08-14T10:54:20Z</time>
      </trkpt>
      <trkpt lat="43.0572710" lon="-2.3539370">
        <ele>656.4</ele>
        <time>2020-08-14T10:54:22Z</time>
      </trkpt>
      <trkpt lat="43.0572710" lon="-2.3538080">
        <ele>654.6</ele>
        <time>2020-08-14T10:54:23Z</time>
      </trkpt>
      <trkpt lat="43.0572700" lon="-2.3536790">
        <ele>653.0</ele>
        <time>2020-08-14T10:54:24Z</time>
      </trkpt>
      <trkpt lat="43.0572680" lon="-2.3535630">
        <ele>651.6</ele>
        <time>2020-08-14T10:54:25Z</time>
      </trkpt>
      <trkpt lat="43.0572610" lon="-2.3534430">
        <ele>650.2</ele>
        <time>2020-08-14T10:54:26Z</time>
      </trkpt>
      <trkpt lat="43.0572520" lon="-2.3533120">
        <ele>648.6</ele>
        <time>2020-08-14T10:54:27Z</time>
      </trkpt>
      <trkpt lat="43.0572330" lon="-2.3531730">
        <ele>647.2</ele>
        <time>2020-08-14T10:54:28Z</time>
      </trkpt>
      <trkpt lat="43.0572170" lon="-2.3530260">
        <ele>645.6</ele>
        <time>2020-08-14T10:54:29Z</time>
      </trkpt>
      <trkpt lat="43.0571940" lon="-2.3528780">
        <ele>644.2</ele>
        <time>2020-08-14T10:54:30Z</time>
      </trkpt>
      <trkpt lat="43.0571690" lon="-2.3527380">
        <ele>642.2</ele>
        <time>2020-08-14T10:54:31Z</time>
      </trkpt>
      <trkpt lat="43.0571390" lon="-2.3526100">
        <ele>640.4</ele>
        <time>2020-08-14T10:54:32Z</time>
      </trkpt>
      <trkpt lat="43.0571050" lon="-2.3524860">
        <ele>638.8</ele>
        <time>2020-08-14T10:54:33Z</time>
      </trkpt>
      <trkpt lat="43.0570720" lon="-2.3523610">
        <ele>637.0</ele>
        <time>2020-08-14T10:54:34Z</time>
      </trkpt>
      <trkpt lat="43.0570330" lon="-2.3522140">
        <ele>635.0</ele>
        <time>2020-08-14T10:54:35Z</time>
      </trkpt>
      <trkpt lat="43.0569940" lon="-2.3520740">
        <ele>633.0</ele>
        <time>2020-08-14T10:54:36Z</time>
      </trkpt>
      <trkpt lat="43.0569610" lon="-2.3519440">
        <ele>631.0</ele>
        <time>2020-08-14T10:54:37Z</time>
      </trkpt>
      <trkpt lat="43.0569220" lon="-2.3518250">
        <ele>629.2</ele>
        <time>2020-08-14T10:54:38Z</time>
      </trkpt>
      <trkpt lat="43.0568810" lon="-2.3517120">
        <ele>627.8</ele>
        <time>2020-08-14T10:54:39Z</time>
      </trkpt>
      <trkpt lat="43.0568330" lon="-2.3516090">
        <ele>626.2</ele>
        <time>2020-08-14T10:54:40Z</time>
      </trkpt>
      <trkpt lat="43.0567860" lon="-2.3515190">
        <ele>625.0</ele>
        <time>2020-08-14T10:54:41Z</time>
      </trkpt>
      <trkpt lat="43.0567590" lon="-2.3514230">
        <ele>623.6</ele>
        <time>2020-08-14T10:54:42Z</time>
      </trkpt>
      <trkpt lat="43.0567470" lon="-2.3513300">
        <ele>621.8</ele>
        <time>2020-08-14T10:54:43Z</time>
      </trkpt>
      <trkpt lat="43.0567540" lon="-2.3512250">
        <ele>620.0</ele>
        <time>2020-08-14T10:54:44Z</time>
      </trkpt>
      <trkpt lat="43.0567810" lon="-2.3511140">
        <ele>617.8</ele>
        <time>2020-08-14T10:54:45Z</time>
      </trkpt>
      <trkpt lat="43.0568090" lon="-2.3509920">
        <ele>616.2</ele>
        <time>2020-08-14T10:54:46Z</time>
      </trkpt>
      <trkpt lat="43.0568350" lon="-2.3508650">
        <ele>614.4</ele>
        <time>2020-08-14T10:54:47Z</time>
      </trkpt>
      <trkpt lat="43.0568600" lon="-2.3507390">
        <ele>612.4</ele>
        <time>2020-08-14T10:54:48Z</time>
      </trkpt>
      <trkpt lat="43.0568830" lon="-2.3506260">
        <ele>610.8</ele>
        <time>2020-08-14T10:54:49Z</time>
      </trkpt>
      <trkpt lat="43.0569020" lon="-2.3505250">
        <ele>609.6</ele>
        <time>2020-08-14T10:54:50Z</time>
      </trkpt>
      <trkpt lat="43.0569200" lon="-2.3504320">
        <ele>608.4</ele>
        <time>2020-08-14T10:54:51Z</time>
      </trkpt>
      <trkpt lat="43.0569320" lon="-2.3503420">
        <ele>607.6</ele>
        <time>2020-08-14T10:54:52Z</time>
      </trkpt>
      <trkpt lat="43.0569320" lon="-2.3502500">
        <ele>606.4</ele>
        <time>2020-08-14T10:54:53Z</time>
      </trkpt>
      <trkpt lat="43.0569190" lon="-2.3501570">
        <ele>605.2</ele>
        <time>2020-08-14T10:54:54Z</time>
      </trkpt>
      <trkpt lat="43.0568910" lon="-2.3500720">
        <ele>603.0</ele>
        <time>2020-08-14T10:54:55Z</time>
      </trkpt>
      <trkpt lat="43.0568540" lon="-2.3499910">
        <ele>600.8</ele>
        <time>2020-08-14T10:54:56Z</time>
      </trkpt>
      <trkpt lat="43.0568060" lon="-2.3499270">
        <ele>597.2</ele>
        <time>2020-08-14T10:54:57Z</time>
      </trkpt>
      <trkpt lat="43.0567250" lon="-2.3498850">
        <ele>595.8</ele>
        <time>2020-08-14T10:54:58Z</time>
      </trkpt>
      <trkpt lat="43.0566550" lon="-2.3498360">
        <ele>594.6</ele>
        <time>2020-08-14T10:54:59Z</time>
      </trkpt>
      <trkpt lat="43.0565810" lon="-2.3497720">
        <ele>593.4</ele>
        <time>2020-08-14T10:55:00Z</time>
      </trkpt>
      <trkpt lat="43.0565350" lon="-2.3496750">
        <ele>592.0</ele>
        <time>2020-08-14T10:55:01Z</time>
      </trkpt>
      <trkpt lat="43.0565080" lon="-2.3495590">
        <ele>590.8</ele>
        <time>2020-08-14T10:55:02Z</time>
      </trkpt>
      <trkpt lat="43.0564840" lon="-2.3494390">
        <ele>589.6</ele>
        <time>2020-08-14T10:55:03Z</time>
      </trkpt>
      <trkpt lat="43.0564630" lon="-2.3493240">
        <ele>588.4</ele>
        <time>2020-08-14T10:55:04Z</time>
      </trkpt>
      <trkpt lat="43.0564490" lon="-2.3492180">
        <ele>587.2</ele>
        <time>2020-08-14T10:55:05Z</time>
      </trkpt>
      <trkpt lat="43.0564240" lon="-2.3491140">
        <ele>586.0</ele>
        <time>2020-08-14T10:55:06Z</time>
      </trkpt>
      <trkpt lat="43.0563910" lon="-2.3490240">
        <ele>584.6</ele>
        <time>2020-08-14T10:55:07Z</time>
      </trkpt>
      <trkpt lat="43.0563440" lon="-2.3489340">
        <ele>583.2</ele>
        <time>2020-08-14T10:55:08Z</time>
      </trkpt>
      <trkpt lat="43.0562870" lon="-2.3488540">
        <ele>581.8</ele>
        <time>2020-08-14T10:55:09Z</time>
      </trkpt>
      <trkpt lat="43.0562250" lon="-2.3487780">
        <ele>580.2</ele>
        <time>2020-08-14T10:55:10Z</time>
      </trkpt>
      <trkpt lat="43.0561770" lon="-2.3486950">
        <ele>578.6</ele>
        <time>2020-08-14T10:55:11Z</time>
      </trkpt>
      <trkpt lat="43.0561480" lon="-2.3486030">
        <ele>577.2</ele>
        <time>2020-08-14T10:55:12Z</time>
      </trkpt>
      <trkpt lat="43.0561330" lon="-2.3485060">
        <ele>575.8</ele>
        <time>2020-08-14T10:55:13Z</time>
      </trkpt>
      <trkpt lat="43.0561330" lon="-2.3484060">
        <ele>574.4</ele>
        <time>2020-08-14T10:55:14Z</time>
      </trkpt>
      <trkpt lat="43.0561380" lon="-2.3483000">
        <ele>572.8</ele>
        <time>2020-08-14T10:55:15Z</time>
      </trkpt>
      <trkpt lat="43.0561590" lon="-2.3481930">
        <ele>571.8</ele>
        <time>2020-08-14T10:55:16Z</time>
      </trkpt>
      <trkpt lat="43.0561730" lon="-2.3480880">
        <ele>570.4</ele>
        <time>2020-08-14T10:55:17Z</time>
      </trkpt>
      <trkpt lat="43.0561660" lon="-2.3478810">
        <ele>569.0</ele>
        <time>2020-08-14T10:55:19Z</time>
      </trkpt>
      <trkpt lat="43.0561160" lon="-2.3476870">
        <ele>567.8</ele>
        <time>2020-08-14T10:55:21Z</time>
      </trkpt>
      <trkpt lat="43.0560790" lon="-2.3476060">
        <ele>566.6</ele>
        <time>2020-08-14T10:55:22Z</time>
      </trkpt>
      <trkpt lat="43.0560350" lon="-2.3475420">
        <ele>565.4</ele>
        <time>2020-08-14T10:55:23Z</time>
      </trkpt>
      <trkpt lat="43.0559920" lon="-2.3474910">
        <ele>564.2</ele>
        <time>2020-08-14T10:55:24Z</time>
      </trkpt>
      <trkpt lat="43.0559460" lon="-2.3474600">
        <ele>563.0</ele>
        <time>2020-08-14T10:55:25Z</time>
      </trkpt>
      <trkpt lat="43.0558950" lon="-2.3474390">
        <ele>562.0</ele>
        <time>2020-08-14T10:55:26Z</time>
      </trkpt>
      <trkpt lat="43.0558140" lon="-2.3473440">
        <ele>560.0</ele>
        <time>2020-08-14T10:55:28Z</time>
      </trkpt>
      <trkpt lat="43.0557930" lon="-2.3472780">
        <ele>558.6</ele>
        <time>2020-08-14T10:55:29Z</time>
      </trkpt>
      <trkpt lat="43.0558010" lon="-2.3471940">
        <ele>557.4</ele>
        <time>2020-08-14T10:55:30Z</time>
      </trkpt>
      <trkpt lat="43.0558450" lon="-2.3470010">
        <ele>555.6</ele>
        <time>2020-08-14T10:55:32Z</time>
      </trkpt>
      <trkpt lat="43.0558810" lon="-2.3467730">
        <ele>554.6</ele>
        <time>2020-08-14T10:55:34Z</time>
      </trkpt>
      <trkpt lat="43.0558940" lon="-2.3466460">
        <ele>554.2</ele>
        <time>2020-08-14T10:55:35Z</time>
      </trkpt>
      <trkpt lat="43.0559240" lon="-2.3463790">
        <ele>553.0</ele>
        <time>2020-08-14T10:55:37Z</time>
      </trkpt>
      <trkpt lat="43.0559520" lon="-2.3461140">
        <ele>550.8</ele>
        <time>2020-08-14T10:55:39Z</time>
      </trkpt>
      <trkpt lat="43.0559530" lon="-2.3459870">
        <ele>549.6</ele>
        <time>2020-08-14T10:55:40Z</time>
      </trkpt>
      <trkpt lat="43.0559480" lon="-2.3458620">
        <ele>548.2</ele>
        <time>2020-08-14T10:55:41Z</time>
      </trkpt>
      <trkpt lat="43.0559450" lon="-2.3457380">
        <ele>546.8</ele>
        <time>2020-08-14T10:55:42Z</time>
      </trkpt>
      <trkpt lat="43.0559390" lon="-2.3456060">
        <ele>545.2</ele>
        <time>2020-08-14T10:55:43Z</time>
      </trkpt>
      <trkpt lat="43.0559300" lon="-2.3454740">
        <ele>543.8</ele>
        <time>2020-08-14T10:55:44Z</time>
      </trkpt>
      <trkpt lat="43.0559240" lon="-2.3453590">
        <ele>542.8</ele>
        <time>2020-08-14T10:55:45Z</time>
      </trkpt>
      <trkpt lat="43.0559110" lon="-2.3452590">
        <ele>541.6</ele>
        <time>2020-08-14T10:55:46Z</time>
      </trkpt>
      <trkpt lat="43.0558850" lon="-2.3451830">
        <ele>540.6</ele>
        <time>2020-08-14T10:55:47Z</time>
      </trkpt>
      <trkpt lat="43.0558460" lon="-2.3451150">
        <ele>539.4</ele>
        <time>2020-08-14T10:55:48Z</time>
      </trkpt>
      <trkpt lat="43.0557890" lon="-2.3450620">
        <ele>538.4</ele>
        <time>2020-08-14T10:55:49Z</time>
      </trkpt>
      <trkpt lat="43.0557200" lon="-2.3450170">
        <ele>537.2</ele>
        <time>2020-08-14T10:55:50Z</time>
      </trkpt>
      <trkpt lat="43.0556480" lon="-2.3449710">
        <ele>536.0</ele>
        <time>2020-08-14T10:55:51Z</time>
      </trkpt>
      <trkpt lat="43.0555790" lon="-2.3449140">
        <ele>534.4</ele>
        <time>2020-08-14T10:55:52Z</time>
      </trkpt>
      <trkpt lat="43.0555140" lon="-2.3448460">
        <ele>533.0</ele>
        <time>2020-08-14T10:55:53Z</time>
      </trkpt>
      <trkpt lat="43.0554130" lon="-2.3446840">
        <ele>531.4</ele>
        <time>2020-08-14T10:55:55Z</time>
      </trkpt>
      <trkpt lat="43.0553450" lon="-2.3444920">
        <ele>530.2</ele>
        <time>2020-08-14T10:55:57Z</time>
      </trkpt>
      <trkpt lat="43.0553140" lon="-2.3443850">
        <ele>529.6</ele>
        <time>2020-08-14T10:55:58Z</time>
      </trkpt>
      <trkpt lat="43.0552820" lon="-2.3442700">
        <ele>529.0</ele>
        <time>2020-08-14T10:55:59Z</time>
      </trkpt>
      <trkpt lat="43.0552270" lon="-2.3440250">
        <ele>528.0</ele>
        <time>2020-08-14T10:56:01Z</time>
      </trkpt>
      <trkpt lat="43.0551770" lon="-2.3437840">
        <ele>526.4</ele>
        <time>2020-08-14T10:56:03Z</time>
      </trkpt>
      <trkpt lat="43.0551180" lon="-2.3435600">
        <ele>525.0</ele>
        <time>2020-08-14T10:56:05Z</time>
      </trkpt>
      <trkpt lat="43.0550800" lon="-2.3434460">
        <ele>524.4</ele>
        <time>2020-08-14T10:56:06Z</time>
      </trkpt>
      <trkpt lat="43.0550340" lon="-2.3433310">
        <ele>521.6</ele>
        <time>2020-08-14T10:56:07Z</time>
      </trkpt>
      <trkpt lat="43.0549830" lon="-2.3432090">
        <ele>519.6</ele>
        <time>2020-08-14T10:56:08Z</time>
      </trkpt>
      <trkpt lat="43.0549340" lon="-2.3430810">
        <ele>518.0</ele>
        <time>2020-08-14T10:56:09Z</time>
      </trkpt>
      <trkpt lat="43.0548840" lon="-2.3429450">
        <ele>516.8</ele>
        <time>2020-08-14T10:56:10Z</time>
      </trkpt>
      <trkpt lat="43.0548340" lon="-2.3428080">
        <ele>515.6</ele>
        <time>2020-08-14T10:56:11Z</time>
      </trkpt>
      <trkpt lat="43.0547900" lon="-2.3426680">
        <ele>514.2</ele>
        <time>2020-08-14T10:56:12Z</time>
      </trkpt>
      <trkpt lat="43.0547570" lon="-2.3425210">
        <ele>512.8</ele>
        <time>2020-08-14T10:56:13Z</time>
      </trkpt>
      <trkpt lat="43.0547370" lon="-2.3423720">
        <ele>511.8</ele>
        <time>2020-08-14T10:56:14Z</time>
      </trkpt>
      <trkpt lat="43.0547370" lon="-2.3422230">
        <ele>509.8</ele>
        <time>2020-08-14T10:56:15Z</time>
      </trkpt>
      <trkpt lat="43.0547500" lon="-2.3420780">
        <ele>508.6</ele>
        <time>2020-08-14T10:56:16Z</time>
      </trkpt>
      <trkpt lat="43.0547740" lon="-2.3419400">
        <ele>507.6</ele>
        <time>2020-08-14T10:56:17Z</time>
      </trkpt>
      <trkpt lat="43.0548040" lon="-2.3418190">
        <ele>506.4</ele>
        <time>2020-08-14T10:56:18Z</time>
      </trkpt>
      <trkpt lat="43.0548260" lon="-2.3417130">
        <ele>505.4</ele>
        <time>2020-08-14T10:56:19Z</time>
      </trkpt>
      <trkpt lat="43.0548410" lon="-2.3416230">
        <ele>504.0</ele>
        <time>2020-08-14T10:56:20Z</time>
      </trkpt>
      <trkpt lat="43.0548550" lon="-2.3415510">
        <ele>502.8</ele>
        <time>2020-08-14T10:56:21Z</time>
      </trkpt>
      <trkpt lat="43.0548820" lon="-2.3415090">
        <ele>501.4</ele>
        <time>2020-08-14T10:56:22Z</time>
      </trkpt>
      <trkpt lat="43.0549500" lon="-2.3415070">
        <ele>500.6</ele>
        <time>2020-08-14T10:56:24Z</time>
      </trkpt>
      <trkpt lat="43.0549840" lon="-2.3419060">
        <ele>499.6</ele>
        <time>2020-08-14T10:56:29Z</time>
      </trkpt>
      <trkpt lat="43.0549780" lon="-2.3420120">
        <ele>499.6</ele>
        <time>2020-08-14T10:56:30Z</time>
      </trkpt>
      <trkpt lat="43.0549790" lon="-2.3421110">
        <ele>499.4</ele>
        <time>2020-08-14T10:56:31Z</time>
      </trkpt>
      <trkpt lat="43.0550410" lon="-2.3423410">
        <ele>498.2</ele>
        <time>2020-08-14T10:56:34Z</time>
      </trkpt>
      <trkpt lat="43.0551620" lon="-2.3423580">
        <ele>496.6</ele>
        <time>2020-08-14T10:56:36Z</time>
      </trkpt>
      <trkpt lat="43.0552420" lon="-2.3423390">
        <ele>495.4</ele>
        <time>2020-08-14T10:56:37Z</time>
      </trkpt>
      <trkpt lat="43.0553340" lon="-2.3423170">
        <ele>494.4</ele>
        <time>2020-08-14T10:56:38Z</time>
      </trkpt>
      <trkpt lat="43.0555630" lon="-2.3422780">
        <ele>492.6</ele>
        <time>2020-08-14T10:56:40Z</time>
      </trkpt>
      <trkpt lat="43.0556830" lon="-2.3422630">
        <ele>491.4</ele>
        <time>2020-08-14T10:56:41Z</time>
      </trkpt>
      <trkpt lat="43.0559370" lon="-2.3422170">
        <ele>489.8</ele>
        <time>2020-08-14T10:56:43Z</time>
      </trkpt>
      <trkpt lat="43.0561720" lon="-2.3421300">
        <ele>487.8</ele>
        <time>2020-08-14T10:56:45Z</time>
      </trkpt>
      <trkpt lat="43.0562740" lon="-2.3420690">
        <ele>486.6</ele>
        <time>2020-08-14T10:56:46Z</time>
      </trkpt>
      <trkpt lat="43.0563560" lon="-2.3419810">
        <ele>485.2</ele>
        <time>2020-08-14T10:56:47Z</time>
      </trkpt>
      <trkpt lat="43.0564230" lon="-2.3418730">
        <ele>483.6</ele>
        <time>2020-08-14T10:56:48Z</time>
      </trkpt>
      <trkpt lat="43.0564690" lon="-2.3417400">
        <ele>481.6</ele>
        <time>2020-08-14T10:56:49Z</time>
      </trkpt>
      <trkpt lat="43.0565040" lon="-2.3415930">
        <ele>479.6</ele>
        <time>2020-08-14T10:56:50Z</time>
      </trkpt>
      <trkpt lat="43.0565230" lon="-2.3414400">
        <ele>478.0</ele>
        <time>2020-08-14T10:56:51Z</time>
      </trkpt>
      <trkpt lat="43.0565310" lon="-2.3412790">
        <ele>476.6</ele>
        <time>2020-08-14T10:56:52Z</time>
      </trkpt>
      <trkpt lat="43.0565360" lon="-2.3411110">
        <ele>475.4</ele>
        <time>2020-08-14T10:56:53Z</time>
      </trkpt>
      <trkpt lat="43.0565270" lon="-2.3409390">
        <ele>474.4</ele>
        <time>2020-08-14T10:56:54Z</time>
      </trkpt>
      <trkpt lat="43.0565090" lon="-2.3407630">
        <ele>473.0</ele>
        <time>2020-08-14T10:56:55Z</time>
      </trkpt>
      <trkpt lat="43.0564850" lon="-2.3405850">
        <ele>471.4</ele>
        <time>2020-08-14T10:56:56Z</time>
      </trkpt>
      <trkpt lat="43.0564530" lon="-2.3404120">
        <ele>469.6</ele>
        <time>2020-08-14T10:56:57Z</time>
      </trkpt>
      <trkpt lat="43.0564160" lon="-2.3402480">
        <ele>467.8</ele>
        <time>2020-08-14T10:56:58Z</time>
      </trkpt>
      <trkpt lat="43.0563850" lon="-2.3400960">
        <ele>466.4</ele>
        <time>2020-08-14T10:56:59Z</time>
      </trkpt>
      <trkpt lat="43.0563730" lon="-2.3399450">
        <ele>465.0</ele>
        <time>2020-08-14T10:57:00Z</time>
      </trkpt>
      <trkpt lat="43.0563670" lon="-2.3397900">
        <ele>463.6</ele>
        <time>2020-08-14T10:57:01Z</time>
      </trkpt>
      <trkpt lat="43.0563610" lon="-2.3396420">
        <ele>462.0</ele>
        <time>2020-08-14T10:57:02Z</time>
      </trkpt>
      <trkpt lat="43.0563570" lon="-2.3395100">
        <ele>460.4</ele>
        <time>2020-08-14T10:57:03Z</time>
      </trkpt>
      <trkpt lat="43.0563610" lon="-2.3393910">
        <ele>458.4</ele>
        <time>2020-08-14T10:57:04Z</time>
      </trkpt>
      <trkpt lat="43.0563840" lon="-2.3392830">
        <ele>456.6</ele>
        <time>2020-08-14T10:57:05Z</time>
      </trkpt>
      <trkpt lat="43.0564170" lon="-2.3391800">
        <ele>455.0</ele>
        <time>2020-08-14T10:57:06Z</time>
      </trkpt>
      <trkpt lat="43.0564580" lon="-2.3390800">
        <ele>453.4</ele>
        <time>2020-08-14T10:57:07Z</time>
      </trkpt>
      <trkpt lat="43.0565030" lon="-2.3389840">
        <ele>452.0</ele>
        <time>2020-08-14T10:57:08Z</time>
      </trkpt>
      <trkpt lat="43.0565540" lon="-2.3388930">
        <ele>450.8</ele>
        <time>2020-08-14T10:57:09Z</time>
      </trkpt>
      <trkpt lat="43.0566110" lon="-2.3388110">
        <ele>450.0</ele>
        <time>2020-08-14T10:57:10Z</time>
      </trkpt>
      <trkpt lat="43.0566750" lon="-2.3387360">
        <ele>449.6</ele>
        <time>2020-08-14T10:57:11Z</time>
      </trkpt>
      <trkpt lat="43.0568010" lon="-2.3385810">
        <ele>449.2</ele>
        <time>2020-08-14T10:57:13Z</time>
      </trkpt>
      <trkpt lat="43.0569210" lon="-2.3383920">
        <ele>448.2</ele>
        <time>2020-08-14T10:57:15Z</time>
      </trkpt>
      <trkpt lat="43.0569880" lon="-2.3382990">
        <ele>446.4</ele>
        <time>2020-08-14T10:57:16Z</time>
      </trkpt>
      <trkpt lat="43.0571100" lon="-2.3381450">
        <ele>444.8</ele>
        <time>2020-08-14T10:57:18Z</time>
      </trkpt>
      <trkpt lat="43.0572000" lon="-2.3380340">
        <ele>443.6</ele>
        <time>2020-08-14T10:57:20Z</time>
      </trkpt>
      <trkpt lat="43.0572550" lon="-2.3379540">
        <ele>441.8</ele>
        <time>2020-08-14T10:57:22Z</time>
      </trkpt>
      <trkpt lat="43.0572570" lon="-2.3379200">
        <ele>440.6</ele>
        <time>2020-08-14T10:57:23Z</time>
      </trkpt>
      <trkpt lat="43.0572410" lon="-2.3378900">
        <ele>439.6</ele>
        <time>2020-08-14T10:57:24Z</time>
      </trkpt>
      <trkpt lat="43.0571910" lon="-2.3378610">
        <ele>437.8</ele>
        <time>2020-08-14T10:57:26Z</time>
      </trkpt>
      <trkpt lat="43.0571420" lon="-2.3378650">
        <ele>436.4</ele>
        <time>2020-08-14T10:57:28Z</time>
      </trkpt>
      <trkpt lat="43.0571140" lon="-2.3378720">
        <ele>436.0</ele>
        <time>2020-08-14T10:57:29Z</time>
      </trkpt>
      <trkpt lat="43.0569460" lon="-2.3378420">
        <ele>435.4</ele>
        <time>2020-08-14T10:57:34Z</time>
      </trkpt>
      <trkpt lat="43.0567720" lon="-2.3377170">
        <ele>435.4</ele>
        <time>2020-08-14T10:57:39Z</time>
      </trkpt>
      <trkpt lat="43.0564060" lon="-2.3373980">
        <ele>435.8</ele>
        <time>2020-08-14T10:57:50Z</time>
      </trkpt>
      <trkpt lat="43.0562680" lon="-2.3372340">
        <ele>436.0</ele>
        <time>2020-08-14T10:57:54Z</time>
      </trkpt>
      <trkpt lat="43.0561470" lon="-2.3369320">
        <ele>436.0</ele>
        <time>2020-08-14T10:57:59Z</time>
      </trkpt>
      <trkpt lat="43.0559430" lon="-2.3361720">
        <ele>435.0</ele>
        <time>2020-08-14T10:58:09Z</time>
      </trkpt>
      <trkpt lat="43.0559080" lon="-2.3360160">
        <ele>434.8</ele>
        <time>2020-08-14T10:58:11Z</time>
      </trkpt>
      <trkpt lat="43.0559110" lon="-2.3354510">
        <ele>434.0</ele>
        <time>2020-08-14T10:58:22Z</time>
      </trkpt>
      <trkpt lat="43.0559710" lon="-2.3352740">
        <ele>433.8</ele>
        <time>2020-08-14T10:58:24Z</time>
      </trkpt>
      <trkpt lat="43.0561540" lon="-2.3350250">
        <ele>433.4</ele>
        <time>2020-08-14T10:58:27Z</time>
      </trkpt>
      <trkpt lat="43.0562180" lon="-2.3349360">
        <ele>432.8</ele>
        <time>2020-08-14T10:58:28Z</time>
      </trkpt>
      <trkpt lat="43.0563140" lon="-2.3347270">
        <ele>431.4</ele>
        <time>2020-08-14T10:58:30Z</time>
      </trkpt>
      <trkpt lat="43.0563480" lon="-2.3346250">
        <ele>430.2</ele>
        <time>2020-08-14T10:58:31Z</time>
      </trkpt>
      <trkpt lat="43.0563720" lon="-2.3345390">
        <ele>428.8</ele>
        <time>2020-08-14T10:58:32Z</time>
      </trkpt>
      <trkpt lat="43.0563860" lon="-2.3344610">
        <ele>427.6</ele>
        <time>2020-08-14T10:58:33Z</time>
      </trkpt>
      <trkpt lat="43.0563630" lon="-2.3343130">
        <ele>426.0</ele>
        <time>2020-08-14T10:58:35Z</time>
      </trkpt>
      <trkpt lat="43.0562710" lon="-2.3342050">
        <ele>425.0</ele>
        <time>2020-08-14T10:58:37Z</time>
      </trkpt>
      <trkpt lat="43.0561540" lon="-2.3341170">
        <ele>424.4</ele>
        <time>2020-08-14T10:58:39Z</time>
      </trkpt>
      <trkpt lat="43.0559930" lon="-2.3340040">
        <ele>424.2</ele>
        <time>2020-08-14T10:58:42Z</time>
      </trkpt>
      <trkpt lat="43.0558890" lon="-2.3339390">
        <ele>424.0</ele>
        <time>2020-08-14T10:58:44Z</time>
      </trkpt>
      <trkpt lat="43.0556660" lon="-2.3338120">
        <ele>424.0</ele>
        <time>2020-08-14T10:58:48Z</time>
      </trkpt>
      <trkpt lat="43.0552750" lon="-2.3336070">
        <ele>425.2</ele>
        <time>2020-08-14T10:58:55Z</time>
      </trkpt>
      <trkpt lat="43.0550270" lon="-2.3334760">
        <ele>426.4</ele>
        <time>2020-08-14T10:59:00Z</time>
      </trkpt>
      <trkpt lat="43.0547220" lon="-2.3333160">
        <ele>427.8</ele>
        <time>2020-08-14T10:59:06Z</time>
      </trkpt>
      <trkpt lat="43.0543710" lon="-2.3331410">
        <ele>428.0</ele>
        <time>2020-08-14T10:59:13Z</time>
      </trkpt>
      <trkpt lat="43.0538170" lon="-2.3331190">
        <ele>427.8</ele>
        <time>2020-08-14T10:59:23Z</time>
      </trkpt>
      <trkpt lat="43.0532760" lon="-2.3331190">
        <ele>427.4</ele>
        <time>2020-08-14T10:59:32Z</time>
      </trkpt>
      <trkpt lat="43.0530980" lon="-2.3330940">
        <ele>426.8</ele>
        <time>2020-08-14T10:59:35Z</time>
      </trkpt>
      <trkpt lat="43.0529760" lon="-2.3330930">
        <ele>427.0</ele>
        <time>2020-08-14T10:59:37Z</time>
      </trkpt>
      <trkpt lat="43.0524000" lon="-2.3331050">
        <ele>425.8</ele>
        <time>2020-08-14T10:59:46Z</time>
      </trkpt>
      <trkpt lat="43.0522700" lon="-2.3331250">
        <ele>425.2</ele>
        <time>2020-08-14T10:59:48Z</time>
      </trkpt>
      <trkpt lat="43.0521770" lon="-2.3332170">
        <ele>424.8</ele>
        <time>2020-08-14T10:59:50Z</time>
      </trkpt>
      <trkpt lat="43.0520540" lon="-2.3333650">
        <ele>424.4</ele>
        <time>2020-08-14T10:59:53Z</time>
      </trkpt>
      <trkpt lat="43.0518940" lon="-2.3335380">
        <ele>424.4</ele>
        <time>2020-08-14T10:59:57Z</time>
      </trkpt>
      <trkpt lat="43.0514270" lon="-2.3339460">
        <ele>425.2</ele>
        <time>2020-08-14T11:00:08Z</time>
      </trkpt>
      <trkpt lat="43.0513440" lon="-2.3339960">
        <ele>425.2</ele>
        <time>2020-08-14T11:00:10Z</time>
      </trkpt>
      <trkpt lat="43.0509970" lon="-2.3341130">
        <ele>425.2</ele>
        <time>2020-08-14T11:00:16Z</time>
      </trkpt>
      <trkpt lat="43.0509340" lon="-2.3341340">
        <ele>425.0</ele>
        <time>2020-08-14T11:00:17Z</time>
      </trkpt>
      <trkpt lat="43.0507640" lon="-2.3342310">
        <ele>424.2</ele>
        <time>2020-08-14T11:00:20Z</time>
      </trkpt>
      <trkpt lat="43.0507200" lon="-2.3342740">
        <ele>423.8</ele>
        <time>2020-08-14T11:00:21Z</time>
      </trkpt>
      <trkpt lat="43.0504250" lon="-2.3345250">
        <ele>423.2</ele>
        <time>2020-08-14T11:00:28Z</time>
      </trkpt>
      <trkpt lat="43.0503350" lon="-2.3345650">
        <ele>423.2</ele>
        <time>2020-08-14T11:00:30Z</time>
      </trkpt>
      <trkpt lat="43.0501020" lon="-2.3346480">
        <ele>424.4</ele>
        <time>2020-08-14T11:00:35Z</time>
      </trkpt>
      <trkpt lat="43.0499500" lon="-2.3347060">
        <ele>425.0</ele>
        <time>2020-08-14T11:00:38Z</time>
      </trkpt>
      <trkpt lat="43.0495280" lon="-2.3348900">
        <ele>426.4</ele>
        <time>2020-08-14T11:00:46Z</time>
      </trkpt>
      <trkpt lat="43.0490080" lon="-2.3351240">
        <ele>426.4</ele>
        <time>2020-08-14T11:00:55Z</time>
      </trkpt>
      <trkpt lat="43.0484590" lon="-2.3353920">
        <ele>425.8</ele>
        <time>2020-08-14T11:01:05Z</time>
      </trkpt>
      <trkpt lat="43.0484080" lon="-2.3354190">
        <ele>425.8</ele>
        <time>2020-08-14T11:01:06Z</time>
      </trkpt>
      <trkpt lat="43.0480350" lon="-2.3356410">
        <ele>426.2</ele>
        <time>2020-08-14T11:01:14Z</time>
      </trkpt>
      <trkpt lat="43.0475120" lon="-2.3356650">
        <ele>426.6</ele>
        <time>2020-08-14T11:01:25Z</time>
      </trkpt>
      <trkpt lat="43.0472740" lon="-2.3355490">
        <ele>427.8</ele>
        <time>2020-08-14T11:01:30Z</time>
      </trkpt>
      <trkpt lat="43.0468470" lon="-2.3359600">
        <ele>428.4</ele>
        <time>2020-08-14T11:01:41Z</time>
      </trkpt>
      <trkpt lat="43.0466310" lon="-2.3360500">
        <ele>428.8</ele>
        <time>2020-08-14T11:01:45Z</time>
      </trkpt>
      <trkpt lat="43.0463130" lon="-2.3361610">
        <ele>429.0</ele>
        <time>2020-08-14T11:01:51Z</time>
      </trkpt>
      <trkpt lat="43.0461660" lon="-2.3362590">
        <ele>429.0</ele>
        <time>2020-08-14T11:01:54Z</time>
      </trkpt>
      <trkpt lat="43.0456870" lon="-2.3366120">
        <ele>429.6</ele>
        <time>2020-08-14T11:02:04Z</time>
      </trkpt>
      <trkpt lat="43.0452010" lon="-2.3370000">
        <ele>429.8</ele>
        <time>2020-08-14T11:02:14Z</time>
      </trkpt>
      <trkpt lat="43.0448670" lon="-2.3372770">
        <ele>430.2</ele>
        <time>2020-08-14T11:02:21Z</time>
      </trkpt>
      <trkpt lat="43.0447250" lon="-2.3373910">
        <ele>430.2</ele>
        <time>2020-08-14T11:02:24Z</time>
      </trkpt>
      <trkpt lat="43.0441820" lon="-2.3376800">
        <ele>431.2</ele>
        <time>2020-08-14T11:02:34Z</time>
      </trkpt>
      <trkpt lat="43.0438450" lon="-2.3378230">
        <ele>431.6</ele>
        <time>2020-08-14T11:02:40Z</time>
      </trkpt>
      <trkpt lat="43.0436190" lon="-2.3378840">
        <ele>431.8</ele>
        <time>2020-08-14T11:02:44Z</time>
      </trkpt>
      <trkpt lat="43.0433870" lon="-2.3378550">
        <ele>432.2</ele>
        <time>2020-08-14T11:02:48Z</time>
      </trkpt>
      <trkpt lat="43.0430550" lon="-2.3376880">
        <ele>432.8</ele>
        <time>2020-08-14T11:02:54Z</time>
      </trkpt>
      <trkpt lat="43.0429570" lon="-2.3375880">
        <ele>432.8</ele>
        <time>2020-08-14T11:02:56Z</time>
      </trkpt>
      <trkpt lat="43.0428720" lon="-2.3374690">
        <ele>433.0</ele>
        <time>2020-08-14T11:02:58Z</time>
      </trkpt>
      <trkpt lat="43.0427080" lon="-2.3372280">
        <ele>433.4</ele>
        <time>2020-08-14T11:03:02Z</time>
      </trkpt>
      <trkpt lat="43.0423680" lon="-2.3369370">
        <ele>433.8</ele>
        <time>2020-08-14T11:03:09Z</time>
      </trkpt>
      <trkpt lat="43.0418850" lon="-2.3364710">
        <ele>434.6</ele>
        <time>2020-08-14T11:03:19Z</time>
      </trkpt>
      <trkpt lat="43.0416280" lon="-2.3361700">
        <ele>435.2</ele>
        <time>2020-08-14T11:03:25Z</time>
      </trkpt>
      <trkpt lat="43.0414020" lon="-2.3359250">
        <ele>436.2</ele>
        <time>2020-08-14T11:03:30Z</time>
      </trkpt>
      <trkpt lat="43.0411060" lon="-2.3356950">
        <ele>437.0</ele>
        <time>2020-08-14T11:03:36Z</time>
      </trkpt>
      <trkpt lat="43.0409540" lon="-2.3356360">
        <ele>437.2</ele>
        <time>2020-08-14T11:03:39Z</time>
      </trkpt>
      <trkpt lat="43.0407790" lon="-2.3356460">
        <ele>437.6</ele>
        <time>2020-08-14T11:03:42Z</time>
      </trkpt>
      <trkpt lat="43.0405890" lon="-2.3357190">
        <ele>438.0</ele>
        <time>2020-08-14T11:03:45Z</time>
      </trkpt>
      <trkpt lat="43.0404120" lon="-2.3358400">
        <ele>438.4</ele>
        <time>2020-08-14T11:03:48Z</time>
      </trkpt>
      <trkpt lat="43.0399770" lon="-2.3363700">
        <ele>438.4</ele>
        <time>2020-08-14T11:03:57Z</time>
      </trkpt>
      <trkpt lat="43.0398750" lon="-2.3364790">
        <ele>438.4</ele>
        <time>2020-08-14T11:03:59Z</time>
      </trkpt>
      <trkpt lat="43.0395560" lon="-2.3366010">
        <ele>438.8</ele>
        <time>2020-08-14T11:04:04Z</time>
      </trkpt>
      <trkpt lat="43.0392980" lon="-2.3366020">
        <ele>439.8</ele>
        <time>2020-08-14T11:04:08Z</time>
      </trkpt>
      <trkpt lat="43.0391750" lon="-2.3365610">
        <ele>440.2</ele>
        <time>2020-08-14T11:04:10Z</time>
      </trkpt>
      <trkpt lat="43.0390550" lon="-2.3364960">
        <ele>440.2</ele>
        <time>2020-08-14T11:04:12Z</time>
      </trkpt>
      <trkpt lat="43.0387790" lon="-2.3363370">
        <ele>440.8</ele>
        <time>2020-08-14T11:04:17Z</time>
      </trkpt>
      <trkpt lat="43.0387230" lon="-2.3363200">
        <ele>441.2</ele>
        <time>2020-08-14T11:04:18Z</time>
      </trkpt>
      <trkpt lat="43.0384650" lon="-2.3362400">
        <ele>442.2</ele>
        <time>2020-08-14T11:04:23Z</time>
      </trkpt>
      <trkpt lat="43.0382910" lon="-2.3361960">
        <ele>443.0</ele>
        <time>2020-08-14T11:04:27Z</time>
      </trkpt>
      <trkpt lat="43.0381960" lon="-2.3361780">
        <ele>443.2</ele>
        <time>2020-08-14T11:04:29Z</time>
      </trkpt>
      <trkpt lat="43.0376270" lon="-2.3362110">
        <ele>443.8</ele>
        <time>2020-08-14T11:04:39Z</time>
      </trkpt>
      <trkpt lat="43.0373680" lon="-2.3362720">
        <ele>443.8</ele>
        <time>2020-08-14T11:04:44Z</time>
      </trkpt>
      <trkpt lat="43.0370370" lon="-2.3362800">
        <ele>443.8</ele>
        <time>2020-08-14T11:04:50Z</time>
      </trkpt>
      <trkpt lat="43.0369040" lon="-2.3363300">
        <ele>443.8</ele>
        <time>2020-08-14T11:04:52Z</time>
      </trkpt>
      <trkpt lat="43.0364500" lon="-2.3365410">
        <ele>444.2</ele>
        <time>2020-08-14T11:04:59Z</time>
      </trkpt>
      <trkpt lat="43.0362250" lon="-2.3368050">
        <ele>444.6</ele>
        <time>2020-08-14T11:05:03Z</time>
      </trkpt>
      <trkpt lat="43.0361730" lon="-2.3368570">
        <ele>444.6</ele>
        <time>2020-08-14T11:05:04Z</time>
      </trkpt>
      <trkpt lat="43.0359700" lon="-2.3370750">
        <ele>445.2</ele>
        <time>2020-08-14T11:05:08Z</time>
      </trkpt>
      <trkpt lat="43.0358490" lon="-2.3372400">
        <ele>446.0</ele>
        <time>2020-08-14T11:05:11Z</time>
      </trkpt>
      <trkpt lat="43.0356090" lon="-2.3375850">
        <ele>447.2</ele>
        <time>2020-08-14T11:05:16Z</time>
      </trkpt>
      <trkpt lat="43.0354780" lon="-2.3377690">
        <ele>448.0</ele>
        <time>2020-08-14T11:05:19Z</time>
      </trkpt>
      <trkpt lat="43.0354380" lon="-2.3378060">
        <ele>448.4</ele>
        <time>2020-08-14T11:05:20Z</time>
      </trkpt>
      <trkpt lat="43.0352980" lon="-2.3378850">
        <ele>449.6</ele>
        <time>2020-08-14T11:05:24Z</time>
      </trkpt>
      <trkpt lat="43.0351690" lon="-2.3379460">
        <ele>450.8</ele>
        <time>2020-08-14T11:05:28Z</time>
      </trkpt>
      <trkpt lat="43.0351110" lon="-2.3380140">
        <ele>451.8</ele>
        <time>2020-08-14T11:05:30Z</time>
      </trkpt>
      <trkpt lat="43.0350820" lon="-2.3380500">
        <ele>452.2</ele>
        <time>2020-08-14T11:05:31Z</time>
      </trkpt>
      <trkpt lat="43.0350170" lon="-2.3381300">
        <ele>453.2</ele>
        <time>2020-08-14T11:05:33Z</time>
      </trkpt>
      <trkpt lat="43.0349560" lon="-2.3382050">
        <ele>454.6</ele>
        <time>2020-08-14T11:05:35Z</time>
      </trkpt>
      <trkpt lat="43.0348430" lon="-2.3383400">
        <ele>456.0</ele>
        <time>2020-08-14T11:05:38Z</time>
      </trkpt>
      <trkpt lat="43.0347290" lon="-2.3384730">
        <ele>457.6</ele>
        <time>2020-08-14T11:05:41Z</time>
      </trkpt>
      <trkpt lat="43.0346460" lon="-2.3385700">
        <ele>458.8</ele>
        <time>2020-08-14T11:05:43Z</time>
      </trkpt>
      <trkpt lat="43.0343220" lon="-2.3389520">
        <ele>460.0</ele>
        <time>2020-08-14T11:05:50Z</time>
      </trkpt>
      <trkpt lat="43.0338490" lon="-2.3393980">
        <ele>461.2</ele>
        <time>2020-08-14T11:06:00Z</time>
      </trkpt>
      <trkpt lat="43.0335210" lon="-2.3396260">
        <ele>462.4</ele>
        <time>2020-08-14T11:06:07Z</time>
      </trkpt>
      <trkpt lat="43.0333830" lon="-2.3397820">
        <ele>463.4</ele>
        <time>2020-08-14T11:06:11Z</time>
      </trkpt>
      <trkpt lat="43.0332210" lon="-2.3399140">
        <ele>464.8</ele>
        <time>2020-08-14T11:06:15Z</time>
      </trkpt>
      <trkpt lat="43.0331240" lon="-2.3399800">
        <ele>465.8</ele>
        <time>2020-08-14T11:06:17Z</time>
      </trkpt>
      <trkpt lat="43.0329700" lon="-2.3401020">
        <ele>467.0</ele>
        <time>2020-08-14T11:06:20Z</time>
      </trkpt>
      <trkpt lat="43.0327990" lon="-2.3402890">
        <ele>467.0</ele>
        <time>2020-08-14T11:06:24Z</time>
      </trkpt>
      <trkpt lat="43.0325560" lon="-2.3402550">
        <ele>466.0</ele>
        <time>2020-08-14T11:06:28Z</time>
      </trkpt>
      <trkpt lat="43.0324200" lon="-2.3402230">
        <ele>464.6</ele>
        <time>2020-08-14T11:06:30Z</time>
      </trkpt>
      <trkpt lat="43.0323440" lon="-2.3402240">
        <ele>463.6</ele>
        <time>2020-08-14T11:06:31Z</time>
      </trkpt>
      <trkpt lat="43.0322700" lon="-2.3402260">
        <ele>462.4</ele>
        <time>2020-08-14T11:06:32Z</time>
      </trkpt>
      <trkpt lat="43.0321970" lon="-2.3402290">
        <ele>461.2</ele>
        <time>2020-08-14T11:06:33Z</time>
      </trkpt>
      <trkpt lat="43.0321260" lon="-2.3402310">
        <ele>460.0</ele>
        <time>2020-08-14T11:06:34Z</time>
      </trkpt>
      <trkpt lat="43.0320520" lon="-2.3402230">
        <ele>458.6</ele>
        <time>2020-08-14T11:06:35Z</time>
      </trkpt>
      <trkpt lat="43.0319730" lon="-2.3402070">
        <ele>457.6</ele>
        <time>2020-08-14T11:06:36Z</time>
      </trkpt>
      <trkpt lat="43.0318080" lon="-2.3401490">
        <ele>456.0</ele>
        <time>2020-08-14T11:06:38Z</time>
      </trkpt>
      <trkpt lat="43.0317360" lon="-2.3401170">
        <ele>454.8</ele>
        <time>2020-08-14T11:06:39Z</time>
      </trkpt>
      <trkpt lat="43.0315180" lon="-2.3400150">
        <ele>453.8</ele>
        <time>2020-08-14T11:06:42Z</time>
      </trkpt>
      <trkpt lat="43.0312310" lon="-2.3399330">
        <ele>453.6</ele>
        <time>2020-08-14T11:06:46Z</time>
      </trkpt>
      <trkpt lat="43.0309480" lon="-2.3401040">
        <ele>453.8</ele>
        <time>2020-08-14T11:06:50Z</time>
      </trkpt>
      <trkpt lat="43.0307620" lon="-2.3402300">
        <ele>454.6</ele>
        <time>2020-08-14T11:06:53Z</time>
      </trkpt>
      <trkpt lat="43.0307060" lon="-2.3403270">
        <ele>455.0</ele>
        <time>2020-08-14T11:06:55Z</time>
      </trkpt>
      <trkpt lat="43.0304280" lon="-2.3403860">
        <ele>456.0</ele>
        <time>2020-08-14T11:07:02Z</time>
      </trkpt>
      <trkpt lat="43.0299260" lon="-2.3400970">
        <ele>455.4</ele>
        <time>2020-08-14T11:07:10Z</time>
      </trkpt>
      <trkpt lat="43.0294770" lon="-2.3398040">
        <ele>455.4</ele>
        <time>2020-08-14T11:07:17Z</time>
      </trkpt>
      <trkpt lat="43.0293540" lon="-2.3397310">
        <ele>455.4</ele>
        <time>2020-08-14T11:07:19Z</time>
      </trkpt>
      <trkpt lat="43.0291990" lon="-2.3394280">
        <ele>455.8</ele>
        <time>2020-08-14T11:07:23Z</time>
      </trkpt>
      <trkpt lat="43.0291910" lon="-2.3392310">
        <ele>456.2</ele>
        <time>2020-08-14T11:07:25Z</time>
      </trkpt>
      <trkpt lat="43.0291690" lon="-2.3391500">
        <ele>456.4</ele>
        <time>2020-08-14T11:07:26Z</time>
      </trkpt>
      <trkpt lat="43.0289330" lon="-2.3388180">
        <ele>457.0</ele>
        <time>2020-08-14T11:07:31Z</time>
      </trkpt>
      <trkpt lat="43.0285580" lon="-2.3382840">
        <ele>458.2</ele>
        <time>2020-08-14T11:07:38Z</time>
      </trkpt>
      <trkpt lat="43.0281460" lon="-2.3377770">
        <ele>458.6</ele>
        <time>2020-08-14T11:07:45Z</time>
      </trkpt>
      <trkpt lat="43.0278710" lon="-2.3372440">
        <ele>458.8</ele>
        <time>2020-08-14T11:07:51Z</time>
      </trkpt>
      <trkpt lat="43.0277030" lon="-2.3369970">
        <ele>459.2</ele>
        <time>2020-08-14T11:07:54Z</time>
      </trkpt>
      <trkpt lat="43.0274930" lon="-2.3363820">
        <ele>460.4</ele>
        <time>2020-08-14T11:08:00Z</time>
      </trkpt>
      <trkpt lat="43.0272370" lon="-2.3356930">
        <ele>461.0</ele>
        <time>2020-08-14T11:08:07Z</time>
      </trkpt>
      <trkpt lat="43.0270860" lon="-2.3354290">
        <ele>461.0</ele>
        <time>2020-08-14T11:08:10Z</time>
      </trkpt>
      <trkpt lat="43.0265580" lon="-2.3351530">
        <ele>461.4</ele>
        <time>2020-08-14T11:08:17Z</time>
      </trkpt>
      <trkpt lat="43.0262360" lon="-2.3351850">
        <ele>462.2</ele>
        <time>2020-08-14T11:08:21Z</time>
      </trkpt>
      <trkpt lat="43.0260800" lon="-2.3352270">
        <ele>462.6</ele>
        <time>2020-08-14T11:08:23Z</time>
      </trkpt>
      <trkpt lat="43.0255170" lon="-2.3353670">
        <ele>463.8</ele>
        <time>2020-08-14T11:08:30Z</time>
      </trkpt>
      <trkpt lat="43.0252810" lon="-2.3354200">
        <ele>465.0</ele>
        <time>2020-08-14T11:08:33Z</time>
      </trkpt>
      <trkpt lat="43.0249710" lon="-2.3354800">
        <ele>466.0</ele>
        <time>2020-08-14T11:08:37Z</time>
      </trkpt>
      <trkpt lat="43.0243740" lon="-2.3353960">
        <ele>466.6</ele>
        <time>2020-08-14T11:08:45Z</time>
      </trkpt>
      <trkpt lat="43.0240900" lon="-2.3353160">
        <ele>467.0</ele>
        <time>2020-08-14T11:08:49Z</time>
      </trkpt>
      <trkpt lat="43.0236330" lon="-2.3351210">
        <ele>468.0</ele>
        <time>2020-08-14T11:08:56Z</time>
      </trkpt>
      <trkpt lat="43.0230890" lon="-2.3348840">
        <ele>469.0</ele>
        <time>2020-08-14T11:09:04Z</time>
      </trkpt>
      <trkpt lat="43.0230220" lon="-2.3348840">
        <ele>469.2</ele>
        <time>2020-08-14T11:09:05Z</time>
      </trkpt>
      <trkpt lat="43.0229540" lon="-2.3348960">
        <ele>469.4</ele>
        <time>2020-08-14T11:09:06Z</time>
      </trkpt>
      <trkpt lat="43.0223830" lon="-2.3350540">
        <ele>470.4</ele>
        <time>2020-08-14T11:09:14Z</time>
      </trkpt>
      <trkpt lat="43.0218620" lon="-2.3353610">
        <ele>471.2</ele>
        <time>2020-08-14T11:09:22Z</time>
      </trkpt>
      <trkpt lat="43.0216610" lon="-2.3354420">
        <ele>471.4</ele>
        <time>2020-08-14T11:09:25Z</time>
      </trkpt>
      <trkpt lat="43.0215180" lon="-2.3354570">
        <ele>471.6</ele>
        <time>2020-08-14T11:09:27Z</time>
      </trkpt>
      <trkpt lat="43.0213760" lon="-2.3354340">
        <ele>472.0</ele>
        <time>2020-08-14T11:09:29Z</time>
      </trkpt>
      <trkpt lat="43.0208000" lon="-2.3352670">
        <ele>472.8</ele>
        <time>2020-08-14T11:09:37Z</time>
      </trkpt>
      <trkpt lat="43.0204410" lon="-2.3352460">
        <ele>473.0</ele>
        <time>2020-08-14T11:09:42Z</time>
      </trkpt>
      <trkpt lat="43.0203750" lon="-2.3352650">
        <ele>473.0</ele>
        <time>2020-08-14T11:09:43Z</time>
      </trkpt>
      <trkpt lat="43.0200340" lon="-2.3354110">
        <ele>474.4</ele>
        <time>2020-08-14T11:09:48Z</time>
      </trkpt>
      <trkpt lat="43.0197640" lon="-2.3355160">
        <ele>475.4</ele>
        <time>2020-08-14T11:09:52Z</time>
      </trkpt>
      <trkpt lat="43.0195610" lon="-2.3355580">
        <ele>475.8</ele>
        <time>2020-08-14T11:09:55Z</time>
      </trkpt>
      <trkpt lat="43.0194110" lon="-2.3355440">
        <ele>476.6</ele>
        <time>2020-08-14T11:09:57Z</time>
      </trkpt>
      <trkpt lat="43.0192710" lon="-2.3355190">
        <ele>477.8</ele>
        <time>2020-08-14T11:09:59Z</time>
      </trkpt>
      <trkpt lat="43.0189980" lon="-2.3354860">
        <ele>478.8</ele>
        <time>2020-08-14T11:10:03Z</time>
      </trkpt>
      <trkpt lat="43.0187970" lon="-2.3354620">
        <ele>479.2</ele>
        <time>2020-08-14T11:10:06Z</time>
      </trkpt>
      <trkpt lat="43.0186070" lon="-2.3353670">
        <ele>479.4</ele>
        <time>2020-08-14T11:10:09Z</time>
      </trkpt>
      <trkpt lat="43.0184740" lon="-2.3353420">
        <ele>479.8</ele>
        <time>2020-08-14T11:10:11Z</time>
      </trkpt>
      <trkpt lat="43.0183350" lon="-2.3353370">
        <ele>481.4</ele>
        <time>2020-08-14T11:10:13Z</time>
      </trkpt>
      <trkpt lat="43.0181150" lon="-2.3352890">
        <ele>482.6</ele>
        <time>2020-08-14T11:10:16Z</time>
      </trkpt>
      <trkpt lat="43.0176580" lon="-2.3349910">
        <ele>483.6</ele>
        <time>2020-08-14T11:10:23Z</time>
      </trkpt>
      <trkpt lat="43.0175140" lon="-2.3349470">
        <ele>483.6</ele>
        <time>2020-08-14T11:10:25Z</time>
      </trkpt>
      <trkpt lat="43.0169330" lon="-2.3348090">
        <ele>484.0</ele>
        <time>2020-08-14T11:10:33Z</time>
      </trkpt>
      <trkpt lat="43.0166710" lon="-2.3348030">
        <ele>484.0</ele>
        <time>2020-08-14T11:10:37Z</time>
      </trkpt>
      <trkpt lat="43.0163900" lon="-2.3348340">
        <ele>484.6</ele>
        <time>2020-08-14T11:10:41Z</time>
      </trkpt>
      <trkpt lat="43.0162560" lon="-2.3347940">
        <ele>484.8</ele>
        <time>2020-08-14T11:10:43Z</time>
      </trkpt>
      <trkpt lat="43.0160770" lon="-2.3346450">
        <ele>486.2</ele>
        <time>2020-08-14T11:10:46Z</time>
      </trkpt>
      <trkpt lat="43.0159530" lon="-2.3345510">
        <ele>487.2</ele>
        <time>2020-08-14T11:10:48Z</time>
      </trkpt>
      <trkpt lat="43.0158220" lon="-2.3344730">
        <ele>489.0</ele>
        <time>2020-08-14T11:10:50Z</time>
      </trkpt>
      <trkpt lat="43.0156900" lon="-2.3344150">
        <ele>490.0</ele>
        <time>2020-08-14T11:10:52Z</time>
      </trkpt>
      <trkpt lat="43.0154810" lon="-2.3343730">
        <ele>490.6</ele>
        <time>2020-08-14T11:10:55Z</time>
      </trkpt>
      <trkpt lat="43.0152670" lon="-2.3344070">
        <ele>491.0</ele>
        <time>2020-08-14T11:10:58Z</time>
      </trkpt>
      <trkpt lat="43.0147670" lon="-2.3345740">
        <ele>491.2</ele>
        <time>2020-08-14T11:11:05Z</time>
      </trkpt>
      <trkpt lat="43.0143970" lon="-2.3346140">
        <ele>491.2</ele>
        <time>2020-08-14T11:11:10Z</time>
      </trkpt>
      <trkpt lat="43.0141730" lon="-2.3345600">
        <ele>491.2</ele>
        <time>2020-08-14T11:11:13Z</time>
      </trkpt>
      <trkpt lat="43.0138920" lon="-2.3344230">
        <ele>491.0</ele>
        <time>2020-08-14T11:11:17Z</time>
      </trkpt>
      <trkpt lat="43.0136800" lon="-2.3341220">
        <ele>491.0</ele>
        <time>2020-08-14T11:11:21Z</time>
      </trkpt>
      <trkpt lat="43.0134280" lon="-2.3336520">
        <ele>491.0</ele>
        <time>2020-08-14T11:11:27Z</time>
      </trkpt>
      <trkpt lat="43.0129140" lon="-2.3337780">
        <ele>492.2</ele>
        <time>2020-08-14T11:11:35Z</time>
      </trkpt>
      <trkpt lat="43.0125850" lon="-2.3335100">
        <ele>492.4</ele>
        <time>2020-08-14T11:11:40Z</time>
      </trkpt>
      <trkpt lat="43.0124040" lon="-2.3332950">
        <ele>492.6</ele>
        <time>2020-08-14T11:11:43Z</time>
      </trkpt>
      <trkpt lat="43.0119400" lon="-2.3327920">
        <ele>493.6</ele>
        <time>2020-08-14T11:11:51Z</time>
      </trkpt>
      <trkpt lat="43.0118390" lon="-2.3326410">
        <ele>495.2</ele>
        <time>2020-08-14T11:11:53Z</time>
      </trkpt>
      <trkpt lat="43.0117000" lon="-2.3324310">
        <ele>496.2</ele>
        <time>2020-08-14T11:11:56Z</time>
      </trkpt>
      <trkpt lat="43.0112840" lon="-2.3319740">
        <ele>497.4</ele>
        <time>2020-08-14T11:12:05Z</time>
      </trkpt>
      <trkpt lat="43.0111050" lon="-2.3317980">
        <ele>498.8</ele>
        <time>2020-08-14T11:12:09Z</time>
      </trkpt>
      <trkpt lat="43.0110050" lon="-2.3317180">
        <ele>500.2</ele>
        <time>2020-08-14T11:12:11Z</time>
      </trkpt>
      <trkpt lat="43.0108900" lon="-2.3316430">
        <ele>501.8</ele>
        <time>2020-08-14T11:12:13Z</time>
      </trkpt>
      <trkpt lat="43.0107760" lon="-2.3315630">
        <ele>503.4</ele>
        <time>2020-08-14T11:12:15Z</time>
      </trkpt>
      <trkpt lat="43.0106600" lon="-2.3314830">
        <ele>504.4</ele>
        <time>2020-08-14T11:12:17Z</time>
      </trkpt>
      <trkpt lat="43.0104230" lon="-2.3313100">
        <ele>505.4</ele>
        <time>2020-08-14T11:12:21Z</time>
      </trkpt>
      <trkpt lat="43.0098980" lon="-2.3309420">
        <ele>506.4</ele>
        <time>2020-08-14T11:12:30Z</time>
      </trkpt>
      <trkpt lat="43.0096150" lon="-2.3307660">
        <ele>507.0</ele>
        <time>2020-08-14T11:12:35Z</time>
      </trkpt>
      <trkpt lat="43.0091580" lon="-2.3304590">
        <ele>508.2</ele>
        <time>2020-08-14T11:12:43Z</time>
      </trkpt>
      <trkpt lat="43.0086350" lon="-2.3300860">
        <ele>509.4</ele>
        <time>2020-08-14T11:12:52Z</time>
      </trkpt>
      <trkpt lat="43.0085740" lon="-2.3300410">
        <ele>509.4</ele>
        <time>2020-08-14T11:12:53Z</time>
      </trkpt>
      <trkpt lat="43.0080670" lon="-2.3296950">
        <ele>510.0</ele>
        <time>2020-08-14T11:13:01Z</time>
      </trkpt>
      <trkpt lat="43.0078140" lon="-2.3295490">
        <ele>510.6</ele>
        <time>2020-08-14T11:13:05Z</time>
      </trkpt>
      <trkpt lat="43.0072970" lon="-2.3292640">
        <ele>511.6</ele>
        <time>2020-08-14T11:13:14Z</time>
      </trkpt>
      <trkpt lat="43.0072410" lon="-2.3292300">
        <ele>512.0</ele>
        <time>2020-08-14T11:13:15Z</time>
      </trkpt>
      <trkpt lat="43.0071240" lon="-2.3291780">
        <ele>513.0</ele>
        <time>2020-08-14T11:13:17Z</time>
      </trkpt>
      <trkpt lat="43.0068790" lon="-2.3291730">
        <ele>514.2</ele>
        <time>2020-08-14T11:13:21Z</time>
      </trkpt>
      <trkpt lat="43.0065850" lon="-2.3291540">
        <ele>515.0</ele>
        <time>2020-08-14T11:13:27Z</time>
      </trkpt>
      <trkpt lat="43.0065400" lon="-2.3291460">
        <ele>515.4</ele>
        <time>2020-08-14T11:13:28Z</time>
      </trkpt>
      <trkpt lat="43.0064530" lon="-2.3291370">
        <ele>516.4</ele>
        <time>2020-08-14T11:13:30Z</time>
      </trkpt>
      <trkpt lat="43.0063770" lon="-2.3291180">
        <ele>517.8</ele>
        <time>2020-08-14T11:13:32Z</time>
      </trkpt>
      <trkpt lat="43.0062880" lon="-2.3290870">
        <ele>520.0</ele>
        <time>2020-08-14T11:13:34Z</time>
      </trkpt>
      <trkpt lat="43.0062140" lon="-2.3290410">
        <ele>521.4</ele>
        <time>2020-08-14T11:13:36Z</time>
      </trkpt>
      <trkpt lat="43.0061450" lon="-2.3289850">
        <ele>522.8</ele>
        <time>2020-08-14T11:13:38Z</time>
      </trkpt>
      <trkpt lat="43.0060760" lon="-2.3289240">
        <ele>523.8</ele>
        <time>2020-08-14T11:13:40Z</time>
      </trkpt>
      <trkpt lat="43.0056020" lon="-2.3285410">
        <ele>524.8</ele>
        <time>2020-08-14T11:13:48Z</time>
      </trkpt>
      <trkpt lat="43.0055210" lon="-2.3285080">
        <ele>524.8</ele>
        <time>2020-08-14T11:13:49Z</time>
      </trkpt>
      <trkpt lat="43.0051880" lon="-2.3283940">
        <ele>524.2</ele>
        <time>2020-08-14T11:13:53Z</time>
      </trkpt>
      <trkpt lat="43.0049760" lon="-2.3282210">
        <ele>522.6</ele>
        <time>2020-08-14T11:13:56Z</time>
      </trkpt>
      <trkpt lat="43.0046250" lon="-2.3278360">
        <ele>521.8</ele>
        <time>2020-08-14T11:14:02Z</time>
      </trkpt>
      <trkpt lat="43.0045320" lon="-2.3277450">
        <ele>521.8</ele>
        <time>2020-08-14T11:14:04Z</time>
      </trkpt>
      <trkpt lat="43.0041260" lon="-2.3276870">
        <ele>523.6</ele>
        <time>2020-08-14T11:14:11Z</time>
      </trkpt>
      <trkpt lat="43.0040670" lon="-2.3276970">
        <ele>524.0</ele>
        <time>2020-08-14T11:14:12Z</time>
      </trkpt>
      <trkpt lat="43.0039500" lon="-2.3277110">
        <ele>525.0</ele>
        <time>2020-08-14T11:14:14Z</time>
      </trkpt>
      <trkpt lat="43.0037850" lon="-2.3277670">
        <ele>526.2</ele>
        <time>2020-08-14T11:14:17Z</time>
      </trkpt>
      <trkpt lat="43.0035280" lon="-2.3278850">
        <ele>527.4</ele>
        <time>2020-08-14T11:14:22Z</time>
      </trkpt>
      <trkpt lat="43.0032400" lon="-2.3279210">
        <ele>529.2</ele>
        <time>2020-08-14T11:14:31Z</time>
      </trkpt>
      <trkpt lat="43.0031950" lon="-2.3278970">
        <ele>530.2</ele>
        <time>2020-08-14T11:14:33Z</time>
      </trkpt>
      <trkpt lat="43.0031240" lon="-2.3278470">
        <ele>531.6</ele>
        <time>2020-08-14T11:14:36Z</time>
      </trkpt>
      <trkpt lat="43.0030750" lon="-2.3278030">
        <ele>533.0</ele>
        <time>2020-08-14T11:14:38Z</time>
      </trkpt>
      <trkpt lat="43.0030260" lon="-2.3277600">
        <ele>535.2</ele>
        <time>2020-08-14T11:14:40Z</time>
      </trkpt>
      <trkpt lat="43.0029650" lon="-2.3277220">
        <ele>536.4</ele>
        <time>2020-08-14T11:14:42Z</time>
      </trkpt>
      <trkpt lat="43.0029060" lon="-2.3276730">
        <ele>537.8</ele>
        <time>2020-08-14T11:14:44Z</time>
      </trkpt>
      <trkpt lat="43.0028060" lon="-2.3276000">
        <ele>539.0</ele>
        <time>2020-08-14T11:14:47Z</time>
      </trkpt>
      <trkpt lat="43.0026960" lon="-2.3275320">
        <ele>540.2</ele>
        <time>2020-08-14T11:14:50Z</time>
      </trkpt>
      <trkpt lat="43.0025760" lon="-2.3274780">
        <ele>541.4</ele>
        <time>2020-08-14T11:14:53Z</time>
      </trkpt>
      <trkpt lat="43.0024090" lon="-2.3274010">
        <ele>542.6</ele>
        <time>2020-08-14T11:14:57Z</time>
      </trkpt>
      <trkpt lat="43.0022200" lon="-2.3272760">
        <ele>543.8</ele>
        <time>2020-08-14T11:15:02Z</time>
      </trkpt>
      <trkpt lat="43.0019520" lon="-2.3270420">
        <ele>545.0</ele>
        <time>2020-08-14T11:15:09Z</time>
      </trkpt>
      <trkpt lat="43.0018410" lon="-2.3269740">
        <ele>545.2</ele>
        <time>2020-08-14T11:15:11Z</time>
      </trkpt>
      <trkpt lat="43.0013000" lon="-2.3271440">
        <ele>544.8</ele>
        <time>2020-08-14T11:15:19Z</time>
      </trkpt>
      <trkpt lat="43.0011090" lon="-2.3271910">
        <ele>543.8</ele>
        <time>2020-08-14T11:15:22Z</time>
      </trkpt>
      <trkpt lat="43.0009790" lon="-2.3272080">
        <ele>542.6</ele>
        <time>2020-08-14T11:15:24Z</time>
      </trkpt>
      <trkpt lat="43.0008000" lon="-2.3273510">
        <ele>541.8</ele>
        <time>2020-08-14T11:15:27Z</time>
      </trkpt>
      <trkpt lat="43.0007440" lon="-2.3273890">
        <ele>541.8</ele>
        <time>2020-08-14T11:15:28Z</time>
      </trkpt>
      <trkpt lat="43.0005850" lon="-2.3274510">
        <ele>541.8</ele>
        <time>2020-08-14T11:15:31Z</time>
      </trkpt>
      <trkpt lat="43.0004430" lon="-2.3270770">
        <ele>542.4</ele>
        <time>2020-08-14T11:15:38Z</time>
      </trkpt>
      <trkpt lat="43.0004020" lon="-2.3268800">
        <ele>543.8</ele>
        <time>2020-08-14T11:15:41Z</time>
      </trkpt>
      <trkpt lat="43.0003170" lon="-2.3267090">
        <ele>545.4</ele>
        <time>2020-08-14T11:15:44Z</time>
      </trkpt>
      <trkpt lat="43.0002380" lon="-2.3266150">
        <ele>546.6</ele>
        <time>2020-08-14T11:15:46Z</time>
      </trkpt>
      <trkpt lat="43.0001910" lon="-2.3265940">
        <ele>546.8</ele>
        <time>2020-08-14T11:15:47Z</time>
      </trkpt>
      <trkpt lat="42.9998860" lon="-2.3267790">
        <ele>547.2</ele>
        <time>2020-08-14T11:15:54Z</time>
      </trkpt>
      <trkpt lat="42.9994320" lon="-2.3271760">
        <ele>548.0</ele>
        <time>2020-08-14T11:16:03Z</time>
      </trkpt>
      <trkpt lat="42.9991930" lon="-2.3273180">
        <ele>549.0</ele>
        <time>2020-08-14T11:16:08Z</time>
      </trkpt>
      <trkpt lat="42.9990550" lon="-2.3273960">
        <ele>550.4</ele>
        <time>2020-08-14T11:16:14Z</time>
      </trkpt>
      <trkpt lat="42.9990480" lon="-2.3274070">
        <ele>551.4</ele>
        <time>2020-08-14T11:16:16Z</time>
      </trkpt>
      <trkpt lat="42.9990990" lon="-2.3273920">
        <ele>553.2</ele>
        <time>2020-08-14T11:16:23Z</time>
      </trkpt>
      <trkpt lat="42.9996120" lon="-2.3270640">
        <ele>552.2</ele>
        <time>2020-08-14T11:16:34Z</time>
      </trkpt>
      <trkpt lat="42.9997130" lon="-2.3269790">
        <ele>551.0</ele>
        <time>2020-08-14T11:16:36Z</time>
      </trkpt>
      <trkpt lat="42.9998560" lon="-2.3268340">
        <ele>550.0</ele>
        <time>2020-08-14T11:16:39Z</time>
      </trkpt>
      <trkpt lat="43.0000310" lon="-2.3266650">
        <ele>549.2</ele>
        <time>2020-08-14T11:16:43Z</time>
      </trkpt>
      <trkpt lat="43.0000690" lon="-2.3266550">
        <ele>549.0</ele>
        <time>2020-08-14T11:16:44Z</time>
      </trkpt>
      <trkpt lat="43.0002680" lon="-2.3267710">
        <ele>547.8</ele>
        <time>2020-08-14T11:16:49Z</time>
      </trkpt>
      <trkpt lat="43.0003060" lon="-2.3268160">
        <ele>547.6</ele>
        <time>2020-08-14T11:16:50Z</time>
      </trkpt>
      <trkpt lat="43.0003720" lon="-2.3269060">
        <ele>547.6</ele>
        <time>2020-08-14T11:16:52Z</time>
      </trkpt>
      <trkpt lat="43.0004330" lon="-2.3271140">
        <ele>547.4</ele>
        <time>2020-08-14T11:16:56Z</time>
      </trkpt>
      <trkpt lat="43.0004830" lon="-2.3273700">
        <ele>547.2</ele>
        <time>2020-08-14T11:17:00Z</time>
      </trkpt>
      <trkpt lat="43.0008590" lon="-2.3273370">
        <ele>546.4</ele>
        <time>2020-08-14T11:17:07Z</time>
      </trkpt>
      <trkpt lat="43.0010300" lon="-2.3271980">
        <ele>544.8</ele>
        <time>2020-08-14T11:17:10Z</time>
      </trkpt>
      <trkpt lat="43.0011460" lon="-2.3272000">
        <ele>544.0</ele>
        <time>2020-08-14T11:17:12Z</time>
      </trkpt>
      <trkpt lat="43.0012030" lon="-2.3271890">
        <ele>543.2</ele>
        <time>2020-08-14T11:17:13Z</time>
      </trkpt>
      <trkpt lat="43.0013010" lon="-2.3271250">
        <ele>542.2</ele>
        <time>2020-08-14T11:17:15Z</time>
      </trkpt>
      <trkpt lat="43.0017920" lon="-2.3269700">
        <ele>543.6</ele>
        <time>2020-08-14T11:17:29Z</time>
      </trkpt>
      <trkpt lat="43.0019160" lon="-2.3270720">
        <ele>544.6</ele>
        <time>2020-08-14T11:17:33Z</time>
      </trkpt>
      <trkpt lat="43.0020950" lon="-2.3272460">
        <ele>545.8</ele>
        <time>2020-08-14T11:17:40Z</time>
      </trkpt>
      <trkpt lat="43.0021340" lon="-2.3272720">
        <ele>545.8</ele>
        <time>2020-08-14T11:17:41Z</time>
      </trkpt>
      <trkpt lat="43.0022150" lon="-2.3273140">
        <ele>545.8</ele>
        <time>2020-08-14T11:17:43Z</time>
      </trkpt>
      <trkpt lat="43.0027410" lon="-2.3276780">
        <ele>532.4</ele>
        <time>2020-08-14T11:17:53Z</time>
      </trkpt>
      <trkpt lat="43.0028090" lon="-2.3277330">
        <ele>544.6</ele>
        <time>2020-08-14T11:17:54Z</time>
      </trkpt>
      <trkpt lat="43.0031140" lon="-2.3279290">
        <ele>543.4</ele>
        <time>2020-08-14T11:17:58Z</time>
      </trkpt>
      <trkpt lat="43.0031980" lon="-2.3279540">
        <ele>543.0</ele>
        <time>2020-08-14T11:17:59Z</time>
      </trkpt>
      <trkpt lat="43.0034030" lon="-2.3279090">
        <ele>542.2</ele>
        <time>2020-08-14T11:18:01Z</time>
      </trkpt>
      <trkpt lat="43.0036190" lon="-2.3278060">
        <ele>541.0</ele>
        <time>2020-08-14T11:18:03Z</time>
      </trkpt>
      <trkpt lat="43.0037270" lon="-2.3277490">
        <ele>539.0</ele>
        <time>2020-08-14T11:18:04Z</time>
      </trkpt>
      <trkpt lat="43.0038330" lon="-2.3276970">
        <ele>537.6</ele>
        <time>2020-08-14T11:18:05Z</time>
      </trkpt>
      <trkpt lat="43.0039350" lon="-2.3276550">
        <ele>536.0</ele>
        <time>2020-08-14T11:18:06Z</time>
      </trkpt>
      <trkpt lat="43.0040400" lon="-2.3276200">
        <ele>534.2</ele>
        <time>2020-08-14T11:18:07Z</time>
      </trkpt>
      <trkpt lat="43.0041430" lon="-2.3276020">
        <ele>532.8</ele>
        <time>2020-08-14T11:18:08Z</time>
      </trkpt>
      <trkpt lat="43.0042410" lon="-2.3275970">
        <ele>531.0</ele>
        <time>2020-08-14T11:18:09Z</time>
      </trkpt>
      <trkpt lat="43.0043350" lon="-2.3276270">
        <ele>529.6</ele>
        <time>2020-08-14T11:18:10Z</time>
      </trkpt>
      <trkpt lat="43.0045160" lon="-2.3277150">
        <ele>528.0</ele>
        <time>2020-08-14T11:18:12Z</time>
      </trkpt>
      <trkpt lat="43.0046090" lon="-2.3277730">
        <ele>527.4</ele>
        <time>2020-08-14T11:18:13Z</time>
      </trkpt>
      <trkpt lat="43.0047740" lon="-2.3279420">
        <ele>526.8</ele>
        <time>2020-08-14T11:18:15Z</time>
      </trkpt>
      <trkpt lat="43.0049340" lon="-2.3281150">
        <ele>526.6</ele>
        <time>2020-08-14T11:18:17Z</time>
      </trkpt>
      <trkpt lat="43.0051510" lon="-2.3283400">
        <ele>525.2</ele>
        <time>2020-08-14T11:18:20Z</time>
      </trkpt>
      <trkpt lat="43.0052210" lon="-2.3284030">
        <ele>524.4</ele>
        <time>2020-08-14T11:18:21Z</time>
      </trkpt>
      <trkpt lat="43.0052920" lon="-2.3284460">
        <ele>523.4</ele>
        <time>2020-08-14T11:18:22Z</time>
      </trkpt>
      <trkpt lat="43.0057010" lon="-2.3286460">
        <ele>522.6</ele>
        <time>2020-08-14T11:18:28Z</time>
      </trkpt>
      <trkpt lat="43.0061860" lon="-2.3291050">
        <ele>524.2</ele>
        <time>2020-08-14T11:18:38Z</time>
      </trkpt>
      <trkpt lat="43.0062470" lon="-2.3291460">
        <ele>525.0</ele>
        <time>2020-08-14T11:18:39Z</time>
      </trkpt>
      <trkpt lat="43.0064680" lon="-2.3292150">
        <ele>525.2</ele>
        <time>2020-08-14T11:18:42Z</time>
      </trkpt>
      <trkpt lat="43.0067450" lon="-2.3292650">
        <ele>525.2</ele>
        <time>2020-08-14T11:18:45Z</time>
      </trkpt>
      <trkpt lat="43.0071750" lon="-2.3293110">
        <ele>524.2</ele>
        <time>2020-08-14T11:18:49Z</time>
      </trkpt>
      <trkpt lat="43.0072770" lon="-2.3293800">
        <ele>523.0</ele>
        <time>2020-08-14T11:18:50Z</time>
      </trkpt>
      <trkpt lat="43.0073790" lon="-2.3294510">
        <ele>522.0</ele>
        <time>2020-08-14T11:18:51Z</time>
      </trkpt>
      <trkpt lat="43.0074720" lon="-2.3295130">
        <ele>520.8</ele>
        <time>2020-08-14T11:18:52Z</time>
      </trkpt>
      <trkpt lat="43.0075700" lon="-2.3295630">
        <ele>519.2</ele>
        <time>2020-08-14T11:18:53Z</time>
      </trkpt>
      <trkpt lat="43.0076670" lon="-2.3296020">
        <ele>517.2</ele>
        <time>2020-08-14T11:18:54Z</time>
      </trkpt>
      <trkpt lat="43.0077660" lon="-2.3296390">
        <ele>515.8</ele>
        <time>2020-08-14T11:18:55Z</time>
      </trkpt>
      <trkpt lat="43.0079620" lon="-2.3297150">
        <ele>514.4</ele>
        <time>2020-08-14T11:18:57Z</time>
      </trkpt>
      <trkpt lat="43.0083210" lon="-2.3299040">
        <ele>513.4</ele>
        <time>2020-08-14T11:19:01Z</time>
      </trkpt>
      <trkpt lat="43.0084940" lon="-2.3300090">
        <ele>512.2</ele>
        <time>2020-08-14T11:19:03Z</time>
      </trkpt>
      <trkpt lat="43.0086530" lon="-2.3301120">
        <ele>511.2</ele>
        <time>2020-08-14T11:19:05Z</time>
      </trkpt>
      <trkpt lat="43.0091590" lon="-2.3304780">
        <ele>510.2</ele>
        <time>2020-08-14T11:19:12Z</time>
      </trkpt>
      <trkpt lat="43.0092290" lon="-2.3305250">
        <ele>510.2</ele>
        <time>2020-08-14T11:19:13Z</time>
      </trkpt>
      <trkpt lat="43.0097780" lon="-2.3309100">
        <ele>509.6</ele>
        <time>2020-08-14T11:19:21Z</time>
      </trkpt>
      <trkpt lat="43.0102700" lon="-2.3312600">
        <ele>509.0</ele>
        <time>2020-08-14T11:19:28Z</time>
      </trkpt>
      <trkpt lat="43.0103390" lon="-2.3313100">
        <ele>508.6</ele>
        <time>2020-08-14T11:19:29Z</time>
      </trkpt>
      <trkpt lat="43.0106690" lon="-2.3315640">
        <ele>507.6</ele>
        <time>2020-08-14T11:19:34Z</time>
      </trkpt>
      <trkpt lat="43.0112030" lon="-2.3319550">
        <ele>506.8</ele>
        <time>2020-08-14T11:19:42Z</time>
      </trkpt>
      <trkpt lat="43.0116920" lon="-2.3324200">
        <ele>506.4</ele>
        <time>2020-08-14T11:19:48Z</time>
      </trkpt>
      <trkpt lat="43.0117680" lon="-2.3325190">
        <ele>506.0</ele>
        <time>2020-08-14T11:19:49Z</time>
      </trkpt>
      <trkpt lat="43.0118390" lon="-2.3326220">
        <ele>505.2</ele>
        <time>2020-08-14T11:19:50Z</time>
      </trkpt>
      <trkpt lat="43.0119060" lon="-2.3327270">
        <ele>504.2</ele>
        <time>2020-08-14T11:19:51Z</time>
      </trkpt>
      <trkpt lat="43.0119730" lon="-2.3328230">
        <ele>503.0</ele>
        <time>2020-08-14T11:19:52Z</time>
      </trkpt>
      <trkpt lat="43.0120410" lon="-2.3329060">
        <ele>501.6</ele>
        <time>2020-08-14T11:19:53Z</time>
      </trkpt>
      <trkpt lat="43.0121100" lon="-2.3329810">
        <ele>500.0</ele>
        <time>2020-08-14T11:19:54Z</time>
      </trkpt>
      <trkpt lat="43.0121800" lon="-2.3330480">
        <ele>498.8</ele>
        <time>2020-08-14T11:19:55Z</time>
      </trkpt>
      <trkpt lat="43.0123230" lon="-2.3331830">
        <ele>497.4</ele>
        <time>2020-08-14T11:19:57Z</time>
      </trkpt>
      <trkpt lat="43.0125430" lon="-2.3333800">
        <ele>496.8</ele>
        <time>2020-08-14T11:20:00Z</time>
      </trkpt>
      <trkpt lat="43.0127370" lon="-2.3336320">
        <ele>496.4</ele>
        <time>2020-08-14T11:20:03Z</time>
      </trkpt>
      <trkpt lat="43.0129080" lon="-2.3337880">
        <ele>496.2</ele>
        <time>2020-08-14T11:20:09Z</time>
      </trkpt>
      <trkpt lat="43.0130610" lon="-2.3337690">
        <ele>495.8</ele>
        <time>2020-08-14T11:20:15Z</time>
      </trkpt>
      <trkpt lat="43.0132750" lon="-2.3335710">
        <ele>495.6</ele>
        <time>2020-08-14T11:20:19Z</time>
      </trkpt>
      <trkpt lat="43.0136090" lon="-2.3337750">
        <ele>494.6</ele>
        <time>2020-08-14T11:20:25Z</time>
      </trkpt>
      <trkpt lat="43.0136540" lon="-2.3338570">
        <ele>494.4</ele>
        <time>2020-08-14T11:20:26Z</time>
      </trkpt>
      <trkpt lat="43.0139170" lon="-2.3343840">
        <ele>493.8</ele>
        <time>2020-08-14T11:20:32Z</time>
      </trkpt>
      <trkpt lat="43.0140460" lon="-2.3344920">
        <ele>493.6</ele>
        <time>2020-08-14T11:20:34Z</time>
      </trkpt>
      <trkpt lat="43.0141900" lon="-2.3345680">
        <ele>493.2</ele>
        <time>2020-08-14T11:20:36Z</time>
      </trkpt>
      <trkpt lat="43.0143340" lon="-2.3346200">
        <ele>493.0</ele>
        <time>2020-08-14T11:20:38Z</time>
      </trkpt>
      <trkpt lat="43.0149340" lon="-2.3345510">
        <ele>493.0</ele>
        <time>2020-08-14T11:20:46Z</time>
      </trkpt>
      <trkpt lat="43.0153970" lon="-2.3343840">
        <ele>492.8</ele>
        <time>2020-08-14T11:20:52Z</time>
      </trkpt>
      <trkpt lat="43.0158370" lon="-2.3344850">
        <ele>492.8</ele>
        <time>2020-08-14T11:20:58Z</time>
      </trkpt>
      <trkpt lat="43.0162360" lon="-2.3348170">
        <ele>492.6</ele>
        <time>2020-08-14T11:21:05Z</time>
      </trkpt>
      <trkpt lat="43.0166520" lon="-2.3348450">
        <ele>492.4</ele>
        <time>2020-08-14T11:21:11Z</time>
      </trkpt>
      <trkpt lat="43.0168350" lon="-2.3348080">
        <ele>491.6</ele>
        <time>2020-08-14T11:21:15Z</time>
      </trkpt>
      <trkpt lat="43.0168530" lon="-2.3347920">
        <ele>490.4</ele>
        <time>2020-08-14T11:21:17Z</time>
      </trkpt>
      <trkpt lat="43.0168500" lon="-2.3347920">
        <ele>489.4</ele>
        <time>2020-08-14T11:21:18Z</time>
      </trkpt>
      <trkpt lat="43.0168500" lon="-2.3348140">
        <ele>488.4</ele>
        <time>2020-08-14T11:21:59Z</time>
      </trkpt>
      <trkpt lat="43.0168650" lon="-2.3348290">
        <ele>488.4</ele>
        <time>2020-08-14T11:22:00Z</time>
      </trkpt>
      <trkpt lat="43.0170110" lon="-2.3348650">
        <ele>488.4</ele>
        <time>2020-08-14T11:22:04Z</time>
      </trkpt>
      <trkpt lat="43.0173660" lon="-2.3349390">
        <ele>487.2</ele>
        <time>2020-08-14T11:22:10Z</time>
      </trkpt>
      <trkpt lat="43.0175490" lon="-2.3349830">
        <ele>486.2</ele>
        <time>2020-08-14T11:22:13Z</time>
      </trkpt>
      <trkpt lat="43.0180740" lon="-2.3352630">
        <ele>486.0</ele>
        <time>2020-08-14T11:22:22Z</time>
      </trkpt>
      <trkpt lat="43.0183240" lon="-2.3353110">
        <ele>486.0</ele>
        <time>2020-08-14T11:22:26Z</time>
      </trkpt>
      <trkpt lat="43.0185060" lon="-2.3353110">
        <ele>486.0</ele>
        <time>2020-08-14T11:22:29Z</time>
      </trkpt>
      <trkpt lat="43.0186850" lon="-2.3353480">
        <ele>485.8</ele>
        <time>2020-08-14T11:22:32Z</time>
      </trkpt>
      <trkpt lat="43.0188700" lon="-2.3354250">
        <ele>485.8</ele>
        <time>2020-08-14T11:22:35Z</time>
      </trkpt>
      <trkpt lat="43.0192420" lon="-2.3354750">
        <ele>485.2</ele>
        <time>2020-08-14T11:22:40Z</time>
      </trkpt>
      <trkpt lat="43.0194810" lon="-2.3355310">
        <ele>484.4</ele>
        <time>2020-08-14T11:22:43Z</time>
      </trkpt>
      <trkpt lat="43.0195630" lon="-2.3355390">
        <ele>483.8</ele>
        <time>2020-08-14T11:22:44Z</time>
      </trkpt>
      <trkpt lat="43.0196440" lon="-2.3355400">
        <ele>483.2</ele>
        <time>2020-08-14T11:22:45Z</time>
      </trkpt>
      <trkpt lat="43.0198660" lon="-2.3354940">
        <ele>482.2</ele>
        <time>2020-08-14T11:22:48Z</time>
      </trkpt>
      <trkpt lat="43.0202750" lon="-2.3353230">
        <ele>481.6</ele>
        <time>2020-08-14T11:22:53Z</time>
      </trkpt>
      <trkpt lat="43.0205310" lon="-2.3351870">
        <ele>481.2</ele>
        <time>2020-08-14T11:22:56Z</time>
      </trkpt>
      <trkpt lat="43.0207980" lon="-2.3352100">
        <ele>479.6</ele>
        <time>2020-08-14T11:22:59Z</time>
      </trkpt>
      <trkpt lat="43.0209720" lon="-2.3352500">
        <ele>478.4</ele>
        <time>2020-08-14T11:23:01Z</time>
      </trkpt>
      <trkpt lat="43.0211450" lon="-2.3353090">
        <ele>477.4</ele>
        <time>2020-08-14T11:23:03Z</time>
      </trkpt>
      <trkpt lat="43.0214800" lon="-2.3354260">
        <ele>476.2</ele>
        <time>2020-08-14T11:23:07Z</time>
      </trkpt>
      <trkpt lat="43.0215630" lon="-2.3354350">
        <ele>475.8</ele>
        <time>2020-08-14T11:23:08Z</time>
      </trkpt>
      <trkpt lat="43.0219470" lon="-2.3353060">
        <ele>475.0</ele>
        <time>2020-08-14T11:23:13Z</time>
      </trkpt>
      <trkpt lat="43.0220140" lon="-2.3352580">
        <ele>475.0</ele>
        <time>2020-08-14T11:23:14Z</time>
      </trkpt>
      <trkpt lat="43.0223670" lon="-2.3350560">
        <ele>474.0</ele>
        <time>2020-08-14T11:23:19Z</time>
      </trkpt>
      <trkpt lat="43.0229520" lon="-2.3348750">
        <ele>473.4</ele>
        <time>2020-08-14T11:23:27Z</time>
      </trkpt>
      <trkpt lat="43.0230260" lon="-2.3348590">
        <ele>473.2</ele>
        <time>2020-08-14T11:23:28Z</time>
      </trkpt>
      <trkpt lat="43.0233230" lon="-2.3349210">
        <ele>473.2</ele>
        <time>2020-08-14T11:23:32Z</time>
      </trkpt>
      <trkpt lat="43.0234610" lon="-2.3350030">
        <ele>473.0</ele>
        <time>2020-08-14T11:23:34Z</time>
      </trkpt>
      <trkpt lat="43.0238090" lon="-2.3352150">
        <ele>472.0</ele>
        <time>2020-08-14T11:23:39Z</time>
      </trkpt>
      <trkpt lat="43.0239510" lon="-2.3352850">
        <ele>471.8</ele>
        <time>2020-08-14T11:23:41Z</time>
      </trkpt>
      <trkpt lat="43.0245180" lon="-2.3354380">
        <ele>471.0</ele>
        <time>2020-08-14T11:23:49Z</time>
      </trkpt>
      <trkpt lat="43.0248180" lon="-2.3354840">
        <ele>469.6</ele>
        <time>2020-08-14T11:23:53Z</time>
      </trkpt>
      <trkpt lat="43.0253730" lon="-2.3354030">
        <ele>468.6</ele>
        <time>2020-08-14T11:24:00Z</time>
      </trkpt>
      <trkpt lat="43.0255350" lon="-2.3353670">
        <ele>468.6</ele>
        <time>2020-08-14T11:24:02Z</time>
      </trkpt>
      <trkpt lat="43.0260180" lon="-2.3352550">
        <ele>467.4</ele>
        <time>2020-08-14T11:24:08Z</time>
      </trkpt>
      <trkpt lat="43.0265720" lon="-2.3351420">
        <ele>466.4</ele>
        <time>2020-08-14T11:24:15Z</time>
      </trkpt>
      <trkpt lat="43.0269600" lon="-2.3352740">
        <ele>466.2</ele>
        <time>2020-08-14T11:24:20Z</time>
      </trkpt>
      <trkpt lat="43.0272450" lon="-2.3356540">
        <ele>465.6</ele>
        <time>2020-08-14T11:24:25Z</time>
      </trkpt>
      <trkpt lat="43.0274610" lon="-2.3362210">
        <ele>464.4</ele>
        <time>2020-08-14T11:24:31Z</time>
      </trkpt>
      <trkpt lat="43.0276630" lon="-2.3369060">
        <ele>463.6</ele>
        <time>2020-08-14T11:24:38Z</time>
      </trkpt>
      <trkpt lat="43.0277000" lon="-2.3369970">
        <ele>463.6</ele>
        <time>2020-08-14T11:24:39Z</time>
      </trkpt>
      <trkpt lat="43.0279060" lon="-2.3373010">
        <ele>463.2</ele>
        <time>2020-08-14T11:24:43Z</time>
      </trkpt>
      <trkpt lat="43.0279530" lon="-2.3373800">
        <ele>463.2</ele>
        <time>2020-08-14T11:24:44Z</time>
      </trkpt>
      <trkpt lat="43.0282560" lon="-2.3379960">
        <ele>462.4</ele>
        <time>2020-08-14T11:24:51Z</time>
      </trkpt>
      <trkpt lat="43.0283110" lon="-2.3380750">
        <ele>462.4</ele>
        <time>2020-08-14T11:24:52Z</time>
      </trkpt>
      <trkpt lat="43.0286690" lon="-2.3384500">
        <ele>461.2</ele>
        <time>2020-08-14T11:24:58Z</time>
      </trkpt>
      <trkpt lat="43.0289030" lon="-2.3388280">
        <ele>460.2</ele>
        <time>2020-08-14T11:25:03Z</time>
      </trkpt>
      <trkpt lat="43.0292000" lon="-2.3392390">
        <ele>459.8</ele>
        <time>2020-08-14T11:25:09Z</time>
      </trkpt>
      <trkpt lat="43.0292560" lon="-2.3396120">
        <ele>459.8</ele>
        <time>2020-08-14T11:25:13Z</time>
      </trkpt>
      <trkpt lat="43.0294730" lon="-2.3399180">
        <ele>459.2</ele>
        <time>2020-08-14T11:25:18Z</time>
      </trkpt>
      <trkpt lat="43.0295270" lon="-2.3399670">
        <ele>459.0</ele>
        <time>2020-08-14T11:25:19Z</time>
      </trkpt>
      <trkpt lat="43.0297970" lon="-2.3401320">
        <ele>458.2</ele>
        <time>2020-08-14T11:25:23Z</time>
      </trkpt>
      <trkpt lat="43.0302490" lon="-2.3403070">
        <ele>457.8</ele>
        <time>2020-08-14T11:25:29Z</time>
      </trkpt>
      <trkpt lat="43.0304520" lon="-2.3404100">
        <ele>457.6</ele>
        <time>2020-08-14T11:25:32Z</time>
      </trkpt>
      <trkpt lat="43.0305780" lon="-2.3404550">
        <ele>457.2</ele>
        <time>2020-08-14T11:25:34Z</time>
      </trkpt>
      <trkpt lat="43.0306350" lon="-2.3404650">
        <ele>457.2</ele>
        <time>2020-08-14T11:25:35Z</time>
      </trkpt>
      <trkpt lat="43.0310340" lon="-2.3399550">
        <ele>457.6</ele>
        <time>2020-08-14T11:25:49Z</time>
      </trkpt>
      <trkpt lat="43.0313050" lon="-2.3398990">
        <ele>458.0</ele>
        <time>2020-08-14T11:25:54Z</time>
      </trkpt>
      <trkpt lat="43.0313670" lon="-2.3399120">
        <ele>458.0</ele>
        <time>2020-08-14T11:25:55Z</time>
      </trkpt>
      <trkpt lat="43.0317710" lon="-2.3401120">
        <ele>457.0</ele>
        <time>2020-08-14T11:26:01Z</time>
      </trkpt>
      <trkpt lat="43.0321190" lon="-2.3402110">
        <ele>456.2</ele>
        <time>2020-08-14T11:26:06Z</time>
      </trkpt>
      <trkpt lat="43.0326460" lon="-2.3403320">
        <ele>457.4</ele>
        <time>2020-08-14T11:26:18Z</time>
      </trkpt>
      <trkpt lat="43.0326940" lon="-2.3403380">
        <ele>458.6</ele>
        <time>2020-08-14T11:26:20Z</time>
      </trkpt>
      <trkpt lat="43.0327390" lon="-2.3403080">
        <ele>459.6</ele>
        <time>2020-08-14T11:26:22Z</time>
      </trkpt>
      <trkpt lat="43.0327660" lon="-2.3402600">
        <ele>460.8</ele>
        <time>2020-08-14T11:26:24Z</time>
      </trkpt>
      <trkpt lat="43.0328030" lon="-2.3402010">
        <ele>462.0</ele>
        <time>2020-08-14T11:26:26Z</time>
      </trkpt>
      <trkpt lat="43.0328550" lon="-2.3401560">
        <ele>463.2</ele>
        <time>2020-08-14T11:26:28Z</time>
      </trkpt>
      <trkpt lat="43.0329120" lon="-2.3401170">
        <ele>464.4</ele>
        <time>2020-08-14T11:26:30Z</time>
      </trkpt>
      <trkpt lat="43.0329880" lon="-2.3400760">
        <ele>466.0</ele>
        <time>2020-08-14T11:26:32Z</time>
      </trkpt>
      <trkpt lat="43.0330550" lon="-2.3400390">
        <ele>467.2</ele>
        <time>2020-08-14T11:26:34Z</time>
      </trkpt>
      <trkpt lat="43.0331420" lon="-2.3399680">
        <ele>468.6</ele>
        <time>2020-08-14T11:26:37Z</time>
      </trkpt>
      <trkpt lat="43.0332350" lon="-2.3398870">
        <ele>469.8</ele>
        <time>2020-08-14T11:26:40Z</time>
      </trkpt>
      <trkpt lat="43.0336010" lon="-2.3395350">
        <ele>470.4</ele>
        <time>2020-08-14T11:26:47Z</time>
      </trkpt>
      <trkpt lat="43.0340300" lon="-2.3391740">
        <ele>468.4</ele>
        <time>2020-08-14T11:26:53Z</time>
      </trkpt>
      <trkpt lat="43.0341620" lon="-2.3390270">
        <ele>466.4</ele>
        <time>2020-08-14T11:26:55Z</time>
      </trkpt>
      <trkpt lat="43.0342890" lon="-2.3388760">
        <ele>465.2</ele>
        <time>2020-08-14T11:26:57Z</time>
      </trkpt>
      <trkpt lat="43.0344690" lon="-2.3386560">
        <ele>464.0</ele>
        <time>2020-08-14T11:27:00Z</time>
      </trkpt>
      <trkpt lat="43.0346340" lon="-2.3384380">
        <ele>462.6</ele>
        <time>2020-08-14T11:27:03Z</time>
      </trkpt>
      <trkpt lat="43.0350120" lon="-2.3379600">
        <ele>461.4</ele>
        <time>2020-08-14T11:27:10Z</time>
      </trkpt>
      <trkpt lat="43.0350810" lon="-2.3379250">
        <ele>461.2</ele>
        <time>2020-08-14T11:27:11Z</time>
      </trkpt>
      <trkpt lat="43.0352790" lon="-2.3378410">
        <ele>461.0</ele>
        <time>2020-08-14T11:27:14Z</time>
      </trkpt>
      <trkpt lat="43.0354010" lon="-2.3377230">
        <ele>460.2</ele>
        <time>2020-08-14T11:27:16Z</time>
      </trkpt>
      <trkpt lat="43.0355100" lon="-2.3375750">
        <ele>458.6</ele>
        <time>2020-08-14T11:27:18Z</time>
      </trkpt>
      <trkpt lat="43.0356110" lon="-2.3374140">
        <ele>457.2</ele>
        <time>2020-08-14T11:27:20Z</time>
      </trkpt>
      <trkpt lat="43.0357060" lon="-2.3372680">
        <ele>454.6</ele>
        <time>2020-08-14T11:27:22Z</time>
      </trkpt>
      <trkpt lat="43.0358060" lon="-2.3371200">
        <ele>453.2</ele>
        <time>2020-08-14T11:27:24Z</time>
      </trkpt>
      <trkpt lat="43.0358650" lon="-2.3370560">
        <ele>452.6</ele>
        <time>2020-08-14T11:27:25Z</time>
      </trkpt>
      <trkpt lat="43.0359250" lon="-2.3369930">
        <ele>452.0</ele>
        <time>2020-08-14T11:27:26Z</time>
      </trkpt>
      <trkpt lat="43.0362210" lon="-2.3366740">
        <ele>451.0</ele>
        <time>2020-08-14T11:27:31Z</time>
      </trkpt>
      <trkpt lat="43.0363150" lon="-2.3365680">
        <ele>450.0</ele>
        <time>2020-08-14T11:27:33Z</time>
      </trkpt>
      <trkpt lat="43.0364340" lon="-2.3364820">
        <ele>449.4</ele>
        <time>2020-08-14T11:27:34Z</time>
      </trkpt>
      <trkpt lat="43.0365060" lon="-2.3364450">
        <ele>448.4</ele>
        <time>2020-08-14T11:27:36Z</time>
      </trkpt>
      <trkpt lat="43.0369690" lon="-2.3362560">
        <ele>447.4</ele>
        <time>2020-08-14T11:27:42Z</time>
      </trkpt>
      <trkpt lat="43.0370460" lon="-2.3362560">
        <ele>447.2</ele>
        <time>2020-08-14T11:27:43Z</time>
      </trkpt>
      <trkpt lat="43.0372850" lon="-2.3362990">
        <ele>447.0</ele>
        <time>2020-08-14T11:27:46Z</time>
      </trkpt>
      <trkpt lat="43.0376510" lon="-2.3362170">
        <ele>446.0</ele>
        <time>2020-08-14T11:27:51Z</time>
      </trkpt>
      <trkpt lat="43.0378760" lon="-2.3361790">
        <ele>445.6</ele>
        <time>2020-08-14T11:27:54Z</time>
      </trkpt>
      <trkpt lat="43.0382740" lon="-2.3362570">
        <ele>445.4</ele>
        <time>2020-08-14T11:27:59Z</time>
      </trkpt>
      <trkpt lat="43.0383930" lon="-2.3363060">
        <ele>445.4</ele>
        <time>2020-08-14T11:28:01Z</time>
      </trkpt>
      <trkpt lat="43.0385800" lon="-2.3363320">
        <ele>445.6</ele>
        <time>2020-08-14T11:28:05Z</time>
      </trkpt>
      <trkpt lat="43.0386100" lon="-2.3363310">
        <ele>445.6</ele>
        <time>2020-08-14T11:28:06Z</time>
      </trkpt>
      <trkpt lat="43.0386410" lon="-2.3361230">
        <ele>446.0</ele>
        <time>2020-08-14T11:28:12Z</time>
      </trkpt>
      <trkpt lat="43.0385940" lon="-2.3355680">
        <ele>447.2</ele>
        <time>2020-08-14T11:28:24Z</time>
      </trkpt>
      <trkpt lat="43.0386040" lon="-2.3353810">
        <ele>448.6</ele>
        <time>2020-08-14T11:28:28Z</time>
      </trkpt>
      <trkpt lat="43.0385980" lon="-2.3352270">
        <ele>449.8</ele>
        <time>2020-08-14T11:28:31Z</time>
      </trkpt>
      <trkpt lat="43.0385970" lon="-2.3349840">
        <ele>451.0</ele>
        <time>2020-08-14T11:28:36Z</time>
      </trkpt>
      <trkpt lat="43.0387250" lon="-2.3347980">
        <ele>452.0</ele>
        <time>2020-08-14T11:28:42Z</time>
      </trkpt>
      <trkpt lat="43.0388750" lon="-2.3348170">
        <ele>453.2</ele>
        <time>2020-08-14T11:28:47Z</time>
      </trkpt>
      <trkpt lat="43.0390170" lon="-2.3349580">
        <ele>454.2</ele>
        <time>2020-08-14T11:28:52Z</time>
      </trkpt>
      <trkpt lat="43.0391440" lon="-2.3351180">
        <ele>455.4</ele>
        <time>2020-08-14T11:28:57Z</time>
      </trkpt>
      <trkpt lat="43.0393500" lon="-2.3352980">
        <ele>456.4</ele>
        <time>2020-08-14T11:29:04Z</time>
      </trkpt>
      <trkpt lat="43.0398950" lon="-2.3352460">
        <ele>457.2</ele>
        <time>2020-08-14T11:29:16Z</time>
      </trkpt>
      <trkpt lat="43.0404810" lon="-2.3351560">
        <ele>456.4</ele>
        <time>2020-08-14T11:29:27Z</time>
      </trkpt>
      <trkpt lat="43.0410400" lon="-2.3350900">
        <ele>456.6</ele>
        <time>2020-08-14T11:29:39Z</time>
      </trkpt>
      <trkpt lat="43.0411620" lon="-2.3351080">
        <ele>457.8</ele>
        <time>2020-08-14T11:29:42Z</time>
      </trkpt>
      <trkpt lat="43.0413530" lon="-2.3351770">
        <ele>459.0</ele>
        <time>2020-08-14T11:29:47Z</time>
      </trkpt>
      <trkpt lat="43.0415910" lon="-2.3352490">
        <ele>460.0</ele>
        <time>2020-08-14T11:29:53Z</time>
      </trkpt>
      <trkpt lat="43.0418130" lon="-2.3353280">
        <ele>461.2</ele>
        <time>2020-08-14T11:29:59Z</time>
      </trkpt>
      <trkpt lat="43.0420070" lon="-2.3354120">
        <ele>462.0</ele>
        <time>2020-08-14T11:30:04Z</time>
      </trkpt>
      <trkpt lat="43.0420480" lon="-2.3354370">
        <ele>462.2</ele>
        <time>2020-08-14T11:30:05Z</time>
      </trkpt>
      <trkpt lat="43.0422050" lon="-2.3355490">
        <ele>463.4</ele>
        <time>2020-08-14T11:30:09Z</time>
      </trkpt>
      <trkpt lat="43.0424070" lon="-2.3356800">
        <ele>464.4</ele>
        <time>2020-08-14T11:30:14Z</time>
      </trkpt>
      <trkpt lat="43.0425250" lon="-2.3357520">
        <ele>465.4</ele>
        <time>2020-08-14T11:30:17Z</time>
      </trkpt>
      <trkpt lat="43.0427880" lon="-2.3359120">
        <ele>466.6</ele>
        <time>2020-08-14T11:30:24Z</time>
      </trkpt>
      <trkpt lat="43.0431630" lon="-2.3361240">
        <ele>468.0</ele>
        <time>2020-08-14T11:30:34Z</time>
      </trkpt>
      <trkpt lat="43.0434350" lon="-2.3362290">
        <ele>469.2</ele>
        <time>2020-08-14T11:30:41Z</time>
      </trkpt>
      <trkpt lat="43.0435930" lon="-2.3362620">
        <ele>470.2</ele>
        <time>2020-08-14T11:30:45Z</time>
      </trkpt>
      <trkpt lat="43.0438270" lon="-2.3362190">
        <ele>471.4</ele>
        <time>2020-08-14T11:30:51Z</time>
      </trkpt>
      <trkpt lat="43.0440470" lon="-2.3361660">
        <ele>472.4</ele>
        <time>2020-08-14T11:30:57Z</time>
      </trkpt>
      <trkpt lat="43.0442980" lon="-2.3360800">
        <ele>473.8</ele>
        <time>2020-08-14T11:31:04Z</time>
      </trkpt>
      <trkpt lat="43.0445010" lon="-2.3360170">
        <ele>474.8</ele>
        <time>2020-08-14T11:31:10Z</time>
      </trkpt>
      <trkpt lat="43.0447710" lon="-2.3358660">
        <ele>475.8</ele>
        <time>2020-08-14T11:31:17Z</time>
      </trkpt>
      <trkpt lat="43.0450390" lon="-2.3356850">
        <ele>477.0</ele>
        <time>2020-08-14T11:31:24Z</time>
      </trkpt>
      <trkpt lat="43.0451960" lon="-2.3355910">
        <ele>478.0</ele>
        <time>2020-08-14T11:31:28Z</time>
      </trkpt>
      <trkpt lat="43.0454650" lon="-2.3353930">
        <ele>479.2</ele>
        <time>2020-08-14T11:31:35Z</time>
      </trkpt>
      <trkpt lat="43.0456430" lon="-2.3352450">
        <ele>480.2</ele>
        <time>2020-08-14T11:31:41Z</time>
      </trkpt>
      <trkpt lat="43.0457430" lon="-2.3350550">
        <ele>481.2</ele>
        <time>2020-08-14T11:31:46Z</time>
      </trkpt>
      <trkpt lat="43.0457790" lon="-2.3349440">
        <ele>481.4</ele>
        <time>2020-08-14T11:31:48Z</time>
      </trkpt>
      <trkpt lat="43.0459360" lon="-2.3344890">
        <ele>482.4</ele>
        <time>2020-08-14T11:31:57Z</time>
      </trkpt>
      <trkpt lat="43.0460910" lon="-2.3342920">
        <ele>483.4</ele>
        <time>2020-08-14T11:32:02Z</time>
      </trkpt>
      <trkpt lat="43.0462900" lon="-2.3340780">
        <ele>484.4</ele>
        <time>2020-08-14T11:32:08Z</time>
      </trkpt>
      <trkpt lat="43.0465060" lon="-2.3338580">
        <ele>485.6</ele>
        <time>2020-08-14T11:32:15Z</time>
      </trkpt>
      <trkpt lat="43.0466500" lon="-2.3337440">
        <ele>486.8</ele>
        <time>2020-08-14T11:32:20Z</time>
      </trkpt>
      <trkpt lat="43.0468410" lon="-2.3336290">
        <ele>487.6</ele>
        <time>2020-08-14T11:32:25Z</time>
      </trkpt>
      <trkpt lat="43.0469280" lon="-2.3335580">
        <ele>487.8</ele>
        <time>2020-08-14T11:32:27Z</time>
      </trkpt>
      <trkpt lat="43.0471380" lon="-2.3332500">
        <ele>489.2</ele>
        <time>2020-08-14T11:32:34Z</time>
      </trkpt>
      <trkpt lat="43.0472830" lon="-2.3330140">
        <ele>490.2</ele>
        <time>2020-08-14T11:32:39Z</time>
      </trkpt>
      <trkpt lat="43.0474500" lon="-2.3327410">
        <ele>491.2</ele>
        <time>2020-08-14T11:32:45Z</time>
      </trkpt>
      <trkpt lat="43.0475620" lon="-2.3325390">
        <ele>492.0</ele>
        <time>2020-08-14T11:32:49Z</time>
      </trkpt>
      <trkpt lat="43.0476450" lon="-2.3323770">
        <ele>492.6</ele>
        <time>2020-08-14T11:32:52Z</time>
      </trkpt>
      <trkpt lat="43.0477950" lon="-2.3319400">
        <ele>493.6</ele>
        <time>2020-08-14T11:32:59Z</time>
      </trkpt>
      <trkpt lat="43.0478670" lon="-2.3316520">
        <ele>494.6</ele>
        <time>2020-08-14T11:33:03Z</time>
      </trkpt>
      <trkpt lat="43.0478910" lon="-2.3315840">
        <ele>494.8</ele>
        <time>2020-08-14T11:33:04Z</time>
      </trkpt>
      <trkpt lat="43.0479870" lon="-2.3313410">
        <ele>495.6</ele>
        <time>2020-08-14T11:33:08Z</time>
      </trkpt>
      <trkpt lat="43.0480120" lon="-2.3312840">
        <ele>495.8</ele>
        <time>2020-08-14T11:33:09Z</time>
      </trkpt>
      <trkpt lat="43.0480620" lon="-2.3311740">
        <ele>496.2</ele>
        <time>2020-08-14T11:33:11Z</time>
      </trkpt>
      <trkpt lat="43.0481120" lon="-2.3310590">
        <ele>496.6</ele>
        <time>2020-08-14T11:33:13Z</time>
      </trkpt>
      <trkpt lat="43.0481350" lon="-2.3310070">
        <ele>496.8</ele>
        <time>2020-08-14T11:33:14Z</time>
      </trkpt>
      <trkpt lat="43.0482390" lon="-2.3307280">
        <ele>498.0</ele>
        <time>2020-08-14T11:33:19Z</time>
      </trkpt>
      <trkpt lat="43.0482810" lon="-2.3304910">
        <ele>498.8</ele>
        <time>2020-08-14T11:33:23Z</time>
      </trkpt>
      <trkpt lat="43.0482860" lon="-2.3304290">
        <ele>499.0</ele>
        <time>2020-08-14T11:33:24Z</time>
      </trkpt>
      <trkpt lat="43.0482700" lon="-2.3299960">
        <ele>500.2</ele>
        <time>2020-08-14T11:33:31Z</time>
      </trkpt>
      <trkpt lat="43.0482440" lon="-2.3298790">
        <ele>500.4</ele>
        <time>2020-08-14T11:33:33Z</time>
      </trkpt>
      <trkpt lat="43.0482160" lon="-2.3297630">
        <ele>500.8</ele>
        <time>2020-08-14T11:33:35Z</time>
      </trkpt>
      <trkpt lat="43.0481440" lon="-2.3296150">
        <ele>501.2</ele>
        <time>2020-08-14T11:33:38Z</time>
      </trkpt>
      <trkpt lat="43.0480070" lon="-2.3294600">
        <ele>502.0</ele>
        <time>2020-08-14T11:33:42Z</time>
      </trkpt>
      <trkpt lat="43.0479430" lon="-2.3293890">
        <ele>502.6</ele>
        <time>2020-08-14T11:33:44Z</time>
      </trkpt>
      <trkpt lat="43.0478780" lon="-2.3293100">
        <ele>503.0</ele>
        <time>2020-08-14T11:33:46Z</time>
      </trkpt>
      <trkpt lat="43.0478110" lon="-2.3291620">
        <ele>503.8</ele>
        <time>2020-08-14T11:33:49Z</time>
      </trkpt>
      <trkpt lat="43.0477920" lon="-2.3288750">
        <ele>504.6</ele>
        <time>2020-08-14T11:33:54Z</time>
      </trkpt>
      <trkpt lat="43.0478020" lon="-2.3288200">
        <ele>504.8</ele>
        <time>2020-08-14T11:33:55Z</time>
      </trkpt>
      <trkpt lat="43.0478500" lon="-2.3287140">
        <ele>505.0</ele>
        <time>2020-08-14T11:33:57Z</time>
      </trkpt>
      <trkpt lat="43.0479560" lon="-2.3286350">
        <ele>505.2</ele>
        <time>2020-08-14T11:34:00Z</time>
      </trkpt>
      <trkpt lat="43.0482240" lon="-2.3285180">
        <ele>505.8</ele>
        <time>2020-08-14T11:34:07Z</time>
      </trkpt>
      <trkpt lat="43.0483290" lon="-2.3284040">
        <ele>506.2</ele>
        <time>2020-08-14T11:34:10Z</time>
      </trkpt>
      <trkpt lat="43.0484240" lon="-2.3280610">
        <ele>507.2</ele>
        <time>2020-08-14T11:34:16Z</time>
      </trkpt>
      <trkpt lat="43.0483770" lon="-2.3278160">
        <ele>508.0</ele>
        <time>2020-08-14T11:34:20Z</time>
      </trkpt>
      <trkpt lat="43.0483600" lon="-2.3277570">
        <ele>508.2</ele>
        <time>2020-08-14T11:34:21Z</time>
      </trkpt>
      <trkpt lat="43.0482580" lon="-2.3274150">
        <ele>509.0</ele>
        <time>2020-08-14T11:34:27Z</time>
      </trkpt>
      <trkpt lat="43.0482210" lon="-2.3273150">
        <ele>509.4</ele>
        <time>2020-08-14T11:34:29Z</time>
      </trkpt>
      <trkpt lat="43.0481790" lon="-2.3272230">
        <ele>509.8</ele>
        <time>2020-08-14T11:34:31Z</time>
      </trkpt>
      <trkpt lat="43.0481350" lon="-2.3269900">
        <ele>510.4</ele>
        <time>2020-08-14T11:34:35Z</time>
      </trkpt>
      <trkpt lat="43.0481360" lon="-2.3267520">
        <ele>511.2</ele>
        <time>2020-08-14T11:34:39Z</time>
      </trkpt>
      <trkpt lat="43.0482000" lon="-2.3265960">
        <ele>511.6</ele>
        <time>2020-08-14T11:34:42Z</time>
      </trkpt>
      <trkpt lat="43.0483160" lon="-2.3264800">
        <ele>512.0</ele>
        <time>2020-08-14T11:34:45Z</time>
      </trkpt>
      <trkpt lat="43.0487240" lon="-2.3261420">
        <ele>512.6</ele>
        <time>2020-08-14T11:34:55Z</time>
      </trkpt>
      <trkpt lat="43.0488380" lon="-2.3260290">
        <ele>513.0</ele>
        <time>2020-08-14T11:34:58Z</time>
      </trkpt>
      <trkpt lat="43.0489130" lon="-2.3258120">
        <ele>513.8</ele>
        <time>2020-08-14T11:35:02Z</time>
      </trkpt>
      <trkpt lat="43.0488540" lon="-2.3255690">
        <ele>514.4</ele>
        <time>2020-08-14T11:35:06Z</time>
      </trkpt>
      <trkpt lat="43.0488070" lon="-2.3254460">
        <ele>514.8</ele>
        <time>2020-08-14T11:35:08Z</time>
      </trkpt>
      <trkpt lat="43.0487830" lon="-2.3253770">
        <ele>515.0</ele>
        <time>2020-08-14T11:35:09Z</time>
      </trkpt>
      <trkpt lat="43.0487450" lon="-2.3252350">
        <ele>515.2</ele>
        <time>2020-08-14T11:35:11Z</time>
      </trkpt>
      <trkpt lat="43.0487590" lon="-2.3249490">
        <ele>515.8</ele>
        <time>2020-08-14T11:35:15Z</time>
      </trkpt>
      <trkpt lat="43.0488350" lon="-2.3247800">
        <ele>516.2</ele>
        <time>2020-08-14T11:35:18Z</time>
      </trkpt>
      <trkpt lat="43.0489110" lon="-2.3246780">
        <ele>516.8</ele>
        <time>2020-08-14T11:35:21Z</time>
      </trkpt>
      <trkpt lat="43.0491290" lon="-2.3246430">
        <ele>518.0</ele>
        <time>2020-08-14T11:35:26Z</time>
      </trkpt>
      <trkpt lat="43.0494950" lon="-2.3247000">
        <ele>519.0</ele>
        <time>2020-08-14T11:35:33Z</time>
      </trkpt>
      <trkpt lat="43.0495400" lon="-2.3247060">
        <ele>519.0</ele>
        <time>2020-08-14T11:35:34Z</time>
      </trkpt>
      <trkpt lat="43.0497660" lon="-2.3242020">
        <ele>520.0</ele>
        <time>2020-08-14T11:35:43Z</time>
      </trkpt>
      <trkpt lat="43.0497660" lon="-2.3241300">
        <ele>520.2</ele>
        <time>2020-08-14T11:35:44Z</time>
      </trkpt>
      <trkpt lat="43.0497660" lon="-2.3237880">
        <ele>521.2</ele>
        <time>2020-08-14T11:35:49Z</time>
      </trkpt>
      <trkpt lat="43.0497800" lon="-2.3235190">
        <ele>522.6</ele>
        <time>2020-08-14T11:35:53Z</time>
      </trkpt>
      <trkpt lat="43.0498040" lon="-2.3232010">
        <ele>523.6</ele>
        <time>2020-08-14T11:35:58Z</time>
      </trkpt>
      <trkpt lat="43.0498250" lon="-2.3230070">
        <ele>523.8</ele>
        <time>2020-08-14T11:36:01Z</time>
      </trkpt>
      <trkpt lat="43.0498310" lon="-2.3227590">
        <ele>524.4</ele>
        <time>2020-08-14T11:36:05Z</time>
      </trkpt>
      <trkpt lat="43.0498110" lon="-2.3226330">
        <ele>524.6</ele>
        <time>2020-08-14T11:36:07Z</time>
      </trkpt>
      <trkpt lat="43.0497980" lon="-2.3225700">
        <ele>524.8</ele>
        <time>2020-08-14T11:36:08Z</time>
      </trkpt>
      <trkpt lat="43.0497490" lon="-2.3223840">
        <ele>525.2</ele>
        <time>2020-08-14T11:36:11Z</time>
      </trkpt>
      <trkpt lat="43.0497150" lon="-2.3222600">
        <ele>525.6</ele>
        <time>2020-08-14T11:36:13Z</time>
      </trkpt>
      <trkpt lat="43.0497020" lon="-2.3221970">
        <ele>526.0</ele>
        <time>2020-08-14T11:36:14Z</time>
      </trkpt>
      <trkpt lat="43.0496970" lon="-2.3219240">
        <ele>527.0</ele>
        <time>2020-08-14T11:36:18Z</time>
      </trkpt>
      <trkpt lat="43.0497100" lon="-2.3218570">
        <ele>527.2</ele>
        <time>2020-08-14T11:36:19Z</time>
      </trkpt>
      <trkpt lat="43.0497960" lon="-2.3216060">
        <ele>528.0</ele>
        <time>2020-08-14T11:36:23Z</time>
      </trkpt>
      <trkpt lat="43.0500080" lon="-2.3212220">
        <ele>529.4</ele>
        <time>2020-08-14T11:36:30Z</time>
      </trkpt>
      <trkpt lat="43.0501100" lon="-2.3210840">
        <ele>530.0</ele>
        <time>2020-08-14T11:36:33Z</time>
      </trkpt>
      <trkpt lat="43.0501840" lon="-2.3209910">
        <ele>530.4</ele>
        <time>2020-08-14T11:36:35Z</time>
      </trkpt>
      <trkpt lat="43.0504160" lon="-2.3206660">
        <ele>531.4</ele>
        <time>2020-08-14T11:36:42Z</time>
      </trkpt>
      <trkpt lat="43.0504380" lon="-2.3206130">
        <ele>531.6</ele>
        <time>2020-08-14T11:36:43Z</time>
      </trkpt>
      <trkpt lat="43.0507260" lon="-2.3202880">
        <ele>532.8</ele>
        <time>2020-08-14T11:36:51Z</time>
      </trkpt>
      <trkpt lat="43.0508450" lon="-2.3202520">
        <ele>532.8</ele>
        <time>2020-08-14T11:36:53Z</time>
      </trkpt>
      <trkpt lat="43.0512450" lon="-2.3201570">
        <ele>532.8</ele>
        <time>2020-08-14T11:36:59Z</time>
      </trkpt>
      <trkpt lat="43.0515300" lon="-2.3198480">
        <ele>531.8</ele>
        <time>2020-08-14T11:37:04Z</time>
      </trkpt>
      <trkpt lat="43.0516140" lon="-2.3196520">
        <ele>530.8</ele>
        <time>2020-08-14T11:37:06Z</time>
      </trkpt>
      <trkpt lat="43.0516470" lon="-2.3195550">
        <ele>530.4</ele>
        <time>2020-08-14T11:37:07Z</time>
      </trkpt>
      <trkpt lat="43.0516840" lon="-2.3194570">
        <ele>530.2</ele>
        <time>2020-08-14T11:37:08Z</time>
      </trkpt>
      <trkpt lat="43.0517750" lon="-2.3192610">
        <ele>529.8</ele>
        <time>2020-08-14T11:37:10Z</time>
      </trkpt>
      <trkpt lat="43.0518980" lon="-2.3191010">
        <ele>529.0</ele>
        <time>2020-08-14T11:37:12Z</time>
      </trkpt>
      <trkpt lat="43.0520650" lon="-2.3190170">
        <ele>527.6</ele>
        <time>2020-08-14T11:37:14Z</time>
      </trkpt>
      <trkpt lat="43.0522530" lon="-2.3190530">
        <ele>526.2</ele>
        <time>2020-08-14T11:37:16Z</time>
      </trkpt>
      <trkpt lat="43.0524260" lon="-2.3191890">
        <ele>525.2</ele>
        <time>2020-08-14T11:37:18Z</time>
      </trkpt>
      <trkpt lat="43.0525130" lon="-2.3192680">
        <ele>525.0</ele>
        <time>2020-08-14T11:37:19Z</time>
      </trkpt>
      <trkpt lat="43.0526890" lon="-2.3194000">
        <ele>524.4</ele>
        <time>2020-08-14T11:37:21Z</time>
      </trkpt>
      <trkpt lat="43.0527830" lon="-2.3194380">
        <ele>523.8</ele>
        <time>2020-08-14T11:37:22Z</time>
      </trkpt>
      <trkpt lat="43.0530550" lon="-2.3193060">
        <ele>522.4</ele>
        <time>2020-08-14T11:37:25Z</time>
      </trkpt>
      <trkpt lat="43.0531440" lon="-2.3190590">
        <ele>521.2</ele>
        <time>2020-08-14T11:37:27Z</time>
      </trkpt>
      <trkpt lat="43.0531750" lon="-2.3187790">
        <ele>520.0</ele>
        <time>2020-08-14T11:37:29Z</time>
      </trkpt>
      <trkpt lat="43.0532050" lon="-2.3185020">
        <ele>519.2</ele>
        <time>2020-08-14T11:37:31Z</time>
      </trkpt>
      <trkpt lat="43.0532170" lon="-2.3183630">
        <ele>518.8</ele>
        <time>2020-08-14T11:37:32Z</time>
      </trkpt>
      <trkpt lat="43.0532750" lon="-2.3179790">
        <ele>517.4</ele>
        <time>2020-08-14T11:37:35Z</time>
      </trkpt>
      <trkpt lat="43.0534550" lon="-2.3178540">
        <ele>515.8</ele>
        <time>2020-08-14T11:37:38Z</time>
      </trkpt>
      <trkpt lat="43.0536390" lon="-2.3180460">
        <ele>514.6</ele>
        <time>2020-08-14T11:37:41Z</time>
      </trkpt>
      <trkpt lat="43.0538220" lon="-2.3183060">
        <ele>513.8</ele>
        <time>2020-08-14T11:37:44Z</time>
      </trkpt>
      <trkpt lat="43.0541020" lon="-2.3185930">
        <ele>513.4</ele>
        <time>2020-08-14T11:37:48Z</time>
      </trkpt>
      <trkpt lat="43.0544020" lon="-2.3188730">
        <ele>512.4</ele>
        <time>2020-08-14T11:37:52Z</time>
      </trkpt>
      <trkpt lat="43.0547280" lon="-2.3190950">
        <ele>511.6</ele>
        <time>2020-08-14T11:37:56Z</time>
      </trkpt>
      <trkpt lat="43.0548190" lon="-2.3191050">
        <ele>511.2</ele>
        <time>2020-08-14T11:37:57Z</time>
      </trkpt>
      <trkpt lat="43.0550090" lon="-2.3190980">
        <ele>510.2</ele>
        <time>2020-08-14T11:37:59Z</time>
      </trkpt>
      <trkpt lat="43.0551110" lon="-2.3191150">
        <ele>509.8</ele>
        <time>2020-08-14T11:38:00Z</time>
      </trkpt>
      <trkpt lat="43.0553880" lon="-2.3192550">
        <ele>508.8</ele>
        <time>2020-08-14T11:38:03Z</time>
      </trkpt>
      <trkpt lat="43.0556560" lon="-2.3194220">
        <ele>507.4</ele>
        <time>2020-08-14T11:38:06Z</time>
      </trkpt>
      <trkpt lat="43.0559140" lon="-2.3196330">
        <ele>506.4</ele>
        <time>2020-08-14T11:38:09Z</time>
      </trkpt>
      <trkpt lat="43.0561630" lon="-2.3198770">
        <ele>505.2</ele>
        <time>2020-08-14T11:38:12Z</time>
      </trkpt>
      <trkpt lat="43.0565000" lon="-2.3202080">
        <ele>503.8</ele>
        <time>2020-08-14T11:38:16Z</time>
      </trkpt>
      <trkpt lat="43.0566910" lon="-2.3202870">
        <ele>502.6</ele>
        <time>2020-08-14T11:38:18Z</time>
      </trkpt>
      <trkpt lat="43.0568930" lon="-2.3202830">
        <ele>501.6</ele>
        <time>2020-08-14T11:38:20Z</time>
      </trkpt>
      <trkpt lat="43.0570780" lon="-2.3201850">
        <ele>500.0</ele>
        <time>2020-08-14T11:38:22Z</time>
      </trkpt>
      <trkpt lat="43.0571700" lon="-2.3201240">
        <ele>498.8</ele>
        <time>2020-08-14T11:38:23Z</time>
      </trkpt>
      <trkpt lat="43.0572560" lon="-2.3200510">
        <ele>498.2</ele>
        <time>2020-08-14T11:38:24Z</time>
      </trkpt>
      <trkpt lat="43.0573890" lon="-2.3198490">
        <ele>497.4</ele>
        <time>2020-08-14T11:38:26Z</time>
      </trkpt>
      <trkpt lat="43.0574290" lon="-2.3192860">
        <ele>496.6</ele>
        <time>2020-08-14T11:38:30Z</time>
      </trkpt>
      <trkpt lat="43.0574190" lon="-2.3191350">
        <ele>496.2</ele>
        <time>2020-08-14T11:38:31Z</time>
      </trkpt>
      <trkpt lat="43.0574220" lon="-2.3185720">
        <ele>495.0</ele>
        <time>2020-08-14T11:38:35Z</time>
      </trkpt>
      <trkpt lat="43.0574830" lon="-2.3181780">
        <ele>493.8</ele>
        <time>2020-08-14T11:38:38Z</time>
      </trkpt>
      <trkpt lat="43.0575510" lon="-2.3179150">
        <ele>492.6</ele>
        <time>2020-08-14T11:38:40Z</time>
      </trkpt>
      <trkpt lat="43.0575770" lon="-2.3177770">
        <ele>492.2</ele>
        <time>2020-08-14T11:38:41Z</time>
      </trkpt>
      <trkpt lat="43.0575850" lon="-2.3174950">
        <ele>491.4</ele>
        <time>2020-08-14T11:38:43Z</time>
      </trkpt>
      <trkpt lat="43.0575410" lon="-2.3172210">
        <ele>490.6</ele>
        <time>2020-08-14T11:38:45Z</time>
      </trkpt>
      <trkpt lat="43.0575090" lon="-2.3170920">
        <ele>490.2</ele>
        <time>2020-08-14T11:38:46Z</time>
      </trkpt>
      <trkpt lat="43.0573930" lon="-2.3167270">
        <ele>489.4</ele>
        <time>2020-08-14T11:38:49Z</time>
      </trkpt>
      <trkpt lat="43.0572910" lon="-2.3163680">
        <ele>488.2</ele>
        <time>2020-08-14T11:38:52Z</time>
      </trkpt>
      <trkpt lat="43.0572600" lon="-2.3161220">
        <ele>487.6</ele>
        <time>2020-08-14T11:38:54Z</time>
      </trkpt>
      <trkpt lat="43.0572680" lon="-2.3159980">
        <ele>487.0</ele>
        <time>2020-08-14T11:38:55Z</time>
      </trkpt>
      <trkpt lat="43.0573520" lon="-2.3157800">
        <ele>485.6</ele>
        <time>2020-08-14T11:38:57Z</time>
      </trkpt>
      <trkpt lat="43.0576720" lon="-2.3154900">
        <ele>484.6</ele>
        <time>2020-08-14T11:39:01Z</time>
      </trkpt>
      <trkpt lat="43.0579350" lon="-2.3153050">
        <ele>483.2</ele>
        <time>2020-08-14T11:39:04Z</time>
      </trkpt>
      <trkpt lat="43.0581980" lon="-2.3152160">
        <ele>481.6</ele>
        <time>2020-08-14T11:39:07Z</time>
      </trkpt>
      <trkpt lat="43.0582570" lon="-2.3149570">
        <ele>480.6</ele>
        <time>2020-08-14T11:39:10Z</time>
      </trkpt>
      <trkpt lat="43.0580150" lon="-2.3146880">
        <ele>479.6</ele>
        <time>2020-08-14T11:39:14Z</time>
      </trkpt>
      <trkpt lat="43.0579390" lon="-2.3146280">
        <ele>479.6</ele>
        <time>2020-08-14T11:39:15Z</time>
      </trkpt>
      <trkpt lat="43.0576600" lon="-2.3143350">
        <ele>478.0</ele>
        <time>2020-08-14T11:39:19Z</time>
      </trkpt>
      <trkpt lat="43.0575610" lon="-2.3141360">
        <ele>476.6</ele>
        <time>2020-08-14T11:39:21Z</time>
      </trkpt>
      <trkpt lat="43.0575170" lon="-2.3136650">
        <ele>475.4</ele>
        <time>2020-08-14T11:39:25Z</time>
      </trkpt>
      <trkpt lat="43.0575780" lon="-2.3134340">
        <ele>474.6</ele>
        <time>2020-08-14T11:39:27Z</time>
      </trkpt>
      <trkpt lat="43.0575920" lon="-2.3133160">
        <ele>474.2</ele>
        <time>2020-08-14T11:39:28Z</time>
      </trkpt>
      <trkpt lat="43.0575610" lon="-2.3129590">
        <ele>473.0</ele>
        <time>2020-08-14T11:39:31Z</time>
      </trkpt>
      <trkpt lat="43.0574660" lon="-2.3126270">
        <ele>472.0</ele>
        <time>2020-08-14T11:39:34Z</time>
      </trkpt>
      <trkpt lat="43.0573960" lon="-2.3124140">
        <ele>471.0</ele>
        <time>2020-08-14T11:39:36Z</time>
      </trkpt>
      <trkpt lat="43.0573830" lon="-2.3123070">
        <ele>470.6</ele>
        <time>2020-08-14T11:39:37Z</time>
      </trkpt>
      <trkpt lat="43.0575100" lon="-2.3120850">
        <ele>469.6</ele>
        <time>2020-08-14T11:39:40Z</time>
      </trkpt>
      <trkpt lat="43.0577540" lon="-2.3120510">
        <ele>468.4</ele>
        <time>2020-08-14T11:39:43Z</time>
      </trkpt>
      <trkpt lat="43.0581770" lon="-2.3120070">
        <ele>467.0</ele>
        <time>2020-08-14T11:39:48Z</time>
      </trkpt>
      <trkpt lat="43.0583450" lon="-2.3119590">
        <ele>466.4</ele>
        <time>2020-08-14T11:39:50Z</time>
      </trkpt>
      <trkpt lat="43.0585030" lon="-2.3118620">
        <ele>465.8</ele>
        <time>2020-08-14T11:39:52Z</time>
      </trkpt>
      <trkpt lat="43.0588800" lon="-2.3115020">
        <ele>464.8</ele>
        <time>2020-08-14T11:39:57Z</time>
      </trkpt>
      <trkpt lat="43.0588140" lon="-2.3110220">
        <ele>463.6</ele>
        <time>2020-08-14T11:40:02Z</time>
      </trkpt>
      <trkpt lat="43.0586710" lon="-2.3108900">
        <ele>463.0</ele>
        <time>2020-08-14T11:40:04Z</time>
      </trkpt>
      <trkpt lat="43.0586000" lon="-2.3108170">
        <ele>462.2</ele>
        <time>2020-08-14T11:40:05Z</time>
      </trkpt>
      <trkpt lat="43.0584480" lon="-2.3106770">
        <ele>460.6</ele>
        <time>2020-08-14T11:40:07Z</time>
      </trkpt>
      <trkpt lat="43.0582040" lon="-2.3104850">
        <ele>459.2</ele>
        <time>2020-08-14T11:40:10Z</time>
      </trkpt>
      <trkpt lat="43.0581240" lon="-2.3104140">
        <ele>458.8</ele>
        <time>2020-08-14T11:40:11Z</time>
      </trkpt>
      <trkpt lat="43.0579780" lon="-2.3102500">
        <ele>457.8</ele>
        <time>2020-08-14T11:40:13Z</time>
      </trkpt>
      <trkpt lat="43.0577720" lon="-2.3099720">
        <ele>456.8</ele>
        <time>2020-08-14T11:40:16Z</time>
      </trkpt>
      <trkpt lat="43.0577140" lon="-2.3098660">
        <ele>456.4</ele>
        <time>2020-08-14T11:40:17Z</time>
      </trkpt>
      <trkpt lat="43.0576250" lon="-2.3096230">
        <ele>455.6</ele>
        <time>2020-08-14T11:40:19Z</time>
      </trkpt>
      <trkpt lat="43.0575920" lon="-2.3094980">
        <ele>455.4</ele>
        <time>2020-08-14T11:40:20Z</time>
      </trkpt>
      <trkpt lat="43.0575220" lon="-2.3092530">
        <ele>454.8</ele>
        <time>2020-08-14T11:40:22Z</time>
      </trkpt>
      <trkpt lat="43.0573900" lon="-2.3088990">
        <ele>453.2</ele>
        <time>2020-08-14T11:40:25Z</time>
      </trkpt>
      <trkpt lat="43.0573940" lon="-2.3085140">
        <ele>452.0</ele>
        <time>2020-08-14T11:40:28Z</time>
      </trkpt>
      <trkpt lat="43.0574750" lon="-2.3081300">
        <ele>451.0</ele>
        <time>2020-08-14T11:40:31Z</time>
      </trkpt>
      <trkpt lat="43.0572140" lon="-2.3076100">
        <ele>450.0</ele>
        <time>2020-08-14T11:40:36Z</time>
      </trkpt>
      <trkpt lat="43.0571520" lon="-2.3075140">
        <ele>449.8</ele>
        <time>2020-08-14T11:40:37Z</time>
      </trkpt>
      <trkpt lat="43.0570790" lon="-2.3071450">
        <ele>448.6</ele>
        <time>2020-08-14T11:40:40Z</time>
      </trkpt>
      <trkpt lat="43.0571030" lon="-2.3068970">
        <ele>447.2</ele>
        <time>2020-08-14T11:40:42Z</time>
      </trkpt>
      <trkpt lat="43.0572750" lon="-2.3064820">
        <ele>445.4</ele>
        <time>2020-08-14T11:40:46Z</time>
      </trkpt>
      <trkpt lat="43.0574250" lon="-2.3063410">
        <ele>444.4</ele>
        <time>2020-08-14T11:40:48Z</time>
      </trkpt>
      <trkpt lat="43.0577920" lon="-2.3063420">
        <ele>443.0</ele>
        <time>2020-08-14T11:40:52Z</time>
      </trkpt>
      <trkpt lat="43.0580300" lon="-2.3065260">
        <ele>441.6</ele>
        <time>2020-08-14T11:40:55Z</time>
      </trkpt>
      <trkpt lat="43.0581090" lon="-2.3065800">
        <ele>441.2</ele>
        <time>2020-08-14T11:40:56Z</time>
      </trkpt>
      <trkpt lat="43.0584540" lon="-2.3065410">
        <ele>440.4</ele>
        <time>2020-08-14T11:41:00Z</time>
      </trkpt>
      <trkpt lat="43.0585420" lon="-2.3065020">
        <ele>440.4</ele>
        <time>2020-08-14T11:41:01Z</time>
      </trkpt>
      <trkpt lat="43.0586280" lon="-2.3064820">
        <ele>440.0</ele>
        <time>2020-08-14T11:41:02Z</time>
      </trkpt>
      <trkpt lat="43.0588100" lon="-2.3065240">
        <ele>439.4</ele>
        <time>2020-08-14T11:41:04Z</time>
      </trkpt>
      <trkpt lat="43.0592230" lon="-2.3069080">
        <ele>438.4</ele>
        <time>2020-08-14T11:41:09Z</time>
      </trkpt>
      <trkpt lat="43.0592980" lon="-2.3070060">
        <ele>438.2</ele>
        <time>2020-08-14T11:41:10Z</time>
      </trkpt>
      <trkpt lat="43.0595290" lon="-2.3072140">
        <ele>438.0</ele>
        <time>2020-08-14T11:41:13Z</time>
      </trkpt>
      <trkpt lat="43.0596830" lon="-2.3071160">
        <ele>436.8</ele>
        <time>2020-08-14T11:41:15Z</time>
      </trkpt>
      <trkpt lat="43.0597310" lon="-2.3070210">
        <ele>435.6</ele>
        <time>2020-08-14T11:41:16Z</time>
      </trkpt>
      <trkpt lat="43.0598140" lon="-2.3068070">
        <ele>434.6</ele>
        <time>2020-08-14T11:41:18Z</time>
      </trkpt>
      <trkpt lat="43.0598580" lon="-2.3066950">
        <ele>434.2</ele>
        <time>2020-08-14T11:41:19Z</time>
      </trkpt>
      <trkpt lat="43.0600030" lon="-2.3063950">
        <ele>433.2</ele>
        <time>2020-08-14T11:41:22Z</time>
      </trkpt>
      <trkpt lat="43.0601670" lon="-2.3061500">
        <ele>431.8</ele>
        <time>2020-08-14T11:41:25Z</time>
      </trkpt>
      <trkpt lat="43.0603610" lon="-2.3059610">
        <ele>430.6</ele>
        <time>2020-08-14T11:41:28Z</time>
      </trkpt>
      <trkpt lat="43.0606230" lon="-2.3058330">
        <ele>429.2</ele>
        <time>2020-08-14T11:41:31Z</time>
      </trkpt>
      <trkpt lat="43.0608150" lon="-2.3057970">
        <ele>428.4</ele>
        <time>2020-08-14T11:41:33Z</time>
      </trkpt>
      <trkpt lat="43.0609060" lon="-2.3057860">
        <ele>428.0</ele>
        <time>2020-08-14T11:41:34Z</time>
      </trkpt>
      <trkpt lat="43.0611970" lon="-2.3057680">
        <ele>426.6</ele>
        <time>2020-08-14T11:41:37Z</time>
      </trkpt>
      <trkpt lat="43.0613800" lon="-2.3057450">
        <ele>425.8</ele>
        <time>2020-08-14T11:41:39Z</time>
      </trkpt>
      <trkpt lat="43.0614570" lon="-2.3056910">
        <ele>425.2</ele>
        <time>2020-08-14T11:41:40Z</time>
      </trkpt>
      <trkpt lat="43.0615440" lon="-2.3053660">
        <ele>423.8</ele>
        <time>2020-08-14T11:41:43Z</time>
      </trkpt>
      <trkpt lat="43.0615440" lon="-2.3052430">
        <ele>423.6</ele>
        <time>2020-08-14T11:41:44Z</time>
      </trkpt>
      <trkpt lat="43.0615530" lon="-2.3051210">
        <ele>423.6</ele>
        <time>2020-08-14T11:41:45Z</time>
      </trkpt>
      <trkpt lat="43.0615140" lon="-2.3047650">
        <ele>423.0</ele>
        <time>2020-08-14T11:41:48Z</time>
      </trkpt>
      <trkpt lat="43.0611900" lon="-2.3045850">
        <ele>421.4</ele>
        <time>2020-08-14T11:41:52Z</time>
      </trkpt>
      <trkpt lat="43.0610970" lon="-2.3045720">
        <ele>420.8</ele>
        <time>2020-08-14T11:41:53Z</time>
      </trkpt>
      <trkpt lat="43.0609020" lon="-2.3045530">
        <ele>420.0</ele>
        <time>2020-08-14T11:41:55Z</time>
      </trkpt>
      <trkpt lat="43.0606120" lon="-2.3045450">
        <ele>419.0</ele>
        <time>2020-08-14T11:41:58Z</time>
      </trkpt>
      <trkpt lat="43.0604140" lon="-2.3045190">
        <ele>418.2</ele>
        <time>2020-08-14T11:42:00Z</time>
      </trkpt>
      <trkpt lat="43.0603170" lon="-2.3044860">
        <ele>417.8</ele>
        <time>2020-08-14T11:42:01Z</time>
      </trkpt>
      <trkpt lat="43.0600480" lon="-2.3043040">
        <ele>416.4</ele>
        <time>2020-08-14T11:42:04Z</time>
      </trkpt>
      <trkpt lat="43.0597740" lon="-2.3041150">
        <ele>415.4</ele>
        <time>2020-08-14T11:42:07Z</time>
      </trkpt>
      <trkpt lat="43.0596080" lon="-2.3039570">
        <ele>414.6</ele>
        <time>2020-08-14T11:42:09Z</time>
      </trkpt>
      <trkpt lat="43.0595440" lon="-2.3038600">
        <ele>414.0</ele>
        <time>2020-08-14T11:42:10Z</time>
      </trkpt>
      <trkpt lat="43.0594170" lon="-2.3035090">
        <ele>412.4</ele>
        <time>2020-08-14T11:42:13Z</time>
      </trkpt>
      <trkpt lat="43.0594100" lon="-2.3032420">
        <ele>411.0</ele>
        <time>2020-08-14T11:42:15Z</time>
      </trkpt>
      <trkpt lat="43.0594210" lon="-2.3031050">
        <ele>410.4</ele>
        <time>2020-08-14T11:42:16Z</time>
      </trkpt>
      <trkpt lat="43.0594220" lon="-2.3029700">
        <ele>409.8</ele>
        <time>2020-08-14T11:42:17Z</time>
      </trkpt>
      <trkpt lat="43.0592600" lon="-2.3025140">
        <ele>408.8</ele>
        <time>2020-08-14T11:42:21Z</time>
      </trkpt>
      <trkpt lat="43.0591160" lon="-2.3023740">
        <ele>408.4</ele>
        <time>2020-08-14T11:42:23Z</time>
      </trkpt>
      <trkpt lat="43.0589630" lon="-2.3022460">
        <ele>407.2</ele>
        <time>2020-08-14T11:42:25Z</time>
      </trkpt>
      <trkpt lat="43.0587990" lon="-2.3021410">
        <ele>406.4</ele>
        <time>2020-08-14T11:42:27Z</time>
      </trkpt>
      <trkpt lat="43.0584390" lon="-2.3022310">
        <ele>405.2</ele>
        <time>2020-08-14T11:42:31Z</time>
      </trkpt>
      <trkpt lat="43.0582170" lon="-2.3024560">
        <ele>404.2</ele>
        <time>2020-08-14T11:42:34Z</time>
      </trkpt>
      <trkpt lat="43.0580060" lon="-2.3026870">
        <ele>403.0</ele>
        <time>2020-08-14T11:42:37Z</time>
      </trkpt>
      <trkpt lat="43.0577740" lon="-2.3028570">
        <ele>402.2</ele>
        <time>2020-08-14T11:42:40Z</time>
      </trkpt>
      <trkpt lat="43.0576950" lon="-2.3028980">
        <ele>402.0</ele>
        <time>2020-08-14T11:42:41Z</time>
      </trkpt>
      <trkpt lat="43.0575170" lon="-2.3029500">
        <ele>400.8</ele>
        <time>2020-08-14T11:42:43Z</time>
      </trkpt>
      <trkpt lat="43.0572440" lon="-2.3030040">
        <ele>399.4</ele>
        <time>2020-08-14T11:42:46Z</time>
      </trkpt>
      <trkpt lat="43.0571520" lon="-2.3030060">
        <ele>399.0</ele>
        <time>2020-08-14T11:42:47Z</time>
      </trkpt>
      <trkpt lat="43.0569690" lon="-2.3029570">
        <ele>398.4</ele>
        <time>2020-08-14T11:42:49Z</time>
      </trkpt>
      <trkpt lat="43.0566120" lon="-2.3028460">
        <ele>397.2</ele>
        <time>2020-08-14T11:42:53Z</time>
      </trkpt>
      <trkpt lat="43.0563370" lon="-2.3027940">
        <ele>396.0</ele>
        <time>2020-08-14T11:42:56Z</time>
      </trkpt>
      <trkpt lat="43.0560130" lon="-2.3025710">
        <ele>394.8</ele>
        <time>2020-08-14T11:43:00Z</time>
      </trkpt>
      <trkpt lat="43.0559360" lon="-2.3025000">
        <ele>394.6</ele>
        <time>2020-08-14T11:43:01Z</time>
      </trkpt>
      <trkpt lat="43.0557090" lon="-2.3022710">
        <ele>394.0</ele>
        <time>2020-08-14T11:43:04Z</time>
      </trkpt>
      <trkpt lat="43.0554360" lon="-2.3019020">
        <ele>392.8</ele>
        <time>2020-08-14T11:43:08Z</time>
      </trkpt>
      <trkpt lat="43.0553810" lon="-2.3017860">
        <ele>392.6</ele>
        <time>2020-08-14T11:43:09Z</time>
      </trkpt>
      <trkpt lat="43.0553090" lon="-2.3013830">
        <ele>391.4</ele>
        <time>2020-08-14T11:43:12Z</time>
      </trkpt>
      <trkpt lat="43.0553740" lon="-2.3011170">
        <ele>390.4</ele>
        <time>2020-08-14T11:43:14Z</time>
      </trkpt>
      <trkpt lat="43.0555980" lon="-2.3008650">
        <ele>389.2</ele>
        <time>2020-08-14T11:43:17Z</time>
      </trkpt>
      <trkpt lat="43.0557970" lon="-2.3005540">
        <ele>387.6</ele>
        <time>2020-08-14T11:43:20Z</time>
      </trkpt>
      <trkpt lat="43.0558650" lon="-2.3003070">
        <ele>386.4</ele>
        <time>2020-08-14T11:43:22Z</time>
      </trkpt>
      <trkpt lat="43.0558910" lon="-2.3001850">
        <ele>386.0</ele>
        <time>2020-08-14T11:43:23Z</time>
      </trkpt>
      <trkpt lat="43.0559570" lon="-2.2999500">
        <ele>384.8</ele>
        <time>2020-08-14T11:43:25Z</time>
      </trkpt>
      <trkpt lat="43.0560700" lon="-2.2997350">
        <ele>383.6</ele>
        <time>2020-08-14T11:43:27Z</time>
      </trkpt>
      <trkpt lat="43.0562130" lon="-2.2995430">
        <ele>383.2</ele>
        <time>2020-08-14T11:43:29Z</time>
      </trkpt>
      <trkpt lat="43.0564360" lon="-2.2992740">
        <ele>382.6</ele>
        <time>2020-08-14T11:43:32Z</time>
      </trkpt>
      <trkpt lat="43.0566350" lon="-2.2989970">
        <ele>382.0</ele>
        <time>2020-08-14T11:43:35Z</time>
      </trkpt>
      <trkpt lat="43.0566780" lon="-2.2988830">
        <ele>381.4</ele>
        <time>2020-08-14T11:43:36Z</time>
      </trkpt>
      <trkpt lat="43.0566920" lon="-2.2986320">
        <ele>380.2</ele>
        <time>2020-08-14T11:43:38Z</time>
      </trkpt>
      <trkpt lat="43.0566030" lon="-2.2984170">
        <ele>379.0</ele>
        <time>2020-08-14T11:43:40Z</time>
      </trkpt>
      <trkpt lat="43.0563540" lon="-2.2983310">
        <ele>378.0</ele>
        <time>2020-08-14T11:43:43Z</time>
      </trkpt>
      <trkpt lat="43.0562570" lon="-2.2983780">
        <ele>377.6</ele>
        <time>2020-08-14T11:43:44Z</time>
      </trkpt>
      <trkpt lat="43.0561630" lon="-2.2984400">
        <ele>377.4</ele>
        <time>2020-08-14T11:43:45Z</time>
      </trkpt>
      <trkpt lat="43.0558800" lon="-2.2986350">
        <ele>376.6</ele>
        <time>2020-08-14T11:43:48Z</time>
      </trkpt>
      <trkpt lat="43.0556760" lon="-2.2987170">
        <ele>375.8</ele>
        <time>2020-08-14T11:43:50Z</time>
      </trkpt>
      <trkpt lat="43.0555720" lon="-2.2987290">
        <ele>375.2</ele>
        <time>2020-08-14T11:43:51Z</time>
      </trkpt>
      <trkpt lat="43.0553700" lon="-2.2987230">
        <ele>374.0</ele>
        <time>2020-08-14T11:43:53Z</time>
      </trkpt>
      <trkpt lat="43.0550600" lon="-2.2986420">
        <ele>373.2</ele>
        <time>2020-08-14T11:43:56Z</time>
      </trkpt>
      <trkpt lat="43.0549620" lon="-2.2985920">
        <ele>372.6</ele>
        <time>2020-08-14T11:43:57Z</time>
      </trkpt>
      <trkpt lat="43.0546660" lon="-2.2984380">
        <ele>371.6</ele>
        <time>2020-08-14T11:44:00Z</time>
      </trkpt>
      <trkpt lat="43.0542720" lon="-2.2985190">
        <ele>370.6</ele>
        <time>2020-08-14T11:44:04Z</time>
      </trkpt>
      <trkpt lat="43.0541770" lon="-2.2985510">
        <ele>370.2</ele>
        <time>2020-08-14T11:44:05Z</time>
      </trkpt>
      <trkpt lat="43.0540830" lon="-2.2985650">
        <ele>369.6</ele>
        <time>2020-08-14T11:44:06Z</time>
      </trkpt>
      <trkpt lat="43.0538190" lon="-2.2984020">
        <ele>368.2</ele>
        <time>2020-08-14T11:44:09Z</time>
      </trkpt>
      <trkpt lat="43.0536700" lon="-2.2980450">
        <ele>366.8</ele>
        <time>2020-08-14T11:44:12Z</time>
      </trkpt>
      <trkpt lat="43.0533590" lon="-2.2977270">
        <ele>365.4</ele>
        <time>2020-08-14T11:44:16Z</time>
      </trkpt>
      <trkpt lat="43.0531660" lon="-2.2976440">
        <ele>364.4</ele>
        <time>2020-08-14T11:44:18Z</time>
      </trkpt>
      <trkpt lat="43.0530940" lon="-2.2972810">
        <ele>363.2</ele>
        <time>2020-08-14T11:44:21Z</time>
      </trkpt>
      <trkpt lat="43.0532090" lon="-2.2968690">
        <ele>362.2</ele>
        <time>2020-08-14T11:44:24Z</time>
      </trkpt>
      <trkpt lat="43.0532390" lon="-2.2967300">
        <ele>362.0</ele>
        <time>2020-08-14T11:44:25Z</time>
      </trkpt>
      <trkpt lat="43.0532570" lon="-2.2965950">
        <ele>361.8</ele>
        <time>2020-08-14T11:44:26Z</time>
      </trkpt>
      <trkpt lat="43.0532780" lon="-2.2961940">
        <ele>360.8</ele>
        <time>2020-08-14T11:44:29Z</time>
      </trkpt>
      <trkpt lat="43.0533060" lon="-2.2957880">
        <ele>359.4</ele>
        <time>2020-08-14T11:44:32Z</time>
      </trkpt>
      <trkpt lat="43.0533060" lon="-2.2956520">
        <ele>359.0</ele>
        <time>2020-08-14T11:44:33Z</time>
      </trkpt>
      <trkpt lat="43.0532400" lon="-2.2954080">
        <ele>358.2</ele>
        <time>2020-08-14T11:44:35Z</time>
      </trkpt>
      <trkpt lat="43.0530220" lon="-2.2952480">
        <ele>357.2</ele>
        <time>2020-08-14T11:44:38Z</time>
      </trkpt>
      <trkpt lat="43.0528550" lon="-2.2952160">
        <ele>356.4</ele>
        <time>2020-08-14T11:44:40Z</time>
      </trkpt>
      <trkpt lat="43.0527630" lon="-2.2952030">
        <ele>356.0</ele>
        <time>2020-08-14T11:44:41Z</time>
      </trkpt>
      <trkpt lat="43.0522280" lon="-2.2951410">
        <ele>355.2</ele>
        <time>2020-08-14T11:44:47Z</time>
      </trkpt>
      <trkpt lat="43.0519830" lon="-2.2945220">
        <ele>355.2</ele>
        <time>2020-08-14T11:44:54Z</time>
      </trkpt>
      <trkpt lat="43.0519880" lon="-2.2944080">
        <ele>355.2</ele>
        <time>2020-08-14T11:44:55Z</time>
      </trkpt>
      <trkpt lat="43.0519880" lon="-2.2942940">
        <ele>355.2</ele>
        <time>2020-08-14T11:44:56Z</time>
      </trkpt>
      <trkpt lat="43.0519040" lon="-2.2938650">
        <ele>355.2</ele>
        <time>2020-08-14T11:45:00Z</time>
      </trkpt>
      <trkpt lat="43.0518110" lon="-2.2935530">
        <ele>354.2</ele>
        <time>2020-08-14T11:45:03Z</time>
      </trkpt>
      <trkpt lat="43.0516800" lon="-2.2931340">
        <ele>353.0</ele>
        <time>2020-08-14T11:45:07Z</time>
      </trkpt>
      <trkpt lat="43.0516380" lon="-2.2930380">
        <ele>352.6</ele>
        <time>2020-08-14T11:45:08Z</time>
      </trkpt>
      <trkpt lat="43.0515230" lon="-2.2928750">
        <ele>351.8</ele>
        <time>2020-08-14T11:45:10Z</time>
      </trkpt>
      <trkpt lat="43.0512850" lon="-2.2925490">
        <ele>350.6</ele>
        <time>2020-08-14T11:45:14Z</time>
      </trkpt>
      <trkpt lat="43.0512000" lon="-2.2922430">
        <ele>349.4</ele>
        <time>2020-08-14T11:45:17Z</time>
      </trkpt>
      <trkpt lat="43.0511910" lon="-2.2921470">
        <ele>349.2</ele>
        <time>2020-08-14T11:45:18Z</time>
      </trkpt>
      <trkpt lat="43.0511280" lon="-2.2914000">
        <ele>350.2</ele>
        <time>2020-08-14T11:45:29Z</time>
      </trkpt>
      <trkpt lat="43.0511250" lon="-2.2913390">
        <ele>350.6</ele>
        <time>2020-08-14T11:45:30Z</time>
      </trkpt>
      <trkpt lat="43.0511160" lon="-2.2912790">
        <ele>351.2</ele>
        <time>2020-08-14T11:45:31Z</time>
      </trkpt>
      <trkpt lat="43.0511040" lon="-2.2911590">
        <ele>352.0</ele>
        <time>2020-08-14T11:45:33Z</time>
      </trkpt>
      <trkpt lat="43.0510910" lon="-2.2909160">
        <ele>353.0</ele>
        <time>2020-08-14T11:45:37Z</time>
      </trkpt>
      <trkpt lat="43.0510730" lon="-2.2907530">
        <ele>354.0</ele>
        <time>2020-08-14T11:45:40Z</time>
      </trkpt>
      <trkpt lat="43.0510410" lon="-2.2905450">
        <ele>355.4</ele>
        <time>2020-08-14T11:45:44Z</time>
      </trkpt>
      <trkpt lat="43.0510090" lon="-2.2903920">
        <ele>356.6</ele>
        <time>2020-08-14T11:45:47Z</time>
      </trkpt>
      <trkpt lat="43.0509880" lon="-2.2902940">
        <ele>357.0</ele>
        <time>2020-08-14T11:45:49Z</time>
      </trkpt>
      <trkpt lat="43.0509600" lon="-2.2901490">
        <ele>357.6</ele>
        <time>2020-08-14T11:45:52Z</time>
      </trkpt>
      <trkpt lat="43.0509210" lon="-2.2899630">
        <ele>358.8</ele>
        <time>2020-08-14T11:45:56Z</time>
      </trkpt>
      <trkpt lat="43.0508610" lon="-2.2897400">
        <ele>360.0</ele>
        <time>2020-08-14T11:46:01Z</time>
      </trkpt>
      <trkpt lat="43.0507890" lon="-2.2895790">
        <ele>361.2</ele>
        <time>2020-08-14T11:46:05Z</time>
      </trkpt>
      <trkpt lat="43.0506630" lon="-2.2894220">
        <ele>362.4</ele>
        <time>2020-08-14T11:46:10Z</time>
      </trkpt>
      <trkpt lat="43.0504910" lon="-2.2893670">
        <ele>363.8</ele>
        <time>2020-08-14T11:46:15Z</time>
      </trkpt>
      <trkpt lat="43.0503560" lon="-2.2893370">
        <ele>364.8</ele>
        <time>2020-08-14T11:46:19Z</time>
      </trkpt>
      <trkpt lat="43.0502700" lon="-2.2892540">
        <ele>366.2</ele>
        <time>2020-08-14T11:46:22Z</time>
      </trkpt>
      <trkpt lat="43.0502070" lon="-2.2891290">
        <ele>367.4</ele>
        <time>2020-08-14T11:46:25Z</time>
      </trkpt>
      <trkpt lat="43.0501340" lon="-2.2889000">
        <ele>368.8</ele>
        <time>2020-08-14T11:46:30Z</time>
      </trkpt>
      <trkpt lat="43.0500710" lon="-2.2886300">
        <ele>369.8</ele>
        <time>2020-08-14T11:46:36Z</time>
      </trkpt>
      <trkpt lat="43.0500480" lon="-2.2884190">
        <ele>371.0</ele>
        <time>2020-08-14T11:46:41Z</time>
      </trkpt>
      <trkpt lat="43.0500510" lon="-2.2882760">
        <ele>372.4</ele>
        <time>2020-08-14T11:46:45Z</time>
      </trkpt>
      <trkpt lat="43.0500600" lon="-2.2878540">
        <ele>373.4</ele>
        <time>2020-08-14T11:46:55Z</time>
      </trkpt>
      <trkpt lat="43.0500640" lon="-2.2877500">
        <ele>373.6</ele>
        <time>2020-08-14T11:46:57Z</time>
      </trkpt>
      <trkpt lat="43.0500110" lon="-2.2873480">
        <ele>374.6</ele>
        <time>2020-08-14T11:47:05Z</time>
      </trkpt>
      <trkpt lat="43.0499640" lon="-2.2871130">
        <ele>376.0</ele>
        <time>2020-08-14T11:47:10Z</time>
      </trkpt>
      <trkpt lat="43.0499320" lon="-2.2868770">
        <ele>377.0</ele>
        <time>2020-08-14T11:47:15Z</time>
      </trkpt>
      <trkpt lat="43.0499360" lon="-2.2866390">
        <ele>378.4</ele>
        <time>2020-08-14T11:47:20Z</time>
      </trkpt>
      <trkpt lat="43.0500110" lon="-2.2863260">
        <ele>379.4</ele>
        <time>2020-08-14T11:47:27Z</time>
      </trkpt>
      <trkpt lat="43.0501900" lon="-2.2859890">
        <ele>380.6</ele>
        <time>2020-08-14T11:47:36Z</time>
      </trkpt>
      <trkpt lat="43.0503340" lon="-2.2858970">
        <ele>381.6</ele>
        <time>2020-08-14T11:47:41Z</time>
      </trkpt>
      <trkpt lat="43.0505280" lon="-2.2859370">
        <ele>383.0</ele>
        <time>2020-08-14T11:47:47Z</time>
      </trkpt>
      <trkpt lat="43.0506930" lon="-2.2860300">
        <ele>384.2</ele>
        <time>2020-08-14T11:47:52Z</time>
      </trkpt>
      <trkpt lat="43.0508590" lon="-2.2861310">
        <ele>385.4</ele>
        <time>2020-08-14T11:47:57Z</time>
      </trkpt>
      <trkpt lat="43.0510720" lon="-2.2861990">
        <ele>386.6</ele>
        <time>2020-08-14T11:48:03Z</time>
      </trkpt>
      <trkpt lat="43.0512440" lon="-2.2862520">
        <ele>387.6</ele>
        <time>2020-08-14T11:48:08Z</time>
      </trkpt>
      <trkpt lat="43.0513690" lon="-2.2862870">
        <ele>388.2</ele>
        <time>2020-08-14T11:48:11Z</time>
      </trkpt>
      <trkpt lat="43.0514550" lon="-2.2862960">
        <ele>388.8</ele>
        <time>2020-08-14T11:48:13Z</time>
      </trkpt>
      <trkpt lat="43.0516090" lon="-2.2862540">
        <ele>389.8</ele>
        <time>2020-08-14T11:48:17Z</time>
      </trkpt>
      <trkpt lat="43.0517460" lon="-2.2860860">
        <ele>390.8</ele>
        <time>2020-08-14T11:48:22Z</time>
      </trkpt>
      <trkpt lat="43.0518460" lon="-2.2858640">
        <ele>392.0</ele>
        <time>2020-08-14T11:48:27Z</time>
      </trkpt>
      <trkpt lat="43.0519190" lon="-2.2856940">
        <ele>393.2</ele>
        <time>2020-08-14T11:48:31Z</time>
      </trkpt>
      <trkpt lat="43.0519990" lon="-2.2855550">
        <ele>394.4</ele>
        <time>2020-08-14T11:48:35Z</time>
      </trkpt>
      <trkpt lat="43.0520860" lon="-2.2853530">
        <ele>395.4</ele>
        <time>2020-08-14T11:48:40Z</time>
      </trkpt>
      <trkpt lat="43.0521610" lon="-2.2851970">
        <ele>396.4</ele>
        <time>2020-08-14T11:48:44Z</time>
      </trkpt>
      <trkpt lat="43.0522510" lon="-2.2849980">
        <ele>397.8</ele>
        <time>2020-08-14T11:48:49Z</time>
      </trkpt>
      <trkpt lat="43.0522870" lon="-2.2848710">
        <ele>398.8</ele>
        <time>2020-08-14T11:48:52Z</time>
      </trkpt>
      <trkpt lat="43.0523890" lon="-2.2846320">
        <ele>400.0</ele>
        <time>2020-08-14T11:48:58Z</time>
      </trkpt>
      <trkpt lat="43.0524520" lon="-2.2844230">
        <ele>401.0</ele>
        <time>2020-08-14T11:49:03Z</time>
      </trkpt>
      <trkpt lat="43.0525060" lon="-2.2841900">
        <ele>402.0</ele>
        <time>2020-08-14T11:49:08Z</time>
      </trkpt>
      <trkpt lat="43.0525140" lon="-2.2839320">
        <ele>403.0</ele>
        <time>2020-08-14T11:49:13Z</time>
      </trkpt>
      <trkpt lat="43.0525160" lon="-2.2837240">
        <ele>404.2</ele>
        <time>2020-08-14T11:49:18Z</time>
      </trkpt>
      <trkpt lat="43.0524970" lon="-2.2835650">
        <ele>405.4</ele>
        <time>2020-08-14T11:49:22Z</time>
      </trkpt>
      <trkpt lat="43.0524760" lon="-2.2834140">
        <ele>406.4</ele>
        <time>2020-08-14T11:49:26Z</time>
      </trkpt>
      <trkpt lat="43.0524610" lon="-2.2832230">
        <ele>407.4</ele>
        <time>2020-08-14T11:49:31Z</time>
      </trkpt>
      <trkpt lat="43.0524430" lon="-2.2830390">
        <ele>408.6</ele>
        <time>2020-08-14T11:49:36Z</time>
      </trkpt>
      <trkpt lat="43.0523980" lon="-2.2828270">
        <ele>409.6</ele>
        <time>2020-08-14T11:49:41Z</time>
      </trkpt>
      <trkpt lat="43.0523020" lon="-2.2825620">
        <ele>410.8</ele>
        <time>2020-08-14T11:49:47Z</time>
      </trkpt>
      <trkpt lat="43.0521970" lon="-2.2822920">
        <ele>411.8</ele>
        <time>2020-08-14T11:49:53Z</time>
      </trkpt>
      <trkpt lat="43.0521070" lon="-2.2820810">
        <ele>413.0</ele>
        <time>2020-08-14T11:49:58Z</time>
      </trkpt>
      <trkpt lat="43.0520230" lon="-2.2819330">
        <ele>414.2</ele>
        <time>2020-08-14T11:50:02Z</time>
      </trkpt>
      <trkpt lat="43.0518880" lon="-2.2817750">
        <ele>415.2</ele>
        <time>2020-08-14T11:50:07Z</time>
      </trkpt>
      <trkpt lat="43.0517460" lon="-2.2816220">
        <ele>416.4</ele>
        <time>2020-08-14T11:50:12Z</time>
      </trkpt>
      <trkpt lat="43.0516250" lon="-2.2815090">
        <ele>417.4</ele>
        <time>2020-08-14T11:50:16Z</time>
      </trkpt>
      <trkpt lat="43.0514750" lon="-2.2813600">
        <ele>418.6</ele>
        <time>2020-08-14T11:50:21Z</time>
      </trkpt>
      <trkpt lat="43.0513270" lon="-2.2812290">
        <ele>419.6</ele>
        <time>2020-08-14T11:50:26Z</time>
      </trkpt>
      <trkpt lat="43.0511850" lon="-2.2811010">
        <ele>420.6</ele>
        <time>2020-08-14T11:50:31Z</time>
      </trkpt>
      <trkpt lat="43.0510640" lon="-2.2810200">
        <ele>422.2</ele>
        <time>2020-08-14T11:50:35Z</time>
      </trkpt>
      <trkpt lat="43.0509240" lon="-2.2808970">
        <ele>423.6</ele>
        <time>2020-08-14T11:50:40Z</time>
      </trkpt>
      <trkpt lat="43.0507070" lon="-2.2808080">
        <ele>424.8</ele>
        <time>2020-08-14T11:50:47Z</time>
      </trkpt>
      <trkpt lat="43.0505130" lon="-2.2807960">
        <ele>425.8</ele>
        <time>2020-08-14T11:50:53Z</time>
      </trkpt>
      <trkpt lat="43.0503910" lon="-2.2807960">
        <ele>426.8</ele>
        <time>2020-08-14T11:50:57Z</time>
      </trkpt>
      <trkpt lat="43.0502600" lon="-2.2807870">
        <ele>428.0</ele>
        <time>2020-08-14T11:51:01Z</time>
      </trkpt>
      <trkpt lat="43.0500920" lon="-2.2807760">
        <ele>429.0</ele>
        <time>2020-08-14T11:51:06Z</time>
      </trkpt>
      <trkpt lat="43.0499670" lon="-2.2807740">
        <ele>430.2</ele>
        <time>2020-08-14T11:51:10Z</time>
      </trkpt>
      <trkpt lat="43.0498170" lon="-2.2807580">
        <ele>431.2</ele>
        <time>2020-08-14T11:51:15Z</time>
      </trkpt>
      <trkpt lat="43.0497090" lon="-2.2806990">
        <ele>432.2</ele>
        <time>2020-08-14T11:51:19Z</time>
      </trkpt>
      <trkpt lat="43.0496380" lon="-2.2805580">
        <ele>433.2</ele>
        <time>2020-08-14T11:51:23Z</time>
      </trkpt>
      <trkpt lat="43.0496470" lon="-2.2803410">
        <ele>434.2</ele>
        <time>2020-08-14T11:51:28Z</time>
      </trkpt>
      <trkpt lat="43.0497310" lon="-2.2802180">
        <ele>435.4</ele>
        <time>2020-08-14T11:51:32Z</time>
      </trkpt>
      <trkpt lat="43.0498480" lon="-2.2801360">
        <ele>436.6</ele>
        <time>2020-08-14T11:51:36Z</time>
      </trkpt>
      <trkpt lat="43.0499480" lon="-2.2800810">
        <ele>437.8</ele>
        <time>2020-08-14T11:51:39Z</time>
      </trkpt>
      <trkpt lat="43.0500490" lon="-2.2800330">
        <ele>439.2</ele>
        <time>2020-08-14T11:51:42Z</time>
      </trkpt>
      <trkpt lat="43.0501800" lon="-2.2799440">
        <ele>440.4</ele>
        <time>2020-08-14T11:51:46Z</time>
      </trkpt>
      <trkpt lat="43.0503060" lon="-2.2797790">
        <ele>441.4</ele>
        <time>2020-08-14T11:51:51Z</time>
      </trkpt>
      <trkpt lat="43.0504510" lon="-2.2796130">
        <ele>442.6</ele>
        <time>2020-08-14T11:51:56Z</time>
      </trkpt>
      <trkpt lat="43.0505690" lon="-2.2795570">
        <ele>443.6</ele>
        <time>2020-08-14T11:51:59Z</time>
      </trkpt>
      <trkpt lat="43.0508260" lon="-2.2796160">
        <ele>444.6</ele>
        <time>2020-08-14T11:52:06Z</time>
      </trkpt>
      <trkpt lat="43.0509640" lon="-2.2797580">
        <ele>445.6</ele>
        <time>2020-08-14T11:52:11Z</time>
      </trkpt>
      <trkpt lat="43.0510500" lon="-2.2798240">
        <ele>446.8</ele>
        <time>2020-08-14T11:52:14Z</time>
      </trkpt>
      <trkpt lat="43.0510830" lon="-2.2798220">
        <ele>447.2</ele>
        <time>2020-08-14T11:52:15Z</time>
      </trkpt>
      <trkpt lat="43.0511270" lon="-2.2797040">
        <ele>448.0</ele>
        <time>2020-08-14T11:52:18Z</time>
      </trkpt>
      <trkpt lat="43.0511300" lon="-2.2796550">
        <ele>448.6</ele>
        <time>2020-08-14T11:52:19Z</time>
      </trkpt>
      <trkpt lat="43.0511380" lon="-2.2796140">
        <ele>449.0</ele>
        <time>2020-08-14T11:52:20Z</time>
      </trkpt>
      <trkpt lat="43.0511570" lon="-2.2795900">
        <ele>449.4</ele>
        <time>2020-08-14T11:52:21Z</time>
      </trkpt>
      <trkpt lat="43.0512130" lon="-2.2796350">
        <ele>450.6</ele>
        <time>2020-08-14T11:52:24Z</time>
      </trkpt>
      <trkpt lat="43.0512280" lon="-2.2797160">
        <ele>451.6</ele>
        <time>2020-08-14T11:52:26Z</time>
      </trkpt>
      <trkpt lat="43.0512320" lon="-2.2797560">
        <ele>452.0</ele>
        <time>2020-08-14T11:52:27Z</time>
      </trkpt>
      <trkpt lat="43.0512430" lon="-2.2798760">
        <ele>452.8</ele>
        <time>2020-08-14T11:52:30Z</time>
      </trkpt>
      <trkpt lat="43.0505270" lon="-2.2794690">
        <ele>428.0</ele>
        <time>2020-08-14T09:44:51Z</time>
      </trkpt>
      <trkpt lat="43.0505300" lon="-2.2794890">
        <ele>428.0</ele>
        <time>2020-08-14T09:44:52Z</time>
      </trkpt>
      <trkpt lat="43.0505370" lon="-2.2795070">
        <ele>428.2</ele>
        <time>2020-08-14T09:44:53Z</time>
      </trkpt>
      <trkpt lat="43.0505470" lon="-2.2795200">
        <ele>428.0</ele>
        <time>2020-08-14T09:44:54Z</time>
      </trkpt>
      <trkpt lat="43.0505820" lon="-2.2795370">
        <ele>428.4</ele>
        <time>2020-08-14T09:44:56Z</time>
      </trkpt>
      <trkpt lat="43.0506470" lon="-2.2795520">
        <ele>429.4</ele>
        <time>2020-08-14T09:44:58Z</time>
      </trkpt>
      <trkpt lat="43.0506940" lon="-2.2795740">
        <ele>430.0</ele>
        <time>2020-08-14T09:44:59Z</time>
      </trkpt>
      <trkpt lat="43.0507470" lon="-2.2796090">
        <ele>430.6</ele>
        <time>2020-08-14T09:45:00Z</time>
      </trkpt>
      <trkpt lat="43.0508490" lon="-2.2796930">
        <ele>431.4</ele>
        <time>2020-08-14T09:45:02Z</time>
      </trkpt>
      <trkpt lat="43.0509740" lon="-2.2798340">
        <ele>432.6</ele>
        <time>2020-08-14T09:45:05Z</time>
      </trkpt>
      <trkpt lat="43.0514040" lon="-2.2803690">
        <ele>433.2</ele>
        <time>2020-08-14T09:45:16Z</time>
      </trkpt>
      <trkpt lat="43.0514900" lon="-2.2804660">
        <ele>433.6</ele>
        <time>2020-08-14T09:45:18Z</time>
      </trkpt>
      <trkpt lat="43.0515720" lon="-2.2805640">
        <ele>434.0</ele>
        <time>2020-08-14T09:45:20Z</time>
      </trkpt>
      <trkpt lat="43.0518130" lon="-2.2808730">
        <ele>434.4</ele>
        <time>2020-08-14T09:45:26Z</time>
      </trkpt>
      <trkpt lat="43.0522880" lon="-2.2812520">
        <ele>434.6</ele>
        <time>2020-08-14T09:45:35Z</time>
      </trkpt>
      <trkpt lat="43.0523470" lon="-2.2813010">
        <ele>434.6</ele>
        <time>2020-08-14T09:45:36Z</time>
      </trkpt>
      <trkpt lat="43.0527660" lon="-2.2818030">
        <ele>433.6</ele>
        <time>2020-08-14T09:45:44Z</time>
      </trkpt>
      <trkpt lat="43.0530950" lon="-2.2823560">
        <ele>434.6</ele>
        <time>2020-08-14T09:45:53Z</time>
      </trkpt>
      <trkpt lat="43.0534600" lon="-2.2830260">
        <ele>435.0</ele>
        <time>2020-08-14T09:46:02Z</time>
      </trkpt>
      <trkpt lat="43.0535050" lon="-2.2831180">
        <ele>435.0</ele>
        <time>2020-08-14T09:46:03Z</time>
      </trkpt>
      <trkpt lat="43.0536000" lon="-2.2835010">
        <ele>434.0</ele>
        <time>2020-08-14T09:46:07Z</time>
      </trkpt>
      <trkpt lat="43.0536030" lon="-2.2843060">
        <ele>434.4</ele>
        <time>2020-08-14T09:46:18Z</time>
      </trkpt>
      <trkpt lat="43.0535690" lon="-2.2845250">
        <ele>435.8</ele>
        <time>2020-08-14T09:46:21Z</time>
      </trkpt>
      <trkpt lat="43.0535200" lon="-2.2847350">
        <ele>437.0</ele>
        <time>2020-08-14T09:46:24Z</time>
      </trkpt>
      <trkpt lat="43.0534280" lon="-2.2850240">
        <ele>438.0</ele>
        <time>2020-08-14T09:46:28Z</time>
      </trkpt>
      <trkpt lat="43.0534090" lon="-2.2851000">
        <ele>438.0</ele>
        <time>2020-08-14T09:46:29Z</time>
      </trkpt>
      <trkpt lat="43.0533480" lon="-2.2858620">
        <ele>438.2</ele>
        <time>2020-08-14T09:46:38Z</time>
      </trkpt>
      <trkpt lat="43.0533280" lon="-2.2861320">
        <ele>438.2</ele>
        <time>2020-08-14T09:46:41Z</time>
      </trkpt>
      <trkpt lat="43.0532870" lon="-2.2863820">
        <ele>437.8</ele>
        <time>2020-08-14T09:46:44Z</time>
      </trkpt>
      <trkpt lat="43.0532670" lon="-2.2869310">
        <ele>437.6</ele>
        <time>2020-08-14T09:46:51Z</time>
      </trkpt>
      <trkpt lat="43.0533040" lon="-2.2871810">
        <ele>438.0</ele>
        <time>2020-08-14T09:46:55Z</time>
      </trkpt>
      <trkpt lat="43.0533540" lon="-2.2874090">
        <ele>439.0</ele>
        <time>2020-08-14T09:46:59Z</time>
      </trkpt>
      <trkpt lat="43.0533800" lon="-2.2875220">
        <ele>440.2</ele>
        <time>2020-08-14T09:47:01Z</time>
      </trkpt>
      <trkpt lat="43.0534140" lon="-2.2876940">
        <ele>441.0</ele>
        <time>2020-08-14T09:47:04Z</time>
      </trkpt>
      <trkpt lat="43.0534270" lon="-2.2878150">
        <ele>441.4</ele>
        <time>2020-08-14T09:47:06Z</time>
      </trkpt>
      <trkpt lat="43.0535210" lon="-2.2885950">
        <ele>442.0</ele>
        <time>2020-08-14T09:47:17Z</time>
      </trkpt>
      <trkpt lat="43.0535800" lon="-2.2887910">
        <ele>442.2</ele>
        <time>2020-08-14T09:47:20Z</time>
      </trkpt>
      <trkpt lat="43.0539210" lon="-2.2894420">
        <ele>443.2</ele>
        <time>2020-08-14T09:47:31Z</time>
      </trkpt>
      <trkpt lat="43.0539910" lon="-2.2895590">
        <ele>443.2</ele>
        <time>2020-08-14T09:47:33Z</time>
      </trkpt>
      <trkpt lat="43.0541400" lon="-2.2898460">
        <ele>443.4</ele>
        <time>2020-08-14T09:47:38Z</time>
      </trkpt>
      <trkpt lat="43.0542490" lon="-2.2900630">
        <ele>443.4</ele>
        <time>2020-08-14T09:47:42Z</time>
      </trkpt>
      <trkpt lat="43.0544220" lon="-2.2902860">
        <ele>444.4</ele>
        <time>2020-08-14T09:47:47Z</time>
      </trkpt>
      <trkpt lat="43.0546510" lon="-2.2904730">
        <ele>445.4</ele>
        <time>2020-08-14T09:47:53Z</time>
      </trkpt>
      <trkpt lat="43.0548570" lon="-2.2905810">
        <ele>446.2</ele>
        <time>2020-08-14T09:47:59Z</time>
      </trkpt>
      <trkpt lat="43.0549650" lon="-2.2906520">
        <ele>447.6</ele>
        <time>2020-08-14T09:48:02Z</time>
      </trkpt>
      <trkpt lat="43.0550900" lon="-2.2907290">
        <ele>448.8</ele>
        <time>2020-08-14T09:48:05Z</time>
      </trkpt>
      <trkpt lat="43.0551360" lon="-2.2907480">
        <ele>449.2</ele>
        <time>2020-08-14T09:48:06Z</time>
      </trkpt>
      <trkpt lat="43.0552590" lon="-2.2908070">
        <ele>450.0</ele>
        <time>2020-08-14T09:48:09Z</time>
      </trkpt>
      <trkpt lat="43.0555750" lon="-2.2909230">
        <ele>451.0</ele>
        <time>2020-08-14T09:48:17Z</time>
      </trkpt>
      <trkpt lat="43.0556120" lon="-2.2909290">
        <ele>451.2</ele>
        <time>2020-08-14T09:48:18Z</time>
      </trkpt>
      <trkpt lat="43.0557980" lon="-2.2909550">
        <ele>452.4</ele>
        <time>2020-08-14T09:48:23Z</time>
      </trkpt>
      <trkpt lat="43.0559910" lon="-2.2909890">
        <ele>453.6</ele>
        <time>2020-08-14T09:48:28Z</time>
      </trkpt>
      <trkpt lat="43.0560320" lon="-2.2910070">
        <ele>453.8</ele>
        <time>2020-08-14T09:48:29Z</time>
      </trkpt>
      <trkpt lat="43.0561740" lon="-2.2911270">
        <ele>454.8</ele>
        <time>2020-08-14T09:48:33Z</time>
      </trkpt>
      <trkpt lat="43.0562900" lon="-2.2912000">
        <ele>455.2</ele>
        <time>2020-08-14T09:48:36Z</time>
      </trkpt>
      <trkpt lat="43.0563830" lon="-2.2912380">
        <ele>455.6</ele>
        <time>2020-08-14T09:48:38Z</time>
      </trkpt>
      <trkpt lat="43.0568260" lon="-2.2914510">
        <ele>456.0</ele>
        <time>2020-08-14T09:48:45Z</time>
      </trkpt>
      <trkpt lat="43.0569800" lon="-2.2916300">
        <ele>456.0</ele>
        <time>2020-08-14T09:48:48Z</time>
      </trkpt>
      <trkpt lat="43.0570870" lon="-2.2919410">
        <ele>456.0</ele>
        <time>2020-08-14T09:48:53Z</time>
      </trkpt>
      <trkpt lat="43.0571090" lon="-2.2920620">
        <ele>456.0</ele>
        <time>2020-08-14T09:48:55Z</time>
      </trkpt>
      <trkpt lat="43.0571310" lon="-2.2922480">
        <ele>456.6</ele>
        <time>2020-08-14T09:48:58Z</time>
      </trkpt>
      <trkpt lat="43.0571480" lon="-2.2923630">
        <ele>457.6</ele>
        <time>2020-08-14T09:49:00Z</time>
      </trkpt>
      <trkpt lat="43.0571710" lon="-2.2924760">
        <ele>458.4</ele>
        <time>2020-08-14T09:49:02Z</time>
      </trkpt>
      <trkpt lat="43.0571880" lon="-2.2925340">
        <ele>458.8</ele>
        <time>2020-08-14T09:49:03Z</time>
      </trkpt>
      <trkpt lat="43.0572090" lon="-2.2925890">
        <ele>459.0</ele>
        <time>2020-08-14T09:49:04Z</time>
      </trkpt>
      <trkpt lat="43.0572910" lon="-2.2927510">
        <ele>460.0</ele>
        <time>2020-08-14T09:49:07Z</time>
      </trkpt>
      <trkpt lat="43.0573820" lon="-2.2929580">
        <ele>461.2</ele>
        <time>2020-08-14T09:49:11Z</time>
      </trkpt>
      <trkpt lat="43.0574440" lon="-2.2932020">
        <ele>462.0</ele>
        <time>2020-08-14T09:49:16Z</time>
      </trkpt>
      <trkpt lat="43.0574760" lon="-2.2933380">
        <ele>463.6</ele>
        <time>2020-08-14T09:49:19Z</time>
      </trkpt>
      <trkpt lat="43.0575120" lon="-2.2934700">
        <ele>464.8</ele>
        <time>2020-08-14T09:49:22Z</time>
      </trkpt>
      <trkpt lat="43.0575650" lon="-2.2936390">
        <ele>465.8</ele>
        <time>2020-08-14T09:49:26Z</time>
      </trkpt>
      <trkpt lat="43.0576480" lon="-2.2937900">
        <ele>467.0</ele>
        <time>2020-08-14T09:49:30Z</time>
      </trkpt>
      <trkpt lat="43.0577410" lon="-2.2939300">
        <ele>468.2</ele>
        <time>2020-08-14T09:49:34Z</time>
      </trkpt>
      <trkpt lat="43.0578600" lon="-2.2940490">
        <ele>469.4</ele>
        <time>2020-08-14T09:49:38Z</time>
      </trkpt>
      <trkpt lat="43.0579730" lon="-2.2941180">
        <ele>470.4</ele>
        <time>2020-08-14T09:49:41Z</time>
      </trkpt>
      <trkpt lat="43.0585460" lon="-2.2943220">
        <ele>471.4</ele>
        <time>2020-08-14T09:49:52Z</time>
      </trkpt>
      <trkpt lat="43.0590880" lon="-2.2946400">
        <ele>470.8</ele>
        <time>2020-08-14T09:50:02Z</time>
      </trkpt>
      <trkpt lat="43.0594350" lon="-2.2948990">
        <ele>470.2</ele>
        <time>2020-08-14T09:50:08Z</time>
      </trkpt>
      <trkpt lat="43.0595100" lon="-2.2954390">
        <ele>470.0</ele>
        <time>2020-08-14T09:50:14Z</time>
      </trkpt>
      <trkpt lat="43.0594690" lon="-2.2957790">
        <ele>469.8</ele>
        <time>2020-08-14T09:50:18Z</time>
      </trkpt>
      <trkpt lat="43.0594580" lon="-2.2963120">
        <ele>470.0</ele>
        <time>2020-08-14T09:50:24Z</time>
      </trkpt>
      <trkpt lat="43.0594820" lon="-2.2965020">
        <ele>470.2</ele>
        <time>2020-08-14T09:50:26Z</time>
      </trkpt>
      <trkpt lat="43.0598360" lon="-2.2970060">
        <ele>470.2</ele>
        <time>2020-08-14T09:50:32Z</time>
      </trkpt>
      <trkpt lat="43.0601060" lon="-2.2972050">
        <ele>469.2</ele>
        <time>2020-08-14T09:50:35Z</time>
      </trkpt>
      <trkpt lat="43.0602710" lon="-2.2973320">
        <ele>467.2</ele>
        <time>2020-08-14T09:50:37Z</time>
      </trkpt>
      <trkpt lat="43.0603400" lon="-2.2973930">
        <ele>466.2</ele>
        <time>2020-08-14T09:50:38Z</time>
      </trkpt>
      <trkpt lat="43.0603890" lon="-2.2974830">
        <ele>465.4</ele>
        <time>2020-08-14T09:50:39Z</time>
      </trkpt>
      <trkpt lat="43.0604250" lon="-2.2975780">
        <ele>464.4</ele>
        <time>2020-08-14T09:50:40Z</time>
      </trkpt>
      <trkpt lat="43.0604250" lon="-2.2977750">
        <ele>462.2</ele>
        <time>2020-08-14T09:50:42Z</time>
      </trkpt>
      <trkpt lat="43.0604000" lon="-2.2978650">
        <ele>461.2</ele>
        <time>2020-08-14T09:50:43Z</time>
      </trkpt>
      <trkpt lat="43.0603810" lon="-2.2979590">
        <ele>460.2</ele>
        <time>2020-08-14T09:50:44Z</time>
      </trkpt>
      <trkpt lat="43.0603670" lon="-2.2980560">
        <ele>459.6</ele>
        <time>2020-08-14T09:50:45Z</time>
      </trkpt>
      <trkpt lat="43.0603520" lon="-2.2982510">
        <ele>458.4</ele>
        <time>2020-08-14T09:50:47Z</time>
      </trkpt>
      <trkpt lat="43.0603940" lon="-2.2989290">
        <ele>458.0</ele>
        <time>2020-08-14T09:50:55Z</time>
      </trkpt>
      <trkpt lat="43.0601670" lon="-2.2996430">
        <ele>458.8</ele>
        <time>2020-08-14T09:51:04Z</time>
      </trkpt>
      <trkpt lat="43.0600400" lon="-2.3002470">
        <ele>458.8</ele>
        <time>2020-08-14T09:51:09Z</time>
      </trkpt>
      <trkpt lat="43.0601200" lon="-2.3007260">
        <ele>457.4</ele>
        <time>2020-08-14T09:51:12Z</time>
      </trkpt>
      <trkpt lat="43.0601830" lon="-2.3010570">
        <ele>455.8</ele>
        <time>2020-08-14T09:51:14Z</time>
      </trkpt>
      <trkpt lat="43.0602320" lon="-2.3013680">
        <ele>453.8</ele>
        <time>2020-08-14T09:51:16Z</time>
      </trkpt>
      <trkpt lat="43.0602780" lon="-2.3015070">
        <ele>452.6</ele>
        <time>2020-08-14T09:51:17Z</time>
      </trkpt>
      <trkpt lat="43.0603290" lon="-2.3016420">
        <ele>450.6</ele>
        <time>2020-08-14T09:51:18Z</time>
      </trkpt>
      <trkpt lat="43.0603810" lon="-2.3017790">
        <ele>448.4</ele>
        <time>2020-08-14T09:51:19Z</time>
      </trkpt>
      <trkpt lat="43.0604350" lon="-2.3019230">
        <ele>447.0</ele>
        <time>2020-08-14T09:51:20Z</time>
      </trkpt>
      <trkpt lat="43.0605330" lon="-2.3022060">
        <ele>445.8</ele>
        <time>2020-08-14T09:51:22Z</time>
      </trkpt>
      <trkpt lat="43.0606230" lon="-2.3025310">
        <ele>445.0</ele>
        <time>2020-08-14T09:51:25Z</time>
      </trkpt>
      <trkpt lat="43.0606190" lon="-2.3026250">
        <ele>444.8</ele>
        <time>2020-08-14T09:51:26Z</time>
      </trkpt>
      <trkpt lat="43.0604990" lon="-2.3026960">
        <ele>443.4</ele>
        <time>2020-08-14T09:51:28Z</time>
      </trkpt>
      <trkpt lat="43.0604080" lon="-2.3027000">
        <ele>442.0</ele>
        <time>2020-08-14T09:51:29Z</time>
      </trkpt>
      <trkpt lat="43.0603150" lon="-2.3027250">
        <ele>440.6</ele>
        <time>2020-08-14T09:51:30Z</time>
      </trkpt>
      <trkpt lat="43.0602270" lon="-2.3027630">
        <ele>439.4</ele>
        <time>2020-08-14T09:51:31Z</time>
      </trkpt>
      <trkpt lat="43.0601110" lon="-2.3029280">
        <ele>437.6</ele>
        <time>2020-08-14T09:51:33Z</time>
      </trkpt>
      <trkpt lat="43.0601010" lon="-2.3031760">
        <ele>436.2</ele>
        <time>2020-08-14T09:51:35Z</time>
      </trkpt>
      <trkpt lat="43.0601610" lon="-2.3034500">
        <ele>434.4</ele>
        <time>2020-08-14T09:51:37Z</time>
      </trkpt>
      <trkpt lat="43.0602030" lon="-2.3035940">
        <ele>433.0</ele>
        <time>2020-08-14T09:51:38Z</time>
      </trkpt>
      <trkpt lat="43.0603650" lon="-2.3039850">
        <ele>431.0</ele>
        <time>2020-08-14T09:51:41Z</time>
      </trkpt>
      <trkpt lat="43.0604280" lon="-2.3040840">
        <ele>430.0</ele>
        <time>2020-08-14T09:51:42Z</time>
      </trkpt>
      <trkpt lat="43.0605210" lon="-2.3041430">
        <ele>428.8</ele>
        <time>2020-08-14T09:51:43Z</time>
      </trkpt>
      <trkpt lat="43.0606170" lon="-2.3041820">
        <ele>427.6</ele>
        <time>2020-08-14T09:51:44Z</time>
      </trkpt>
      <trkpt lat="43.0607260" lon="-2.3042210">
        <ele>426.2</ele>
        <time>2020-08-14T09:51:45Z</time>
      </trkpt>
      <trkpt lat="43.0608390" lon="-2.3042870">
        <ele>424.8</ele>
        <time>2020-08-14T09:51:46Z</time>
      </trkpt>
      <trkpt lat="43.0609490" lon="-2.3043630">
        <ele>423.4</ele>
        <time>2020-08-14T09:51:47Z</time>
      </trkpt>
      <trkpt lat="43.0610600" lon="-2.3044380">
        <ele>422.2</ele>
        <time>2020-08-14T09:51:48Z</time>
      </trkpt>
      <trkpt lat="43.0612790" lon="-2.3045570">
        <ele>420.2</ele>
        <time>2020-08-14T09:51:50Z</time>
      </trkpt>
      <trkpt lat="43.0613760" lon="-2.3046080">
        <ele>418.8</ele>
        <time>2020-08-14T09:51:51Z</time>
      </trkpt>
      <trkpt lat="43.0614530" lon="-2.3046610">
        <ele>417.0</ele>
        <time>2020-08-14T09:51:52Z</time>
      </trkpt>
      <trkpt lat="43.0615160" lon="-2.3047180">
        <ele>415.6</ele>
        <time>2020-08-14T09:51:53Z</time>
      </trkpt>
      <trkpt lat="43.0615460" lon="-2.3047890">
        <ele>413.8</ele>
        <time>2020-08-14T09:51:54Z</time>
      </trkpt>
      <trkpt lat="43.0615590" lon="-2.3048890">
        <ele>412.4</ele>
        <time>2020-08-14T09:51:55Z</time>
      </trkpt>
      <trkpt lat="43.0615420" lon="-2.3049940">
        <ele>411.4</ele>
        <time>2020-08-14T09:51:56Z</time>
      </trkpt>
      <trkpt lat="43.0615280" lon="-2.3050960">
        <ele>410.6</ele>
        <time>2020-08-14T09:51:57Z</time>
      </trkpt>
      <trkpt lat="43.0615140" lon="-2.3051920">
        <ele>409.8</ele>
        <time>2020-08-14T09:51:58Z</time>
      </trkpt>
      <trkpt lat="43.0615080" lon="-2.3052840">
        <ele>409.2</ele>
        <time>2020-08-14T09:51:59Z</time>
      </trkpt>
      <trkpt lat="43.0615060" lon="-2.3053810">
        <ele>408.6</ele>
        <time>2020-08-14T09:52:00Z</time>
      </trkpt>
      <trkpt lat="43.0615180" lon="-2.3055460">
        <ele>407.4</ele>
        <time>2020-08-14T09:52:02Z</time>
      </trkpt>
      <trkpt lat="43.0615180" lon="-2.3056230">
        <ele>407.2</ele>
        <time>2020-08-14T09:52:03Z</time>
      </trkpt>
      <trkpt lat="43.0612570" lon="-2.3058270">
        <ele>406.8</ele>
        <time>2020-08-14T09:52:09Z</time>
      </trkpt>
      <trkpt lat="43.0609380" lon="-2.3058520">
        <ele>407.4</ele>
        <time>2020-08-14T09:52:15Z</time>
      </trkpt>
      <trkpt lat="43.0607370" lon="-2.3058710">
        <ele>408.4</ele>
        <time>2020-08-14T09:52:19Z</time>
      </trkpt>
      <trkpt lat="43.0605890" lon="-2.3058980">
        <ele>409.0</ele>
        <time>2020-08-14T09:52:22Z</time>
      </trkpt>
      <trkpt lat="43.0604880" lon="-2.3059320">
        <ele>409.4</ele>
        <time>2020-08-14T09:52:24Z</time>
      </trkpt>
      <trkpt lat="43.0603490" lon="-2.3060020">
        <ele>410.0</ele>
        <time>2020-08-14T09:52:27Z</time>
      </trkpt>
      <trkpt lat="43.0602410" lon="-2.3060830">
        <ele>410.8</ele>
        <time>2020-08-14T09:52:30Z</time>
      </trkpt>
      <trkpt lat="43.0601630" lon="-2.3061680">
        <ele>411.2</ele>
        <time>2020-08-14T09:52:32Z</time>
      </trkpt>
      <trkpt lat="43.0600510" lon="-2.3063110">
        <ele>412.0</ele>
        <time>2020-08-14T09:52:35Z</time>
      </trkpt>
      <trkpt lat="43.0599080" lon="-2.3065050">
        <ele>412.8</ele>
        <time>2020-08-14T09:52:39Z</time>
      </trkpt>
      <trkpt lat="43.0598730" lon="-2.3065630">
        <ele>413.2</ele>
        <time>2020-08-14T09:52:40Z</time>
      </trkpt>
      <trkpt lat="43.0597830" lon="-2.3067490">
        <ele>413.8</ele>
        <time>2020-08-14T09:52:43Z</time>
      </trkpt>
      <trkpt lat="43.0597530" lon="-2.3068120">
        <ele>414.0</ele>
        <time>2020-08-14T09:52:44Z</time>
      </trkpt>
      <trkpt lat="43.0597260" lon="-2.3068650">
        <ele>414.4</ele>
        <time>2020-08-14T09:52:45Z</time>
      </trkpt>
      <trkpt lat="43.0596370" lon="-2.3070410">
        <ele>415.4</ele>
        <time>2020-08-14T09:52:48Z</time>
      </trkpt>
      <trkpt lat="43.0595980" lon="-2.3070870">
        <ele>415.6</ele>
        <time>2020-08-14T09:52:49Z</time>
      </trkpt>
      <trkpt lat="43.0594580" lon="-2.3071260">
        <ele>416.4</ele>
        <time>2020-08-14T09:52:52Z</time>
      </trkpt>
      <trkpt lat="43.0593090" lon="-2.3069910">
        <ele>417.2</ele>
        <time>2020-08-14T09:52:56Z</time>
      </trkpt>
      <trkpt lat="43.0592750" lon="-2.3069510">
        <ele>417.2</ele>
        <time>2020-08-14T09:52:57Z</time>
      </trkpt>
      <trkpt lat="43.0590230" lon="-2.3066860">
        <ele>418.4</ele>
        <time>2020-08-14T09:53:03Z</time>
      </trkpt>
      <trkpt lat="43.0588390" lon="-2.3065570">
        <ele>419.8</ele>
        <time>2020-08-14T09:53:07Z</time>
      </trkpt>
      <trkpt lat="43.0587360" lon="-2.3065050">
        <ele>420.4</ele>
        <time>2020-08-14T09:53:09Z</time>
      </trkpt>
      <trkpt lat="43.0586250" lon="-2.3064770">
        <ele>420.8</ele>
        <time>2020-08-14T09:53:11Z</time>
      </trkpt>
      <trkpt lat="43.0585110" lon="-2.3064920">
        <ele>421.4</ele>
        <time>2020-08-14T09:53:13Z</time>
      </trkpt>
      <trkpt lat="43.0584580" lon="-2.3065150">
        <ele>421.8</ele>
        <time>2020-08-14T09:53:14Z</time>
      </trkpt>
      <trkpt lat="43.0584050" lon="-2.3065370">
        <ele>422.2</ele>
        <time>2020-08-14T09:53:15Z</time>
      </trkpt>
      <trkpt lat="43.0582450" lon="-2.3066080">
        <ele>422.6</ele>
        <time>2020-08-14T09:53:18Z</time>
      </trkpt>
      <trkpt lat="43.0580370" lon="-2.3065810">
        <ele>423.0</ele>
        <time>2020-08-14T09:53:22Z</time>
      </trkpt>
      <trkpt lat="43.0579530" lon="-2.3065270">
        <ele>423.6</ele>
        <time>2020-08-14T09:53:24Z</time>
      </trkpt>
      <trkpt lat="43.0578430" lon="-2.3064410">
        <ele>424.2</ele>
        <time>2020-08-14T09:53:27Z</time>
      </trkpt>
      <trkpt lat="43.0576840" lon="-2.3063600">
        <ele>424.6</ele>
        <time>2020-08-14T09:53:31Z</time>
      </trkpt>
      <trkpt lat="43.0575380" lon="-2.3063740">
        <ele>425.0</ele>
        <time>2020-08-14T09:53:34Z</time>
      </trkpt>
      <trkpt lat="43.0574470" lon="-2.3064160">
        <ele>425.6</ele>
        <time>2020-08-14T09:53:36Z</time>
      </trkpt>
      <trkpt lat="43.0574040" lon="-2.3064450">
        <ele>425.8</ele>
        <time>2020-08-14T09:53:37Z</time>
      </trkpt>
      <trkpt lat="43.0573150" lon="-2.3065000">
        <ele>426.2</ele>
        <time>2020-08-14T09:53:39Z</time>
      </trkpt>
      <trkpt lat="43.0572700" lon="-2.3065330">
        <ele>426.4</ele>
        <time>2020-08-14T09:53:40Z</time>
      </trkpt>
      <trkpt lat="43.0571480" lon="-2.3067050">
        <ele>427.2</ele>
        <time>2020-08-14T09:53:44Z</time>
      </trkpt>
      <trkpt lat="43.0571280" lon="-2.3067560">
        <ele>427.6</ele>
        <time>2020-08-14T09:53:45Z</time>
      </trkpt>
      <trkpt lat="43.0570920" lon="-2.3068670">
        <ele>428.0</ele>
        <time>2020-08-14T09:53:47Z</time>
      </trkpt>
      <trkpt lat="43.0570710" lon="-2.3069910">
        <ele>428.4</ele>
        <time>2020-08-14T09:53:49Z</time>
      </trkpt>
      <trkpt lat="43.0570460" lon="-2.3072980">
        <ele>429.0</ele>
        <time>2020-08-14T09:53:53Z</time>
      </trkpt>
      <trkpt lat="43.0570690" lon="-2.3075060">
        <ele>429.4</ele>
        <time>2020-08-14T09:53:56Z</time>
      </trkpt>
      <trkpt lat="43.0572090" lon="-2.3077680">
        <ele>430.2</ele>
        <time>2020-08-14T09:54:01Z</time>
      </trkpt>
      <trkpt lat="43.0573380" lon="-2.3079380">
        <ele>431.2</ele>
        <time>2020-08-14T09:54:05Z</time>
      </trkpt>
      <trkpt lat="43.0573670" lon="-2.3079860">
        <ele>431.6</ele>
        <time>2020-08-14T09:54:06Z</time>
      </trkpt>
      <trkpt lat="43.0574170" lon="-2.3080980">
        <ele>432.2</ele>
        <time>2020-08-14T09:54:08Z</time>
      </trkpt>
      <trkpt lat="43.0574440" lon="-2.3082840">
        <ele>432.6</ele>
        <time>2020-08-14T09:54:11Z</time>
      </trkpt>
      <trkpt lat="43.0574280" lon="-2.3084040">
        <ele>432.8</ele>
        <time>2020-08-14T09:54:13Z</time>
      </trkpt>
      <trkpt lat="43.0573650" lon="-2.3086970">
        <ele>433.4</ele>
        <time>2020-08-14T09:54:18Z</time>
      </trkpt>
      <trkpt lat="43.0573550" lon="-2.3088190">
        <ele>433.8</ele>
        <time>2020-08-14T09:54:20Z</time>
      </trkpt>
      <trkpt lat="43.0574140" lon="-2.3090520">
        <ele>434.6</ele>
        <time>2020-08-14T09:54:24Z</time>
      </trkpt>
      <trkpt lat="43.0574610" lon="-2.3091550">
        <ele>435.0</ele>
        <time>2020-08-14T09:54:26Z</time>
      </trkpt>
      <trkpt lat="43.0575370" lon="-2.3093710">
        <ele>435.6</ele>
        <time>2020-08-14T09:54:30Z</time>
      </trkpt>
      <trkpt lat="43.0576200" lon="-2.3096540">
        <ele>436.6</ele>
        <time>2020-08-14T09:54:35Z</time>
      </trkpt>
      <trkpt lat="43.0576600" lon="-2.3097670">
        <ele>437.0</ele>
        <time>2020-08-14T09:54:37Z</time>
      </trkpt>
      <trkpt lat="43.0577650" lon="-2.3099620">
        <ele>437.6</ele>
        <time>2020-08-14T09:54:41Z</time>
      </trkpt>
      <trkpt lat="43.0579170" lon="-2.3101770">
        <ele>438.6</ele>
        <time>2020-08-14T09:54:46Z</time>
      </trkpt>
      <trkpt lat="43.0579520" lon="-2.3102170">
        <ele>438.6</ele>
        <time>2020-08-14T09:54:47Z</time>
      </trkpt>
      <trkpt lat="43.0580550" lon="-2.3103370">
        <ele>439.2</ele>
        <time>2020-08-14T09:54:50Z</time>
      </trkpt>
      <trkpt lat="43.0581310" lon="-2.3104070">
        <ele>439.6</ele>
        <time>2020-08-14T09:54:52Z</time>
      </trkpt>
      <trkpt lat="43.0581660" lon="-2.3104430">
        <ele>439.8</ele>
        <time>2020-08-14T09:54:53Z</time>
      </trkpt>
      <trkpt lat="43.0584360" lon="-2.3106860">
        <ele>440.6</ele>
        <time>2020-08-14T09:55:00Z</time>
      </trkpt>
      <trkpt lat="43.0586180" lon="-2.3108820">
        <ele>441.8</ele>
        <time>2020-08-14T09:55:05Z</time>
      </trkpt>
      <trkpt lat="43.0588020" lon="-2.3110680">
        <ele>443.0</ele>
        <time>2020-08-14T09:55:10Z</time>
      </trkpt>
      <trkpt lat="43.0588740" lon="-2.3111460">
        <ele>443.4</ele>
        <time>2020-08-14T09:55:12Z</time>
      </trkpt>
      <trkpt lat="43.0589470" lon="-2.3112980">
        <ele>444.0</ele>
        <time>2020-08-14T09:55:15Z</time>
      </trkpt>
      <trkpt lat="43.0588300" lon="-2.3115210">
        <ele>445.0</ele>
        <time>2020-08-14T09:55:20Z</time>
      </trkpt>
      <trkpt lat="43.0587900" lon="-2.3115530">
        <ele>445.2</ele>
        <time>2020-08-14T09:55:21Z</time>
      </trkpt>
      <trkpt lat="43.0587150" lon="-2.3116180">
        <ele>445.6</ele>
        <time>2020-08-14T09:55:23Z</time>
      </trkpt>
      <trkpt lat="43.0586100" lon="-2.3117260">
        <ele>446.2</ele>
        <time>2020-08-14T09:55:26Z</time>
      </trkpt>
      <trkpt lat="43.0585430" lon="-2.3117900">
        <ele>446.6</ele>
        <time>2020-08-14T09:55:28Z</time>
      </trkpt>
      <trkpt lat="43.0584700" lon="-2.3118470">
        <ele>447.2</ele>
        <time>2020-08-14T09:55:30Z</time>
      </trkpt>
      <trkpt lat="43.0583490" lon="-2.3119260">
        <ele>448.0</ele>
        <time>2020-08-14T09:55:33Z</time>
      </trkpt>
      <trkpt lat="43.0583060" lon="-2.3119440">
        <ele>448.2</ele>
        <time>2020-08-14T09:55:34Z</time>
      </trkpt>
      <trkpt lat="43.0580370" lon="-2.3120300">
        <ele>449.2</ele>
        <time>2020-08-14T09:55:40Z</time>
      </trkpt>
      <trkpt lat="43.0577630" lon="-2.3120670">
        <ele>450.4</ele>
        <time>2020-08-14T09:55:46Z</time>
      </trkpt>
      <trkpt lat="43.0577180" lon="-2.3120690">
        <ele>450.4</ele>
        <time>2020-08-14T09:55:47Z</time>
      </trkpt>
      <trkpt lat="43.0574170" lon="-2.3121590">
        <ele>451.4</ele>
        <time>2020-08-14T09:55:54Z</time>
      </trkpt>
      <trkpt lat="43.0574230" lon="-2.3125820">
        <ele>452.2</ele>
        <time>2020-08-14T09:56:01Z</time>
      </trkpt>
      <trkpt lat="43.0574630" lon="-2.3126940">
        <ele>452.4</ele>
        <time>2020-08-14T09:56:03Z</time>
      </trkpt>
      <trkpt lat="43.0575330" lon="-2.3129370">
        <ele>453.4</ele>
        <time>2020-08-14T09:56:07Z</time>
      </trkpt>
      <trkpt lat="43.0576060" lon="-2.3132200">
        <ele>454.4</ele>
        <time>2020-08-14T09:56:12Z</time>
      </trkpt>
      <trkpt lat="43.0576130" lon="-2.3132790">
        <ele>454.8</ele>
        <time>2020-08-14T09:56:13Z</time>
      </trkpt>
      <trkpt lat="43.0575810" lon="-2.3135230">
        <ele>455.6</ele>
        <time>2020-08-14T09:56:17Z</time>
      </trkpt>
      <trkpt lat="43.0575610" lon="-2.3135780">
        <ele>455.8</ele>
        <time>2020-08-14T09:56:18Z</time>
      </trkpt>
      <trkpt lat="43.0575310" lon="-2.3137030">
        <ele>456.2</ele>
        <time>2020-08-14T09:56:20Z</time>
      </trkpt>
      <trkpt lat="43.0575210" lon="-2.3139010">
        <ele>456.8</ele>
        <time>2020-08-14T09:56:23Z</time>
      </trkpt>
      <trkpt lat="43.0575690" lon="-2.3141210">
        <ele>457.2</ele>
        <time>2020-08-14T09:56:27Z</time>
      </trkpt>
      <trkpt lat="43.0576380" lon="-2.3142830">
        <ele>457.6</ele>
        <time>2020-08-14T09:56:30Z</time>
      </trkpt>
      <trkpt lat="43.0576660" lon="-2.3143350">
        <ele>458.0</ele>
        <time>2020-08-14T09:56:31Z</time>
      </trkpt>
      <trkpt lat="43.0576960" lon="-2.3143790">
        <ele>458.2</ele>
        <time>2020-08-14T09:56:32Z</time>
      </trkpt>
      <trkpt lat="43.0578030" lon="-2.3145110">
        <ele>459.0</ele>
        <time>2020-08-14T09:56:35Z</time>
      </trkpt>
      <trkpt lat="43.0579860" lon="-2.3147060">
        <ele>460.2</ele>
        <time>2020-08-14T09:56:40Z</time>
      </trkpt>
      <trkpt lat="43.0581690" lon="-2.3148990">
        <ele>461.2</ele>
        <time>2020-08-14T09:56:45Z</time>
      </trkpt>
      <trkpt lat="43.0582010" lon="-2.3149400">
        <ele>461.4</ele>
        <time>2020-08-14T09:56:46Z</time>
      </trkpt>
      <trkpt lat="43.0581820" lon="-2.3152560">
        <ele>462.2</ele>
        <time>2020-08-14T09:56:52Z</time>
      </trkpt>
      <trkpt lat="43.0580550" lon="-2.3153170">
        <ele>462.2</ele>
        <time>2020-08-14T09:56:55Z</time>
      </trkpt>
      <trkpt lat="43.0578770" lon="-2.3153840">
        <ele>463.0</ele>
        <time>2020-08-14T09:56:59Z</time>
      </trkpt>
      <trkpt lat="43.0577050" lon="-2.3154950">
        <ele>463.8</ele>
        <time>2020-08-14T09:57:03Z</time>
      </trkpt>
      <trkpt lat="43.0576670" lon="-2.3155310">
        <ele>464.0</ele>
        <time>2020-08-14T09:57:04Z</time>
      </trkpt>
      <trkpt lat="43.0575160" lon="-2.3156730">
        <ele>465.2</ele>
        <time>2020-08-14T09:57:08Z</time>
      </trkpt>
      <trkpt lat="43.0573310" lon="-2.3158420">
        <ele>466.4</ele>
        <time>2020-08-14T09:57:13Z</time>
      </trkpt>
      <trkpt lat="43.0572720" lon="-2.3159230">
        <ele>466.8</ele>
        <time>2020-08-14T09:57:15Z</time>
      </trkpt>
      <trkpt lat="43.0572250" lon="-2.3161440">
        <ele>467.4</ele>
        <time>2020-08-14T09:57:19Z</time>
      </trkpt>
      <trkpt lat="43.0572450" lon="-2.3163300">
        <ele>468.2</ele>
        <time>2020-08-14T09:57:22Z</time>
      </trkpt>
      <trkpt lat="43.0572720" lon="-2.3164500">
        <ele>468.6</ele>
        <time>2020-08-14T09:57:24Z</time>
      </trkpt>
      <trkpt lat="43.0573200" lon="-2.3166280">
        <ele>469.8</ele>
        <time>2020-08-14T09:57:27Z</time>
      </trkpt>
      <trkpt lat="43.0574020" lon="-2.3169210">
        <ele>471.0</ele>
        <time>2020-08-14T09:57:32Z</time>
      </trkpt>
      <trkpt lat="43.0575050" lon="-2.3172700">
        <ele>472.0</ele>
        <time>2020-08-14T09:57:38Z</time>
      </trkpt>
      <trkpt lat="43.0575620" lon="-2.3175580">
        <ele>472.6</ele>
        <time>2020-08-14T09:57:43Z</time>
      </trkpt>
      <trkpt lat="43.0575580" lon="-2.3176890">
        <ele>473.0</ele>
        <time>2020-08-14T09:57:45Z</time>
      </trkpt>
      <trkpt lat="43.0575530" lon="-2.3177510">
        <ele>473.0</ele>
        <time>2020-08-14T09:57:46Z</time>
      </trkpt>
      <trkpt lat="43.0574950" lon="-2.3180430">
        <ele>473.8</ele>
        <time>2020-08-14T09:57:51Z</time>
      </trkpt>
      <trkpt lat="43.0573990" lon="-2.3185100">
        <ele>475.0</ele>
        <time>2020-08-14T09:57:59Z</time>
      </trkpt>
      <trkpt lat="43.0573890" lon="-2.3186330">
        <ele>475.4</ele>
        <time>2020-08-14T09:58:01Z</time>
      </trkpt>
      <trkpt lat="43.0573830" lon="-2.3188170">
        <ele>476.2</ele>
        <time>2020-08-14T09:58:04Z</time>
      </trkpt>
      <trkpt lat="43.0573840" lon="-2.3191740">
        <ele>477.2</ele>
        <time>2020-08-14T09:58:10Z</time>
      </trkpt>
      <trkpt lat="43.0573870" lon="-2.3195770">
        <ele>478.4</ele>
        <time>2020-08-14T09:58:17Z</time>
      </trkpt>
      <trkpt lat="43.0573050" lon="-2.3198180">
        <ele>479.4</ele>
        <time>2020-08-14T09:58:22Z</time>
      </trkpt>
      <trkpt lat="43.0572500" lon="-2.3199040">
        <ele>479.8</ele>
        <time>2020-08-14T09:58:24Z</time>
      </trkpt>
      <trkpt lat="43.0570440" lon="-2.3200830">
        <ele>480.4</ele>
        <time>2020-08-14T09:58:29Z</time>
      </trkpt>
      <trkpt lat="43.0569990" lon="-2.3201100">
        <ele>480.6</ele>
        <time>2020-08-14T09:58:30Z</time>
      </trkpt>
      <trkpt lat="43.0569100" lon="-2.3201470">
        <ele>481.0</ele>
        <time>2020-08-14T09:58:32Z</time>
      </trkpt>
      <trkpt lat="43.0567730" lon="-2.3201880">
        <ele>481.6</ele>
        <time>2020-08-14T09:58:35Z</time>
      </trkpt>
      <trkpt lat="43.0565080" lon="-2.3201620">
        <ele>482.8</ele>
        <time>2020-08-14T09:58:41Z</time>
      </trkpt>
      <trkpt lat="43.0563950" lon="-2.3200970">
        <ele>483.2</ele>
        <time>2020-08-14T09:58:44Z</time>
      </trkpt>
      <trkpt lat="43.0562500" lon="-2.3199670">
        <ele>483.8</ele>
        <time>2020-08-14T09:58:48Z</time>
      </trkpt>
      <trkpt lat="43.0560530" lon="-2.3197490">
        <ele>484.8</ele>
        <time>2020-08-14T09:58:54Z</time>
      </trkpt>
      <trkpt lat="43.0559290" lon="-2.3196020">
        <ele>485.8</ele>
        <time>2020-08-14T09:58:58Z</time>
      </trkpt>
      <trkpt lat="43.0557550" lon="-2.3194520">
        <ele>487.0</ele>
        <time>2020-08-14T09:59:03Z</time>
      </trkpt>
      <trkpt lat="43.0555600" lon="-2.3193260">
        <ele>488.2</ele>
        <time>2020-08-14T09:59:08Z</time>
      </trkpt>
      <trkpt lat="43.0553970" lon="-2.3192380">
        <ele>489.2</ele>
        <time>2020-08-14T09:59:12Z</time>
      </trkpt>
      <trkpt lat="43.0551900" lon="-2.3191250">
        <ele>490.4</ele>
        <time>2020-08-14T09:59:17Z</time>
      </trkpt>
      <trkpt lat="43.0550640" lon="-2.3190560">
        <ele>491.0</ele>
        <time>2020-08-14T09:59:20Z</time>
      </trkpt>
      <trkpt lat="43.0549720" lon="-2.3190400">
        <ele>491.2</ele>
        <time>2020-08-14T09:59:22Z</time>
      </trkpt>
      <trkpt lat="43.0549270" lon="-2.3190430">
        <ele>491.4</ele>
        <time>2020-08-14T09:59:23Z</time>
      </trkpt>
      <trkpt lat="43.0546610" lon="-2.3190490">
        <ele>492.4</ele>
        <time>2020-08-14T09:59:29Z</time>
      </trkpt>
      <trkpt lat="43.0544980" lon="-2.3189600">
        <ele>493.4</ele>
        <time>2020-08-14T09:59:33Z</time>
      </trkpt>
      <trkpt lat="43.0542670" lon="-2.3187820">
        <ele>494.4</ele>
        <time>2020-08-14T09:59:39Z</time>
      </trkpt>
      <trkpt lat="43.0540350" lon="-2.3186110">
        <ele>495.6</ele>
        <time>2020-08-14T09:59:45Z</time>
      </trkpt>
      <trkpt lat="43.0538850" lon="-2.3184870">
        <ele>496.6</ele>
        <time>2020-08-14T09:59:49Z</time>
      </trkpt>
      <trkpt lat="43.0537220" lon="-2.3183110">
        <ele>497.6</ele>
        <time>2020-08-14T09:59:54Z</time>
      </trkpt>
      <trkpt lat="43.0536890" lon="-2.3182660">
        <ele>497.8</ele>
        <time>2020-08-14T09:59:55Z</time>
      </trkpt>
      <trkpt lat="43.0536020" lon="-2.3181190">
        <ele>498.4</ele>
        <time>2020-08-14T09:59:58Z</time>
      </trkpt>
      <trkpt lat="43.0535540" lon="-2.3180180">
        <ele>498.8</ele>
        <time>2020-08-14T10:00:00Z</time>
      </trkpt>
      <trkpt lat="43.0535270" lon="-2.3179690">
        <ele>498.8</ele>
        <time>2020-08-14T10:00:01Z</time>
      </trkpt>
      <trkpt lat="43.0532070" lon="-2.3181850">
        <ele>499.6</ele>
        <time>2020-08-14T10:00:11Z</time>
      </trkpt>
      <trkpt lat="43.0531770" lon="-2.3184330">
        <ele>499.8</ele>
        <time>2020-08-14T10:00:15Z</time>
      </trkpt>
      <trkpt lat="43.0531370" lon="-2.3186790">
        <ele>500.8</ele>
        <time>2020-08-14T10:00:19Z</time>
      </trkpt>
      <trkpt lat="43.0531070" lon="-2.3189170">
        <ele>502.0</ele>
        <time>2020-08-14T10:00:23Z</time>
      </trkpt>
      <trkpt lat="43.0530410" lon="-2.3192420">
        <ele>503.2</ele>
        <time>2020-08-14T10:00:29Z</time>
      </trkpt>
      <trkpt lat="43.0529460" lon="-2.3193540">
        <ele>504.0</ele>
        <time>2020-08-14T10:00:32Z</time>
      </trkpt>
      <trkpt lat="43.0528630" lon="-2.3194020">
        <ele>504.2</ele>
        <time>2020-08-14T10:00:34Z</time>
      </trkpt>
      <trkpt lat="43.0526260" lon="-2.3193680">
        <ele>505.2</ele>
        <time>2020-08-14T10:00:40Z</time>
      </trkpt>
      <trkpt lat="43.0525550" lon="-2.3193090">
        <ele>505.4</ele>
        <time>2020-08-14T10:00:42Z</time>
      </trkpt>
      <trkpt lat="43.0523650" lon="-2.3191590">
        <ele>506.2</ele>
        <time>2020-08-14T10:00:47Z</time>
      </trkpt>
      <trkpt lat="43.0522090" lon="-2.3190820">
        <ele>507.2</ele>
        <time>2020-08-14T10:00:51Z</time>
      </trkpt>
      <trkpt lat="43.0521630" lon="-2.3190750">
        <ele>507.4</ele>
        <time>2020-08-14T10:00:52Z</time>
      </trkpt>
      <trkpt lat="43.0520700" lon="-2.3190660">
        <ele>508.0</ele>
        <time>2020-08-14T10:00:54Z</time>
      </trkpt>
      <trkpt lat="43.0519780" lon="-2.3190870">
        <ele>508.6</ele>
        <time>2020-08-14T10:00:56Z</time>
      </trkpt>
      <trkpt lat="43.0518610" lon="-2.3191700">
        <ele>509.6</ele>
        <time>2020-08-14T10:00:59Z</time>
      </trkpt>
      <trkpt lat="43.0517240" lon="-2.3193980">
        <ele>510.6</ele>
        <time>2020-08-14T10:01:04Z</time>
      </trkpt>
      <trkpt lat="43.0516700" lon="-2.3195470">
        <ele>511.4</ele>
        <time>2020-08-14T10:01:07Z</time>
      </trkpt>
      <trkpt lat="43.0516300" lon="-2.3196350">
        <ele>511.8</ele>
        <time>2020-08-14T10:01:09Z</time>
      </trkpt>
      <trkpt lat="43.0515360" lon="-2.3198740">
        <ele>512.8</ele>
        <time>2020-08-14T10:01:14Z</time>
      </trkpt>
      <trkpt lat="43.0514430" lon="-2.3200110">
        <ele>513.6</ele>
        <time>2020-08-14T10:01:17Z</time>
      </trkpt>
      <trkpt lat="43.0513740" lon="-2.3200870">
        <ele>514.0</ele>
        <time>2020-08-14T10:01:19Z</time>
      </trkpt>
      <trkpt lat="43.0512170" lon="-2.3202110">
        <ele>515.0</ele>
        <time>2020-08-14T10:01:23Z</time>
      </trkpt>
      <trkpt lat="43.0511720" lon="-2.3202240">
        <ele>515.0</ele>
        <time>2020-08-14T10:01:24Z</time>
      </trkpt>
      <trkpt lat="43.0509560" lon="-2.3202450">
        <ele>516.2</ele>
        <time>2020-08-14T10:01:29Z</time>
      </trkpt>
      <trkpt lat="43.0506800" lon="-2.3203230">
        <ele>517.2</ele>
        <time>2020-08-14T10:01:36Z</time>
      </trkpt>
      <trkpt lat="43.0505130" lon="-2.3204470">
        <ele>518.0</ele>
        <time>2020-08-14T10:01:41Z</time>
      </trkpt>
      <trkpt lat="43.0504870" lon="-2.3204880">
        <ele>518.2</ele>
        <time>2020-08-14T10:01:42Z</time>
      </trkpt>
      <trkpt lat="43.0504410" lon="-2.3205800">
        <ele>518.6</ele>
        <time>2020-08-14T10:01:44Z</time>
      </trkpt>
      <trkpt lat="43.0502180" lon="-2.3209640">
        <ele>519.0</ele>
        <time>2020-08-14T10:01:51Z</time>
      </trkpt>
      <trkpt lat="43.0498520" lon="-2.3215200">
        <ele>518.2</ele>
        <time>2020-08-14T10:01:59Z</time>
      </trkpt>
      <trkpt lat="43.0497050" lon="-2.3218640">
        <ele>517.4</ele>
        <time>2020-08-14T10:02:03Z</time>
      </trkpt>
      <trkpt lat="43.0496850" lon="-2.3219590">
        <ele>517.0</ele>
        <time>2020-08-14T10:02:04Z</time>
      </trkpt>
      <trkpt lat="43.0497210" lon="-2.3222440">
        <ele>515.8</ele>
        <time>2020-08-14T10:02:07Z</time>
      </trkpt>
      <trkpt lat="43.0497480" lon="-2.3223360">
        <ele>515.4</ele>
        <time>2020-08-14T10:02:08Z</time>
      </trkpt>
      <trkpt lat="43.0498250" lon="-2.3226230">
        <ele>514.6</ele>
        <time>2020-08-14T10:02:11Z</time>
      </trkpt>
      <trkpt lat="43.0498350" lon="-2.3227240">
        <ele>514.2</ele>
        <time>2020-08-14T10:02:12Z</time>
      </trkpt>
      <trkpt lat="43.0498430" lon="-2.3229360">
        <ele>513.6</ele>
        <time>2020-08-14T10:02:14Z</time>
      </trkpt>
      <trkpt lat="43.0498210" lon="-2.3232670">
        <ele>512.8</ele>
        <time>2020-08-14T10:02:17Z</time>
      </trkpt>
      <trkpt lat="43.0498040" lon="-2.3237340">
        <ele>512.2</ele>
        <time>2020-08-14T10:02:21Z</time>
      </trkpt>
      <trkpt lat="43.0498390" lon="-2.3242080">
        <ele>511.0</ele>
        <time>2020-08-14T10:02:25Z</time>
      </trkpt>
      <trkpt lat="43.0498350" lon="-2.3244520">
        <ele>510.2</ele>
        <time>2020-08-14T10:02:27Z</time>
      </trkpt>
      <trkpt lat="43.0497940" lon="-2.3245590">
        <ele>509.8</ele>
        <time>2020-08-14T10:02:28Z</time>
      </trkpt>
      <trkpt lat="43.0496130" lon="-2.3247820">
        <ele>508.4</ele>
        <time>2020-08-14T10:02:31Z</time>
      </trkpt>
      <trkpt lat="43.0493640" lon="-2.3247500">
        <ele>507.4</ele>
        <time>2020-08-14T10:02:34Z</time>
      </trkpt>
      <trkpt lat="43.0491810" lon="-2.3246760">
        <ele>507.0</ele>
        <time>2020-08-14T10:02:36Z</time>
      </trkpt>
      <trkpt lat="43.0490950" lon="-2.3246600">
        <ele>506.6</ele>
        <time>2020-08-14T10:02:37Z</time>
      </trkpt>
      <trkpt lat="43.0490150" lon="-2.3246630">
        <ele>506.4</ele>
        <time>2020-08-14T10:02:38Z</time>
      </trkpt>
      <trkpt lat="43.0488080" lon="-2.3248170">
        <ele>505.4</ele>
        <time>2020-08-14T10:02:41Z</time>
      </trkpt>
      <trkpt lat="43.0487230" lon="-2.3252370">
        <ele>504.0</ele>
        <time>2020-08-14T10:02:45Z</time>
      </trkpt>
      <trkpt lat="43.0488200" lon="-2.3255220">
        <ele>503.0</ele>
        <time>2020-08-14T10:02:48Z</time>
      </trkpt>
      <trkpt lat="43.0488490" lon="-2.3256180">
        <ele>502.8</ele>
        <time>2020-08-14T10:02:49Z</time>
      </trkpt>
      <trkpt lat="43.0488790" lon="-2.3257180">
        <ele>502.6</ele>
        <time>2020-08-14T10:02:50Z</time>
      </trkpt>
      <trkpt lat="43.0488530" lon="-2.3259810">
        <ele>501.8</ele>
        <time>2020-08-14T10:02:53Z</time>
      </trkpt>
      <trkpt lat="43.0485380" lon="-2.3262380">
        <ele>501.0</ele>
        <time>2020-08-14T10:02:58Z</time>
      </trkpt>
      <trkpt lat="43.0483210" lon="-2.3264020">
        <ele>500.6</ele>
        <time>2020-08-14T10:03:01Z</time>
      </trkpt>
      <trkpt lat="43.0481790" lon="-2.3265020">
        <ele>500.2</ele>
        <time>2020-08-14T10:03:03Z</time>
      </trkpt>
      <trkpt lat="43.0480910" lon="-2.3266850">
        <ele>499.6</ele>
        <time>2020-08-14T10:03:05Z</time>
      </trkpt>
      <trkpt lat="43.0481290" lon="-2.3270950">
        <ele>498.4</ele>
        <time>2020-08-14T10:03:09Z</time>
      </trkpt>
      <trkpt lat="43.0482020" lon="-2.3272980">
        <ele>497.8</ele>
        <time>2020-08-14T10:03:11Z</time>
      </trkpt>
      <trkpt lat="43.0482720" lon="-2.3275090">
        <ele>497.2</ele>
        <time>2020-08-14T10:03:13Z</time>
      </trkpt>
      <trkpt lat="43.0483760" lon="-2.3278200">
        <ele>496.6</ele>
        <time>2020-08-14T10:03:16Z</time>
      </trkpt>
      <trkpt lat="43.0484230" lon="-2.3280340">
        <ele>496.2</ele>
        <time>2020-08-14T10:03:18Z</time>
      </trkpt>
      <trkpt lat="43.0484290" lon="-2.3281430">
        <ele>496.0</ele>
        <time>2020-08-14T10:03:19Z</time>
      </trkpt>
      <trkpt lat="43.0481460" lon="-2.3285980">
        <ele>494.8</ele>
        <time>2020-08-14T10:03:25Z</time>
      </trkpt>
      <trkpt lat="43.0480610" lon="-2.3286210">
        <ele>494.6</ele>
        <time>2020-08-14T10:03:26Z</time>
      </trkpt>
      <trkpt lat="43.0478950" lon="-2.3286880">
        <ele>494.2</ele>
        <time>2020-08-14T10:03:28Z</time>
      </trkpt>
      <trkpt lat="43.0477380" lon="-2.3289440">
        <ele>493.4</ele>
        <time>2020-08-14T10:03:31Z</time>
      </trkpt>
      <trkpt lat="43.0477840" lon="-2.3292430">
        <ele>492.0</ele>
        <time>2020-08-14T10:03:34Z</time>
      </trkpt>
      <trkpt lat="43.0480120" lon="-2.3295390">
        <ele>490.6</ele>
        <time>2020-08-14T10:03:38Z</time>
      </trkpt>
      <trkpt lat="43.0480830" lon="-2.3296040">
        <ele>490.4</ele>
        <time>2020-08-14T10:03:39Z</time>
      </trkpt>
      <trkpt lat="43.0481410" lon="-2.3296820">
        <ele>490.2</ele>
        <time>2020-08-14T10:03:40Z</time>
      </trkpt>
      <trkpt lat="43.0482700" lon="-2.3300960">
        <ele>489.6</ele>
        <time>2020-08-14T10:03:44Z</time>
      </trkpt>
      <trkpt lat="43.0482870" lon="-2.3305520">
        <ele>488.2</ele>
        <time>2020-08-14T10:03:48Z</time>
      </trkpt>
      <trkpt lat="43.0482140" lon="-2.3308810">
        <ele>487.2</ele>
        <time>2020-08-14T10:03:51Z</time>
      </trkpt>
      <trkpt lat="43.0480790" lon="-2.3311770">
        <ele>485.8</ele>
        <time>2020-08-14T10:03:54Z</time>
      </trkpt>
      <trkpt lat="43.0478970" lon="-2.3315900">
        <ele>484.6</ele>
        <time>2020-08-14T10:03:58Z</time>
      </trkpt>
      <trkpt lat="43.0477810" lon="-2.3320670">
        <ele>483.2</ele>
        <time>2020-08-14T10:04:02Z</time>
      </trkpt>
      <trkpt lat="43.0476990" lon="-2.3322930">
        <ele>482.4</ele>
        <time>2020-08-14T10:04:04Z</time>
      </trkpt>
      <trkpt lat="43.0476440" lon="-2.3324020">
        <ele>482.2</ele>
        <time>2020-08-14T10:04:05Z</time>
      </trkpt>
      <trkpt lat="43.0474850" lon="-2.3327210">
        <ele>480.8</ele>
        <time>2020-08-14T10:04:08Z</time>
      </trkpt>
      <trkpt lat="43.0473090" lon="-2.3330470">
        <ele>479.8</ele>
        <time>2020-08-14T10:04:11Z</time>
      </trkpt>
      <trkpt lat="43.0471250" lon="-2.3333730">
        <ele>478.6</ele>
        <time>2020-08-14T10:04:14Z</time>
      </trkpt>
      <trkpt lat="43.0469880" lon="-2.3335720">
        <ele>477.6</ele>
        <time>2020-08-14T10:04:16Z</time>
      </trkpt>
      <trkpt lat="43.0468920" lon="-2.3336400">
        <ele>477.2</ele>
        <time>2020-08-14T10:04:17Z</time>
      </trkpt>
      <trkpt lat="43.0466290" lon="-2.3338320">
        <ele>476.2</ele>
        <time>2020-08-14T10:04:20Z</time>
      </trkpt>
      <trkpt lat="43.0463870" lon="-2.3340590">
        <ele>475.0</ele>
        <time>2020-08-14T10:04:23Z</time>
      </trkpt>
      <trkpt lat="43.0461450" lon="-2.3343010">
        <ele>473.8</ele>
        <time>2020-08-14T10:04:26Z</time>
      </trkpt>
      <trkpt lat="43.0459880" lon="-2.3344950">
        <ele>472.4</ele>
        <time>2020-08-14T10:04:28Z</time>
      </trkpt>
      <trkpt lat="43.0458310" lon="-2.3348830">
        <ele>471.0</ele>
        <time>2020-08-14T10:04:31Z</time>
      </trkpt>
      <trkpt lat="43.0456840" lon="-2.3352420">
        <ele>469.6</ele>
        <time>2020-08-14T10:04:34Z</time>
      </trkpt>
      <trkpt lat="43.0455370" lon="-2.3354170">
        <ele>468.6</ele>
        <time>2020-08-14T10:04:36Z</time>
      </trkpt>
      <trkpt lat="43.0453570" lon="-2.3355190">
        <ele>467.6</ele>
        <time>2020-08-14T10:04:38Z</time>
      </trkpt>
      <trkpt lat="43.0452620" lon="-2.3355660">
        <ele>467.2</ele>
        <time>2020-08-14T10:04:39Z</time>
      </trkpt>
      <trkpt lat="43.0448850" lon="-2.3357670">
        <ele>466.2</ele>
        <time>2020-08-14T10:04:43Z</time>
      </trkpt>
      <trkpt lat="43.0447070" lon="-2.3358840">
        <ele>465.0</ele>
        <time>2020-08-14T10:04:45Z</time>
      </trkpt>
      <trkpt lat="43.0444310" lon="-2.3360340">
        <ele>464.2</ele>
        <time>2020-08-14T10:04:48Z</time>
      </trkpt>
      <trkpt lat="43.0443350" lon="-2.3360630">
        <ele>463.6</ele>
        <time>2020-08-14T10:04:49Z</time>
      </trkpt>
      <trkpt lat="43.0440410" lon="-2.3361490">
        <ele>462.2</ele>
        <time>2020-08-14T10:04:52Z</time>
      </trkpt>
      <trkpt lat="43.0437390" lon="-2.3362340">
        <ele>461.2</ele>
        <time>2020-08-14T10:04:55Z</time>
      </trkpt>
      <trkpt lat="43.0436340" lon="-2.3362450">
        <ele>460.8</ele>
        <time>2020-08-14T10:04:56Z</time>
      </trkpt>
      <trkpt lat="43.0433200" lon="-2.3362190">
        <ele>459.8</ele>
        <time>2020-08-14T10:04:59Z</time>
      </trkpt>
      <trkpt lat="43.0431140" lon="-2.3361370">
        <ele>458.6</ele>
        <time>2020-08-14T10:05:01Z</time>
      </trkpt>
      <trkpt lat="43.0430140" lon="-2.3360850">
        <ele>458.0</ele>
        <time>2020-08-14T10:05:02Z</time>
      </trkpt>
      <trkpt lat="43.0428210" lon="-2.3359660">
        <ele>457.2</ele>
        <time>2020-08-14T10:05:04Z</time>
      </trkpt>
      <trkpt lat="43.0426360" lon="-2.3358540">
        <ele>456.2</ele>
        <time>2020-08-14T10:05:06Z</time>
      </trkpt>
      <trkpt lat="43.0424510" lon="-2.3357370">
        <ele>454.8</ele>
        <time>2020-08-14T10:05:08Z</time>
      </trkpt>
      <trkpt lat="43.0421810" lon="-2.3355380">
        <ele>453.2</ele>
        <time>2020-08-14T10:05:11Z</time>
      </trkpt>
      <trkpt lat="43.0419220" lon="-2.3353290">
        <ele>451.8</ele>
        <time>2020-08-14T10:05:14Z</time>
      </trkpt>
      <trkpt lat="43.0418300" lon="-2.3352840">
        <ele>451.6</ele>
        <time>2020-08-14T10:05:15Z</time>
      </trkpt>
      <trkpt lat="43.0416280" lon="-2.3352270">
        <ele>450.8</ele>
        <time>2020-08-14T10:05:17Z</time>
      </trkpt>
      <trkpt lat="43.0413040" lon="-2.3351230">
        <ele>449.4</ele>
        <time>2020-08-14T10:05:20Z</time>
      </trkpt>
      <trkpt lat="43.0409910" lon="-2.3350350">
        <ele>448.0</ele>
        <time>2020-08-14T10:05:23Z</time>
      </trkpt>
      <trkpt lat="43.0407790" lon="-2.3350560">
        <ele>446.8</ele>
        <time>2020-08-14T10:05:25Z</time>
      </trkpt>
      <trkpt lat="43.0405730" lon="-2.3351040">
        <ele>445.4</ele>
        <time>2020-08-14T10:05:27Z</time>
      </trkpt>
      <trkpt lat="43.0403720" lon="-2.3351440">
        <ele>444.0</ele>
        <time>2020-08-14T10:05:29Z</time>
      </trkpt>
      <trkpt lat="43.0401790" lon="-2.3351800">
        <ele>442.8</ele>
        <time>2020-08-14T10:05:31Z</time>
      </trkpt>
      <trkpt lat="43.0399150" lon="-2.3352290">
        <ele>441.4</ele>
        <time>2020-08-14T10:05:34Z</time>
      </trkpt>
      <trkpt lat="43.0393190" lon="-2.3352900">
        <ele>441.0</ele>
        <time>2020-08-14T10:05:42Z</time>
      </trkpt>
      <trkpt lat="43.0390330" lon="-2.3350280">
        <ele>441.4</ele>
        <time>2020-08-14T10:05:47Z</time>
      </trkpt>
      <trkpt lat="43.0388750" lon="-2.3348300">
        <ele>441.4</ele>
        <time>2020-08-14T10:05:50Z</time>
      </trkpt>
      <trkpt lat="43.0385490" lon="-2.3352640">
        <ele>440.6</ele>
        <time>2020-08-14T10:05:58Z</time>
      </trkpt>
      <trkpt lat="43.0385600" lon="-2.3353780">
        <ele>440.2</ele>
        <time>2020-08-14T10:05:59Z</time>
      </trkpt>
      <trkpt lat="43.0386060" lon="-2.3357450">
        <ele>439.0</ele>
        <time>2020-08-14T10:06:02Z</time>
      </trkpt>
      <trkpt lat="43.0386400" lon="-2.3361350">
        <ele>437.4</ele>
        <time>2020-08-14T10:06:05Z</time>
      </trkpt>
      <trkpt lat="43.0387520" lon="-2.3363280">
        <ele>436.4</ele>
        <time>2020-08-14T10:06:07Z</time>
      </trkpt>
      <trkpt lat="43.0389140" lon="-2.3364260">
        <ele>435.2</ele>
        <time>2020-08-14T10:06:09Z</time>
      </trkpt>
      <trkpt lat="43.0389980" lon="-2.3364590">
        <ele>434.6</ele>
        <time>2020-08-14T10:06:10Z</time>
      </trkpt>
      <trkpt lat="43.0390820" lon="-2.3364910">
        <ele>433.0</ele>
        <time>2020-08-14T10:06:11Z</time>
      </trkpt>
      <trkpt lat="43.0392560" lon="-2.3365600">
        <ele>431.6</ele>
        <time>2020-08-14T10:06:13Z</time>
      </trkpt>
      <trkpt lat="43.0393440" lon="-2.3365810">
        <ele>431.0</ele>
        <time>2020-08-14T10:06:14Z</time>
      </trkpt>
      <trkpt lat="43.0394320" lon="-2.3365840">
        <ele>430.6</ele>
        <time>2020-08-14T10:06:15Z</time>
      </trkpt>
      <trkpt lat="43.0397870" lon="-2.3364900">
        <ele>429.4</ele>
        <time>2020-08-14T10:06:19Z</time>
      </trkpt>
      <trkpt lat="43.0400920" lon="-2.3362010">
        <ele>428.4</ele>
        <time>2020-08-14T10:06:23Z</time>
      </trkpt>
      <trkpt lat="43.0404800" lon="-2.3357670">
        <ele>427.2</ele>
        <time>2020-08-14T10:06:28Z</time>
      </trkpt>
      <trkpt lat="43.0410370" lon="-2.3356030">
        <ele>426.2</ele>
        <time>2020-08-14T10:06:34Z</time>
      </trkpt>
      <trkpt lat="43.0411300" lon="-2.3356240">
        <ele>426.2</ele>
        <time>2020-08-14T10:06:35Z</time>
      </trkpt>
      <trkpt lat="43.0416510" lon="-2.3360820">
        <ele>425.6</ele>
        <time>2020-08-14T10:06:41Z</time>
      </trkpt>
      <trkpt lat="43.0420440" lon="-2.3365470">
        <ele>425.0</ele>
        <time>2020-08-14T10:06:46Z</time>
      </trkpt>
      <trkpt lat="43.0424880" lon="-2.3369440">
        <ele>424.0</ele>
        <time>2020-08-14T10:06:51Z</time>
      </trkpt>
      <trkpt lat="43.0427380" lon="-2.3371460">
        <ele>423.0</ele>
        <time>2020-08-14T10:06:54Z</time>
      </trkpt>
      <trkpt lat="43.0430120" lon="-2.3375230">
        <ele>421.8</ele>
        <time>2020-08-14T10:06:58Z</time>
      </trkpt>
      <trkpt lat="43.0430770" lon="-2.3376190">
        <ele>421.8</ele>
        <time>2020-08-14T10:06:59Z</time>
      </trkpt>
      <trkpt lat="43.0435020" lon="-2.3378760">
        <ele>421.0</ele>
        <time>2020-08-14T10:07:04Z</time>
      </trkpt>
      <trkpt lat="43.0436910" lon="-2.3378880">
        <ele>421.0</ele>
        <time>2020-08-14T10:07:06Z</time>
      </trkpt>
      <trkpt lat="43.0439730" lon="-2.3378000">
        <ele>420.6</ele>
        <time>2020-08-14T10:07:09Z</time>
      </trkpt>
      <trkpt lat="43.0445270" lon="-2.3375420">
        <ele>420.0</ele>
        <time>2020-08-14T10:07:15Z</time>
      </trkpt>
      <trkpt lat="43.0447940" lon="-2.3373690">
        <ele>420.0</ele>
        <time>2020-08-14T10:07:18Z</time>
      </trkpt>
      <trkpt lat="43.0450430" lon="-2.3371660">
        <ele>419.4</ele>
        <time>2020-08-14T10:07:21Z</time>
      </trkpt>
      <trkpt lat="43.0455430" lon="-2.3367670">
        <ele>419.0</ele>
        <time>2020-08-14T10:07:27Z</time>
      </trkpt>
      <trkpt lat="43.0456230" lon="-2.3366950">
        <ele>418.8</ele>
        <time>2020-08-14T10:07:28Z</time>
      </trkpt>
      <trkpt lat="43.0459510" lon="-2.3364220">
        <ele>417.6</ele>
        <time>2020-08-14T10:07:32Z</time>
      </trkpt>
      <trkpt lat="43.0464640" lon="-2.3360710">
        <ele>417.4</ele>
        <time>2020-08-14T10:07:38Z</time>
      </trkpt>
      <trkpt lat="43.0468350" lon="-2.3359600">
        <ele>417.2</ele>
        <time>2020-08-14T10:07:42Z</time>
      </trkpt>
      <trkpt lat="43.0472530" lon="-2.3354200">
        <ele>417.0</ele>
        <time>2020-08-14T10:07:49Z</time>
      </trkpt>
      <trkpt lat="43.0477570" lon="-2.3349310">
        <ele>416.6</ele>
        <time>2020-08-14T10:07:56Z</time>
      </trkpt>
      <trkpt lat="43.0481980" lon="-2.3343240">
        <ele>416.6</ele>
        <time>2020-08-14T10:08:03Z</time>
      </trkpt>
      <trkpt lat="43.0485640" lon="-2.3337570">
        <ele>416.8</ele>
        <time>2020-08-14T10:08:09Z</time>
      </trkpt>
      <trkpt lat="43.0489720" lon="-2.3332020">
        <ele>416.8</ele>
        <time>2020-08-14T10:08:15Z</time>
      </trkpt>
      <trkpt lat="43.0493910" lon="-2.3327020">
        <ele>416.4</ele>
        <time>2020-08-14T10:08:21Z</time>
      </trkpt>
      <trkpt lat="43.0496840" lon="-2.3320660">
        <ele>415.6</ele>
        <time>2020-08-14T10:08:28Z</time>
      </trkpt>
      <trkpt lat="43.0499310" lon="-2.3324150">
        <ele>414.2</ele>
        <time>2020-08-14T10:08:33Z</time>
      </trkpt>
      <trkpt lat="43.0500450" lon="-2.3326990">
        <ele>413.8</ele>
        <time>2020-08-14T10:08:36Z</time>
      </trkpt>
      <trkpt lat="43.0501260" lon="-2.3329650">
        <ele>412.6</ele>
        <time>2020-08-14T10:08:39Z</time>
      </trkpt>
      <trkpt lat="43.0502040" lon="-2.3331150">
        <ele>411.8</ele>
        <time>2020-08-14T10:08:41Z</time>
      </trkpt>
      <trkpt lat="43.0502530" lon="-2.3331810">
        <ele>411.6</ele>
        <time>2020-08-14T10:08:42Z</time>
      </trkpt>
      <trkpt lat="43.0502990" lon="-2.3332330">
        <ele>411.6</ele>
        <time>2020-08-14T10:08:43Z</time>
      </trkpt>
      <trkpt lat="43.0503840" lon="-2.3333340">
        <ele>411.4</ele>
        <time>2020-08-14T10:08:45Z</time>
      </trkpt>
      <trkpt lat="43.0506520" lon="-2.3339210">
        <ele>411.4</ele>
        <time>2020-08-14T10:08:54Z</time>
      </trkpt>
      <trkpt lat="43.0506810" lon="-2.3340320">
        <ele>411.4</ele>
        <time>2020-08-14T10:08:56Z</time>
      </trkpt>
      <trkpt lat="43.0508720" lon="-2.3340660">
        <ele>411.4</ele>
        <time>2020-08-14T10:09:01Z</time>
      </trkpt>
      <trkpt lat="43.0509790" lon="-2.3340170">
        <ele>411.4</ele>
        <time>2020-08-14T10:09:03Z</time>
      </trkpt>
      <trkpt lat="43.0512650" lon="-2.3339750">
        <ele>411.6</ele>
        <time>2020-08-14T10:09:08Z</time>
      </trkpt>
      <trkpt lat="43.0515190" lon="-2.3339160">
        <ele>411.8</ele>
        <time>2020-08-14T10:09:13Z</time>
      </trkpt>
      <trkpt lat="43.0516270" lon="-2.3338450">
        <ele>412.2</ele>
        <time>2020-08-14T10:09:15Z</time>
      </trkpt>
      <trkpt lat="43.0517290" lon="-2.3337350">
        <ele>412.8</ele>
        <time>2020-08-14T10:09:17Z</time>
      </trkpt>
      <trkpt lat="43.0521520" lon="-2.3332700">
        <ele>413.6</ele>
        <time>2020-08-14T10:09:25Z</time>
      </trkpt>
      <trkpt lat="43.0522020" lon="-2.3331980">
        <ele>413.6</ele>
        <time>2020-08-14T10:09:26Z</time>
      </trkpt>
      <trkpt lat="43.0524750" lon="-2.3330960">
        <ele>413.6</ele>
        <time>2020-08-14T10:09:30Z</time>
      </trkpt>
      <trkpt lat="43.0530340" lon="-2.3331110">
        <ele>413.2</ele>
        <time>2020-08-14T10:09:38Z</time>
      </trkpt>
      <trkpt lat="43.0531690" lon="-2.3331260">
        <ele>413.2</ele>
        <time>2020-08-14T10:09:40Z</time>
      </trkpt>
      <trkpt lat="43.0532990" lon="-2.3331500">
        <ele>413.6</ele>
        <time>2020-08-14T10:09:42Z</time>
      </trkpt>
      <trkpt lat="43.0534280" lon="-2.3331510">
        <ele>414.4</ele>
        <time>2020-08-14T10:09:44Z</time>
      </trkpt>
      <trkpt lat="43.0537300" lon="-2.3331430">
        <ele>415.2</ele>
        <time>2020-08-14T10:09:49Z</time>
      </trkpt>
      <trkpt lat="43.0538350" lon="-2.3331220">
        <ele>415.4</ele>
        <time>2020-08-14T10:09:51Z</time>
      </trkpt>
      <trkpt lat="43.0539590" lon="-2.3331320">
        <ele>415.6</ele>
        <time>2020-08-14T10:09:53Z</time>
      </trkpt>
      <trkpt lat="43.0542700" lon="-2.3331520">
        <ele>415.8</ele>
        <time>2020-08-14T10:09:59Z</time>
      </trkpt>
      <trkpt lat="43.0542570" lon="-2.3334680">
        <ele>416.4</ele>
        <time>2020-08-14T10:10:04Z</time>
      </trkpt>
      <trkpt lat="43.0541510" lon="-2.3340990">
        <ele>417.6</ele>
        <time>2020-08-14T10:10:15Z</time>
      </trkpt>
      <trkpt lat="43.0541260" lon="-2.3342960">
        <ele>418.8</ele>
        <time>2020-08-14T10:10:19Z</time>
      </trkpt>
      <trkpt lat="43.0541270" lon="-2.3344370">
        <ele>420.0</ele>
        <time>2020-08-14T10:10:22Z</time>
      </trkpt>
      <trkpt lat="43.0541350" lon="-2.3345790">
        <ele>421.2</ele>
        <time>2020-08-14T10:10:25Z</time>
      </trkpt>
      <trkpt lat="43.0541480" lon="-2.3346710">
        <ele>422.4</ele>
        <time>2020-08-14T10:10:27Z</time>
      </trkpt>
      <trkpt lat="43.0541740" lon="-2.3348230">
        <ele>423.6</ele>
        <time>2020-08-14T10:10:30Z</time>
      </trkpt>
      <trkpt lat="43.0542050" lon="-2.3349530">
        <ele>425.0</ele>
        <time>2020-08-14T10:10:33Z</time>
      </trkpt>
      <trkpt lat="43.0542470" lon="-2.3351160">
        <ele>426.0</ele>
        <time>2020-08-14T10:10:37Z</time>
      </trkpt>
      <trkpt lat="43.0542800" lon="-2.3352310">
        <ele>427.0</ele>
        <time>2020-08-14T10:10:40Z</time>
      </trkpt>
      <trkpt lat="43.0543310" lon="-2.3354050">
        <ele>428.2</ele>
        <time>2020-08-14T10:10:45Z</time>
      </trkpt>
      <trkpt lat="43.0543640" lon="-2.3355390">
        <ele>429.2</ele>
        <time>2020-08-14T10:10:49Z</time>
      </trkpt>
      <trkpt lat="43.0543790" lon="-2.3356050">
        <ele>430.4</ele>
        <time>2020-08-14T10:10:51Z</time>
      </trkpt>
      <trkpt lat="43.0544090" lon="-2.3357210">
        <ele>431.8</ele>
        <time>2020-08-14T10:10:55Z</time>
      </trkpt>
      <trkpt lat="43.0544400" lon="-2.3358330">
        <ele>432.8</ele>
        <time>2020-08-14T10:10:59Z</time>
      </trkpt>
      <trkpt lat="43.0544660" lon="-2.3359520">
        <ele>434.0</ele>
        <time>2020-08-14T10:11:03Z</time>
      </trkpt>
      <trkpt lat="43.0544840" lon="-2.3360790">
        <ele>435.2</ele>
        <time>2020-08-14T10:11:07Z</time>
      </trkpt>
      <trkpt lat="43.0545020" lon="-2.3362030">
        <ele>436.4</ele>
        <time>2020-08-14T10:11:11Z</time>
      </trkpt>
      <trkpt lat="43.0545020" lon="-2.3363610">
        <ele>437.6</ele>
        <time>2020-08-14T10:11:16Z</time>
      </trkpt>
      <trkpt lat="43.0544820" lon="-2.3364740">
        <ele>438.6</ele>
        <time>2020-08-14T10:11:20Z</time>
      </trkpt>
      <trkpt lat="43.0544380" lon="-2.3365590">
        <ele>439.6</ele>
        <time>2020-08-14T10:11:24Z</time>
      </trkpt>
      <trkpt lat="43.0544280" lon="-2.3365740">
        <ele>440.0</ele>
        <time>2020-08-14T10:11:25Z</time>
      </trkpt>
      <trkpt lat="43.0544020" lon="-2.3366530">
        <ele>440.8</ele>
        <time>2020-08-14T10:11:29Z</time>
      </trkpt>
      <trkpt lat="43.0543610" lon="-2.3368180">
        <ele>441.8</ele>
        <time>2020-08-14T10:11:35Z</time>
      </trkpt>
      <trkpt lat="43.0542430" lon="-2.3372290">
        <ele>443.0</ele>
        <time>2020-08-14T10:11:45Z</time>
      </trkpt>
      <trkpt lat="43.0542350" lon="-2.3372780">
        <ele>443.2</ele>
        <time>2020-08-14T10:11:46Z</time>
      </trkpt>
      <trkpt lat="43.0541200" lon="-2.3375000">
        <ele>444.2</ele>
        <time>2020-08-14T10:11:51Z</time>
      </trkpt>
      <trkpt lat="43.0538420" lon="-2.3376570">
        <ele>445.2</ele>
        <time>2020-08-14T10:11:57Z</time>
      </trkpt>
      <trkpt lat="43.0537080" lon="-2.3377150">
        <ele>446.6</ele>
        <time>2020-08-14T10:12:00Z</time>
      </trkpt>
      <trkpt lat="43.0535770" lon="-2.3377880">
        <ele>447.6</ele>
        <time>2020-08-14T10:12:03Z</time>
      </trkpt>
      <trkpt lat="43.0534590" lon="-2.3378600">
        <ele>449.2</ele>
        <time>2020-08-14T10:12:06Z</time>
      </trkpt>
      <trkpt lat="43.0533800" lon="-2.3379190">
        <ele>450.4</ele>
        <time>2020-08-14T10:12:08Z</time>
      </trkpt>
      <trkpt lat="43.0533440" lon="-2.3379510">
        <ele>450.8</ele>
        <time>2020-08-14T10:12:09Z</time>
      </trkpt>
      <trkpt lat="43.0533100" lon="-2.3379850">
        <ele>451.4</ele>
        <time>2020-08-14T10:12:10Z</time>
      </trkpt>
      <trkpt lat="43.0532720" lon="-2.3380920">
        <ele>452.6</ele>
        <time>2020-08-14T10:12:12Z</time>
      </trkpt>
      <trkpt lat="43.0532890" lon="-2.3382580">
        <ele>454.0</ele>
        <time>2020-08-14T10:12:15Z</time>
      </trkpt>
      <trkpt lat="43.0533040" lon="-2.3383050">
        <ele>454.4</ele>
        <time>2020-08-14T10:12:16Z</time>
      </trkpt>
      <trkpt lat="43.0533390" lon="-2.3383830">
        <ele>455.4</ele>
        <time>2020-08-14T10:12:18Z</time>
      </trkpt>
      <trkpt lat="43.0533920" lon="-2.3384760">
        <ele>456.4</ele>
        <time>2020-08-14T10:12:20Z</time>
      </trkpt>
      <trkpt lat="43.0534220" lon="-2.3385220">
        <ele>457.0</ele>
        <time>2020-08-14T10:12:21Z</time>
      </trkpt>
      <trkpt lat="43.0534580" lon="-2.3385630">
        <ele>457.6</ele>
        <time>2020-08-14T10:12:22Z</time>
      </trkpt>
      <trkpt lat="43.0535300" lon="-2.3386420">
        <ele>458.6</ele>
        <time>2020-08-14T10:12:24Z</time>
      </trkpt>
      <trkpt lat="43.0536380" lon="-2.3387410">
        <ele>459.8</ele>
        <time>2020-08-14T10:12:27Z</time>
      </trkpt>
      <trkpt lat="43.0537440" lon="-2.3388410">
        <ele>461.0</ele>
        <time>2020-08-14T10:12:30Z</time>
      </trkpt>
      <trkpt lat="43.0538070" lon="-2.3389240">
        <ele>462.0</ele>
        <time>2020-08-14T10:12:32Z</time>
      </trkpt>
      <trkpt lat="43.0538530" lon="-2.3390190">
        <ele>463.4</ele>
        <time>2020-08-14T10:12:34Z</time>
      </trkpt>
      <trkpt lat="43.0539170" lon="-2.3391540">
        <ele>464.8</ele>
        <time>2020-08-14T10:12:37Z</time>
      </trkpt>
      <trkpt lat="43.0539860" lon="-2.3392840">
        <ele>466.2</ele>
        <time>2020-08-14T10:12:40Z</time>
      </trkpt>
      <trkpt lat="43.0540650" lon="-2.3394220">
        <ele>467.8</ele>
        <time>2020-08-14T10:12:43Z</time>
      </trkpt>
      <trkpt lat="43.0541670" lon="-2.3395930">
        <ele>469.0</ele>
        <time>2020-08-14T10:12:47Z</time>
      </trkpt>
      <trkpt lat="43.0542440" lon="-2.3397280">
        <ele>470.0</ele>
        <time>2020-08-14T10:12:50Z</time>
      </trkpt>
      <trkpt lat="43.0542820" lon="-2.3398300">
        <ele>471.0</ele>
        <time>2020-08-14T10:12:52Z</time>
      </trkpt>
      <trkpt lat="43.0543460" lon="-2.3399710">
        <ele>472.8</ele>
        <time>2020-08-14T10:12:55Z</time>
      </trkpt>
      <trkpt lat="43.0544100" lon="-2.3401100">
        <ele>474.0</ele>
        <time>2020-08-14T10:12:58Z</time>
      </trkpt>
      <trkpt lat="43.0544650" lon="-2.3402420">
        <ele>475.2</ele>
        <time>2020-08-14T10:13:01Z</time>
      </trkpt>
      <trkpt lat="43.0545130" lon="-2.3403890">
        <ele>476.4</ele>
        <time>2020-08-14T10:13:04Z</time>
      </trkpt>
      <trkpt lat="43.0545510" lon="-2.3405380">
        <ele>477.4</ele>
        <time>2020-08-14T10:13:07Z</time>
      </trkpt>
      <trkpt lat="43.0546030" lon="-2.3406730">
        <ele>478.6</ele>
        <time>2020-08-14T10:13:10Z</time>
      </trkpt>
      <trkpt lat="43.0546700" lon="-2.3407760">
        <ele>479.8</ele>
        <time>2020-08-14T10:13:13Z</time>
      </trkpt>
      <trkpt lat="43.0547650" lon="-2.3408510">
        <ele>480.8</ele>
        <time>2020-08-14T10:13:16Z</time>
      </trkpt>
      <trkpt lat="43.0548540" lon="-2.3409360">
        <ele>481.8</ele>
        <time>2020-08-14T10:13:19Z</time>
      </trkpt>
      <trkpt lat="43.0549070" lon="-2.3410870">
        <ele>483.0</ele>
        <time>2020-08-14T10:13:22Z</time>
      </trkpt>
      <trkpt lat="43.0549060" lon="-2.3412550">
        <ele>484.2</ele>
        <time>2020-08-14T10:13:25Z</time>
      </trkpt>
      <trkpt lat="43.0548910" lon="-2.3414240">
        <ele>485.4</ele>
        <time>2020-08-14T10:13:28Z</time>
      </trkpt>
      <trkpt lat="43.0548650" lon="-2.3415990">
        <ele>486.6</ele>
        <time>2020-08-14T10:13:31Z</time>
      </trkpt>
      <trkpt lat="43.0548520" lon="-2.3417260">
        <ele>487.2</ele>
        <time>2020-08-14T10:13:33Z</time>
      </trkpt>
      <trkpt lat="43.0548280" lon="-2.3418560">
        <ele>488.0</ele>
        <time>2020-08-14T10:13:35Z</time>
      </trkpt>
      <trkpt lat="43.0547700" lon="-2.3421100">
        <ele>489.2</ele>
        <time>2020-08-14T10:13:39Z</time>
      </trkpt>
      <trkpt lat="43.0547600" lon="-2.3421820">
        <ele>489.6</ele>
        <time>2020-08-14T10:13:40Z</time>
      </trkpt>
      <trkpt lat="43.0547540" lon="-2.3423910">
        <ele>490.2</ele>
        <time>2020-08-14T10:13:43Z</time>
      </trkpt>
      <trkpt lat="43.0547570" lon="-2.3424580">
        <ele>490.6</ele>
        <time>2020-08-14T10:13:44Z</time>
      </trkpt>
      <trkpt lat="43.0547640" lon="-2.3425210">
        <ele>490.8</ele>
        <time>2020-08-14T10:13:45Z</time>
      </trkpt>
      <trkpt lat="43.0547840" lon="-2.3426450">
        <ele>491.6</ele>
        <time>2020-08-14T10:13:47Z</time>
      </trkpt>
      <trkpt lat="43.0547970" lon="-2.3427010">
        <ele>491.8</ele>
        <time>2020-08-14T10:13:48Z</time>
      </trkpt>
      <trkpt lat="43.0548550" lon="-2.3428800">
        <ele>492.8</ele>
        <time>2020-08-14T10:13:52Z</time>
      </trkpt>
      <trkpt lat="43.0549210" lon="-2.3430560">
        <ele>493.8</ele>
        <time>2020-08-14T10:13:56Z</time>
      </trkpt>
      <trkpt lat="43.0549870" lon="-2.3432130">
        <ele>495.2</ele>
        <time>2020-08-14T10:14:00Z</time>
      </trkpt>
      <trkpt lat="43.0550460" lon="-2.3433090">
        <ele>496.6</ele>
        <time>2020-08-14T10:14:03Z</time>
      </trkpt>
      <trkpt lat="43.0550980" lon="-2.3434020">
        <ele>498.0</ele>
        <time>2020-08-14T10:14:06Z</time>
      </trkpt>
      <trkpt lat="43.0551370" lon="-2.3435230">
        <ele>499.2</ele>
        <time>2020-08-14T10:14:09Z</time>
      </trkpt>
      <trkpt lat="43.0551690" lon="-2.3436380">
        <ele>500.2</ele>
        <time>2020-08-14T10:14:12Z</time>
      </trkpt>
      <trkpt lat="43.0551870" lon="-2.3437640">
        <ele>501.2</ele>
        <time>2020-08-14T10:14:15Z</time>
      </trkpt>
      <trkpt lat="43.0552150" lon="-2.3438820">
        <ele>502.6</ele>
        <time>2020-08-14T10:14:18Z</time>
      </trkpt>
      <trkpt lat="43.0552320" lon="-2.3439520">
        <ele>503.8</ele>
        <time>2020-08-14T10:14:20Z</time>
      </trkpt>
      <trkpt lat="43.0552540" lon="-2.3440560">
        <ele>505.0</ele>
        <time>2020-08-14T10:14:23Z</time>
      </trkpt>
      <trkpt lat="43.0552730" lon="-2.3441520">
        <ele>506.2</ele>
        <time>2020-08-14T10:14:26Z</time>
      </trkpt>
      <trkpt lat="43.0552850" lon="-2.3442470">
        <ele>507.4</ele>
        <time>2020-08-14T10:14:29Z</time>
      </trkpt>
      <trkpt lat="43.0552910" lon="-2.3442780">
        <ele>508.0</ele>
        <time>2020-08-14T10:14:30Z</time>
      </trkpt>
      <trkpt lat="43.0553030" lon="-2.3443480">
        <ele>508.8</ele>
        <time>2020-08-14T10:14:32Z</time>
      </trkpt>
      <trkpt lat="43.0553160" lon="-2.3444150">
        <ele>510.0</ele>
        <time>2020-08-14T10:14:34Z</time>
      </trkpt>
      <trkpt lat="43.0553460" lon="-2.3445110">
        <ele>511.2</ele>
        <time>2020-08-14T10:14:37Z</time>
      </trkpt>
      <trkpt lat="43.0553700" lon="-2.3446180">
        <ele>512.4</ele>
        <time>2020-08-14T10:14:40Z</time>
      </trkpt>
      <trkpt lat="43.0554030" lon="-2.3447230">
        <ele>513.6</ele>
        <time>2020-08-14T10:14:43Z</time>
      </trkpt>
      <trkpt lat="43.0554490" lon="-2.3448270">
        <ele>514.8</ele>
        <time>2020-08-14T10:14:46Z</time>
      </trkpt>
      <trkpt lat="43.0555230" lon="-2.3449180">
        <ele>516.0</ele>
        <time>2020-08-14T10:14:49Z</time>
      </trkpt>
      <trkpt lat="43.0556130" lon="-2.3450020">
        <ele>508.2</ele>
        <time>2020-08-14T10:14:52Z</time>
      </trkpt>
      <trkpt lat="43.0557440" lon="-2.3451030">
        <ele>518.4</ele>
        <time>2020-08-14T10:14:56Z</time>
      </trkpt>
      <trkpt lat="43.0558530" lon="-2.3452340">
        <ele>519.0</ele>
        <time>2020-08-14T10:15:00Z</time>
      </trkpt>
      <trkpt lat="43.0558700" lon="-2.3453610">
        <ele>519.4</ele>
        <time>2020-08-14T10:15:03Z</time>
      </trkpt>
      <trkpt lat="43.0558960" lon="-2.3455610">
        <ele>521.0</ele>
        <time>2020-08-14T10:15:08Z</time>
      </trkpt>
      <trkpt lat="43.0559070" lon="-2.3456730">
        <ele>522.0</ele>
        <time>2020-08-14T10:15:11Z</time>
      </trkpt>
      <trkpt lat="43.0559100" lon="-2.3457810">
        <ele>523.4</ele>
        <time>2020-08-14T10:15:14Z</time>
      </trkpt>
      <trkpt lat="43.0559140" lon="-2.3458840">
        <ele>524.4</ele>
        <time>2020-08-14T10:15:17Z</time>
      </trkpt>
      <trkpt lat="43.0559170" lon="-2.3459710">
        <ele>525.8</ele>
        <time>2020-08-14T10:15:20Z</time>
      </trkpt>
      <trkpt lat="43.0559070" lon="-2.3460540">
        <ele>527.0</ele>
        <time>2020-08-14T10:15:23Z</time>
      </trkpt>
      <trkpt lat="43.0559080" lon="-2.3461460">
        <ele>528.2</ele>
        <time>2020-08-14T10:15:26Z</time>
      </trkpt>
      <trkpt lat="43.0559060" lon="-2.3462380">
        <ele>529.2</ele>
        <time>2020-08-14T10:15:29Z</time>
      </trkpt>
      <trkpt lat="43.0559040" lon="-2.3462700">
        <ele>530.0</ele>
        <time>2020-08-14T10:15:30Z</time>
      </trkpt>
      <trkpt lat="43.0558840" lon="-2.3464090">
        <ele>531.4</ele>
        <time>2020-08-14T10:15:34Z</time>
      </trkpt>
      <trkpt lat="43.0558740" lon="-2.3465420">
        <ele>532.6</ele>
        <time>2020-08-14T10:15:38Z</time>
      </trkpt>
      <trkpt lat="43.0558740" lon="-2.3466580">
        <ele>534.0</ele>
        <time>2020-08-14T10:15:42Z</time>
      </trkpt>
      <trkpt lat="43.0558610" lon="-2.3467620">
        <ele>535.0</ele>
        <time>2020-08-14T10:15:45Z</time>
      </trkpt>
      <trkpt lat="43.0558360" lon="-2.3469030">
        <ele>536.2</ele>
        <time>2020-08-14T10:15:49Z</time>
      </trkpt>
      <trkpt lat="43.0558150" lon="-2.3470040">
        <ele>537.2</ele>
        <time>2020-08-14T10:15:52Z</time>
      </trkpt>
      <trkpt lat="43.0557870" lon="-2.3470950">
        <ele>538.4</ele>
        <time>2020-08-14T10:15:55Z</time>
      </trkpt>
      <trkpt lat="43.0557760" lon="-2.3471250">
        <ele>538.6</ele>
        <time>2020-08-14T10:15:56Z</time>
      </trkpt>
      <trkpt lat="43.0557570" lon="-2.3471800">
        <ele>539.4</ele>
        <time>2020-08-14T10:15:58Z</time>
      </trkpt>
      <trkpt lat="43.0557480" lon="-2.3472110">
        <ele>539.6</ele>
        <time>2020-08-14T10:15:59Z</time>
      </trkpt>
      <trkpt lat="43.0557390" lon="-2.3473500">
        <ele>541.0</ele>
        <time>2020-08-14T10:16:03Z</time>
      </trkpt>
      <trkpt lat="43.0557770" lon="-2.3474510">
        <ele>542.2</ele>
        <time>2020-08-14T10:16:06Z</time>
      </trkpt>
      <trkpt lat="43.0558710" lon="-2.3475020">
        <ele>543.4</ele>
        <time>2020-08-14T10:16:10Z</time>
      </trkpt>
      <trkpt lat="43.0559880" lon="-2.3475610">
        <ele>544.8</ele>
        <time>2020-08-14T10:16:14Z</time>
      </trkpt>
      <trkpt lat="43.0560820" lon="-2.3476880">
        <ele>545.8</ele>
        <time>2020-08-14T10:16:19Z</time>
      </trkpt>
      <trkpt lat="43.0561230" lon="-2.3477850">
        <ele>547.0</ele>
        <time>2020-08-14T10:16:22Z</time>
      </trkpt>
      <trkpt lat="43.0561430" lon="-2.3478770">
        <ele>548.2</ele>
        <time>2020-08-14T10:16:25Z</time>
      </trkpt>
      <trkpt lat="43.0561390" lon="-2.3480010">
        <ele>549.4</ele>
        <time>2020-08-14T10:16:29Z</time>
      </trkpt>
      <trkpt lat="43.0561310" lon="-2.3481030">
        <ele>550.4</ele>
        <time>2020-08-14T10:16:32Z</time>
      </trkpt>
      <trkpt lat="43.0561270" lon="-2.3481420">
        <ele>550.8</ele>
        <time>2020-08-14T10:16:33Z</time>
      </trkpt>
      <trkpt lat="43.0561100" lon="-2.3482610">
        <ele>551.8</ele>
        <time>2020-08-14T10:16:36Z</time>
      </trkpt>
      <trkpt lat="43.0560770" lon="-2.3483980">
        <ele>553.4</ele>
        <time>2020-08-14T10:16:40Z</time>
      </trkpt>
      <trkpt lat="43.0560440" lon="-2.3485240">
        <ele>554.8</ele>
        <time>2020-08-14T10:16:44Z</time>
      </trkpt>
      <trkpt lat="43.0560410" lon="-2.3485580">
        <ele>555.2</ele>
        <time>2020-08-14T10:16:45Z</time>
      </trkpt>
      <trkpt lat="43.0560500" lon="-2.3486260">
        <ele>555.8</ele>
        <time>2020-08-14T10:16:47Z</time>
      </trkpt>
      <trkpt lat="43.0560920" lon="-2.3487380">
        <ele>557.0</ele>
        <time>2020-08-14T10:16:51Z</time>
      </trkpt>
      <trkpt lat="43.0561490" lon="-2.3488000">
        <ele>558.2</ele>
        <time>2020-08-14T10:16:54Z</time>
      </trkpt>
      <trkpt lat="43.0562450" lon="-2.3488700">
        <ele>559.2</ele>
        <time>2020-08-14T10:16:58Z</time>
      </trkpt>
      <trkpt lat="43.0563080" lon="-2.3489770">
        <ele>560.4</ele>
        <time>2020-08-14T10:17:02Z</time>
      </trkpt>
      <trkpt lat="43.0563470" lon="-2.3490690">
        <ele>561.4</ele>
        <time>2020-08-14T10:17:05Z</time>
      </trkpt>
      <trkpt lat="43.0564020" lon="-2.3492020">
        <ele>562.6</ele>
        <time>2020-08-14T10:17:09Z</time>
      </trkpt>
      <trkpt lat="43.0564060" lon="-2.3492370">
        <ele>563.0</ele>
        <time>2020-08-14T10:17:10Z</time>
      </trkpt>
      <trkpt lat="43.0564250" lon="-2.3493270">
        <ele>564.0</ele>
        <time>2020-08-14T10:17:13Z</time>
      </trkpt>
      <trkpt lat="43.0564380" lon="-2.3494360">
        <ele>565.2</ele>
        <time>2020-08-14T10:17:16Z</time>
      </trkpt>
      <trkpt lat="43.0564470" lon="-2.3495440">
        <ele>566.6</ele>
        <time>2020-08-14T10:17:19Z</time>
      </trkpt>
      <trkpt lat="43.0564590" lon="-2.3496390">
        <ele>567.8</ele>
        <time>2020-08-14T10:17:22Z</time>
      </trkpt>
      <trkpt lat="43.0564720" lon="-2.3497190">
        <ele>569.0</ele>
        <time>2020-08-14T10:17:25Z</time>
      </trkpt>
      <trkpt lat="43.0565020" lon="-2.3498050">
        <ele>570.4</ele>
        <time>2020-08-14T10:17:28Z</time>
      </trkpt>
      <trkpt lat="43.0565540" lon="-2.3498690">
        <ele>571.8</ele>
        <time>2020-08-14T10:17:31Z</time>
      </trkpt>
      <trkpt lat="43.0566200" lon="-2.3499060">
        <ele>572.8</ele>
        <time>2020-08-14T10:17:34Z</time>
      </trkpt>
      <trkpt lat="43.0566820" lon="-2.3499430">
        <ele>573.8</ele>
        <time>2020-08-14T10:17:37Z</time>
      </trkpt>
      <trkpt lat="43.0567800" lon="-2.3500320">
        <ele>575.0</ele>
        <time>2020-08-14T10:17:42Z</time>
      </trkpt>
      <trkpt lat="43.0568250" lon="-2.3501070">
        <ele>576.2</ele>
        <time>2020-08-14T10:17:45Z</time>
      </trkpt>
      <trkpt lat="43.0568580" lon="-2.3501900">
        <ele>577.6</ele>
        <time>2020-08-14T10:17:48Z</time>
      </trkpt>
      <trkpt lat="43.0568800" lon="-2.3502360">
        <ele>578.8</ele>
        <time>2020-08-14T10:17:50Z</time>
      </trkpt>
      <trkpt lat="43.0568840" lon="-2.3502820">
        <ele>579.4</ele>
        <time>2020-08-14T10:17:52Z</time>
      </trkpt>
      <trkpt lat="43.0568850" lon="-2.3503150">
        <ele>579.8</ele>
        <time>2020-08-14T10:17:53Z</time>
      </trkpt>
      <trkpt lat="43.0568650" lon="-2.3504210">
        <ele>581.2</ele>
        <time>2020-08-14T10:17:57Z</time>
      </trkpt>
      <trkpt lat="43.0568610" lon="-2.3504750">
        <ele>582.0</ele>
        <time>2020-08-14T10:17:59Z</time>
      </trkpt>
      <trkpt lat="43.0568610" lon="-2.3504970">
        <ele>582.4</ele>
        <time>2020-08-14T10:18:00Z</time>
      </trkpt>
      <trkpt lat="43.0568460" lon="-2.3505970">
        <ele>584.0</ele>
        <time>2020-08-14T10:18:04Z</time>
      </trkpt>
      <trkpt lat="43.0568420" lon="-2.3506920">
        <ele>585.4</ele>
        <time>2020-08-14T10:18:07Z</time>
      </trkpt>
      <trkpt lat="43.0568480" lon="-2.3507880">
        <ele>586.4</ele>
        <time>2020-08-14T10:18:10Z</time>
      </trkpt>
      <trkpt lat="43.0568360" lon="-2.3508360">
        <ele>587.2</ele>
        <time>2020-08-14T10:18:12Z</time>
      </trkpt>
      <trkpt lat="43.0568300" lon="-2.3508610">
        <ele>587.6</ele>
        <time>2020-08-14T10:18:13Z</time>
      </trkpt>
      <trkpt lat="43.0568160" lon="-2.3509590">
        <ele>588.6</ele>
        <time>2020-08-14T10:18:16Z</time>
      </trkpt>
      <trkpt lat="43.0568080" lon="-2.3510420">
        <ele>589.8</ele>
        <time>2020-08-14T10:18:19Z</time>
      </trkpt>
      <trkpt lat="43.0568010" lon="-2.3511140">
        <ele>591.2</ele>
        <time>2020-08-14T10:18:22Z</time>
      </trkpt>
      <trkpt lat="43.0567940" lon="-2.3511350">
        <ele>591.6</ele>
        <time>2020-08-14T10:18:23Z</time>
      </trkpt>
      <trkpt lat="43.0567920" lon="-2.3511530">
        <ele>592.4</ele>
        <time>2020-08-14T10:18:24Z</time>
      </trkpt>
      <trkpt lat="43.0567910" lon="-2.3512200">
        <ele>593.4</ele>
        <time>2020-08-14T10:18:27Z</time>
      </trkpt>
      <trkpt lat="43.0567930" lon="-2.3513070">
        <ele>594.6</ele>
        <time>2020-08-14T10:18:30Z</time>
      </trkpt>
      <trkpt lat="43.0567940" lon="-2.3513750">
        <ele>595.8</ele>
        <time>2020-08-14T10:18:33Z</time>
      </trkpt>
      <trkpt lat="43.0568010" lon="-2.3514690">
        <ele>597.0</ele>
        <time>2020-08-14T10:18:37Z</time>
      </trkpt>
      <trkpt lat="43.0568100" lon="-2.3515590">
        <ele>598.2</ele>
        <time>2020-08-14T10:18:41Z</time>
      </trkpt>
      <trkpt lat="43.0568120" lon="-2.3516310">
        <ele>599.4</ele>
        <time>2020-08-14T10:18:44Z</time>
      </trkpt>
      <trkpt lat="43.0568190" lon="-2.3517350">
        <ele>600.6</ele>
        <time>2020-08-14T10:18:48Z</time>
      </trkpt>
      <trkpt lat="43.0568450" lon="-2.3518230">
        <ele>601.6</ele>
        <time>2020-08-14T10:18:51Z</time>
      </trkpt>
      <trkpt lat="43.0568590" lon="-2.3519390">
        <ele>602.8</ele>
        <time>2020-08-14T10:18:55Z</time>
      </trkpt>
      <trkpt lat="43.0568780" lon="-2.3520180">
        <ele>604.0</ele>
        <time>2020-08-14T10:18:58Z</time>
      </trkpt>
      <trkpt lat="43.0568920" lon="-2.3520710">
        <ele>605.0</ele>
        <time>2020-08-14T10:19:00Z</time>
      </trkpt>
      <trkpt lat="43.0569180" lon="-2.3521400">
        <ele>606.0</ele>
        <time>2020-08-14T10:19:03Z</time>
      </trkpt>
      <trkpt lat="43.0569400" lon="-2.3521860">
        <ele>606.8</ele>
        <time>2020-08-14T10:19:05Z</time>
      </trkpt>
      <trkpt lat="43.0569470" lon="-2.3522060">
        <ele>607.2</ele>
        <time>2020-08-14T10:19:06Z</time>
      </trkpt>
      <trkpt lat="43.0569600" lon="-2.3522720">
        <ele>608.4</ele>
        <time>2020-08-14T10:19:09Z</time>
      </trkpt>
      <trkpt lat="43.0569660" lon="-2.3522940">
        <ele>608.8</ele>
        <time>2020-08-14T10:19:10Z</time>
      </trkpt>
      <trkpt lat="43.0569780" lon="-2.3523420">
        <ele>609.4</ele>
        <time>2020-08-14T10:19:12Z</time>
      </trkpt>
      <trkpt lat="43.0569990" lon="-2.3524060">
        <ele>610.8</ele>
        <time>2020-08-14T10:19:15Z</time>
      </trkpt>
      <trkpt lat="43.0570090" lon="-2.3524720">
        <ele>611.8</ele>
        <time>2020-08-14T10:19:18Z</time>
      </trkpt>
      <trkpt lat="43.0570290" lon="-2.3525480">
        <ele>613.0</ele>
        <time>2020-08-14T10:19:21Z</time>
      </trkpt>
      <trkpt lat="43.0570490" lon="-2.3526320">
        <ele>614.2</ele>
        <time>2020-08-14T10:19:24Z</time>
      </trkpt>
      <trkpt lat="43.0570750" lon="-2.3527230">
        <ele>615.2</ele>
        <time>2020-08-14T10:19:27Z</time>
      </trkpt>
      <trkpt lat="43.0571040" lon="-2.3528340">
        <ele>616.4</ele>
        <time>2020-08-14T10:19:31Z</time>
      </trkpt>
      <trkpt lat="43.0571260" lon="-2.3529180">
        <ele>617.6</ele>
        <time>2020-08-14T10:19:34Z</time>
      </trkpt>
      <trkpt lat="43.0571460" lon="-2.3530290">
        <ele>618.6</ele>
        <time>2020-08-14T10:19:38Z</time>
      </trkpt>
      <trkpt lat="43.0571670" lon="-2.3531360">
        <ele>620.0</ele>
        <time>2020-08-14T10:19:42Z</time>
      </trkpt>
      <trkpt lat="43.0571810" lon="-2.3532460">
        <ele>621.4</ele>
        <time>2020-08-14T10:19:46Z</time>
      </trkpt>
      <trkpt lat="43.0571990" lon="-2.3533260">
        <ele>622.4</ele>
        <time>2020-08-14T10:19:49Z</time>
      </trkpt>
      <trkpt lat="43.0572030" lon="-2.3534010">
        <ele>623.4</ele>
        <time>2020-08-14T10:19:52Z</time>
      </trkpt>
      <trkpt lat="43.0572090" lon="-2.3534950">
        <ele>624.6</ele>
        <time>2020-08-14T10:19:56Z</time>
      </trkpt>
      <trkpt lat="43.0572330" lon="-2.3535920">
        <ele>626.0</ele>
        <time>2020-08-14T10:20:00Z</time>
      </trkpt>
      <trkpt lat="43.0572370" lon="-2.3536630">
        <ele>627.2</ele>
        <time>2020-08-14T10:20:03Z</time>
      </trkpt>
      <trkpt lat="43.0572490" lon="-2.3537330">
        <ele>628.2</ele>
        <time>2020-08-14T10:20:06Z</time>
      </trkpt>
      <trkpt lat="43.0572460" lon="-2.3538070">
        <ele>629.8</ele>
        <time>2020-08-14T10:20:09Z</time>
      </trkpt>
      <trkpt lat="43.0572370" lon="-2.3538790">
        <ele>631.2</ele>
        <time>2020-08-14T10:20:12Z</time>
      </trkpt>
      <trkpt lat="43.0572270" lon="-2.3539500">
        <ele>632.2</ele>
        <time>2020-08-14T10:20:15Z</time>
      </trkpt>
      <trkpt lat="43.0572250" lon="-2.3540200">
        <ele>633.2</ele>
        <time>2020-08-14T10:20:18Z</time>
      </trkpt>
      <trkpt lat="43.0572310" lon="-2.3541050">
        <ele>634.4</ele>
        <time>2020-08-14T10:20:22Z</time>
      </trkpt>
      <trkpt lat="43.0572440" lon="-2.3541910">
        <ele>635.6</ele>
        <time>2020-08-14T10:20:26Z</time>
      </trkpt>
      <trkpt lat="43.0572570" lon="-2.3542790">
        <ele>636.8</ele>
        <time>2020-08-14T10:20:30Z</time>
      </trkpt>
      <trkpt lat="43.0572450" lon="-2.3543400">
        <ele>637.8</ele>
        <time>2020-08-14T10:20:33Z</time>
      </trkpt>
      <trkpt lat="43.0572200" lon="-2.3544130">
        <ele>639.0</ele>
        <time>2020-08-14T10:20:37Z</time>
      </trkpt>
      <trkpt lat="43.0572020" lon="-2.3544860">
        <ele>640.2</ele>
        <time>2020-08-14T10:20:41Z</time>
      </trkpt>
      <trkpt lat="43.0571840" lon="-2.3545470">
        <ele>641.6</ele>
        <time>2020-08-14T10:20:44Z</time>
      </trkpt>
      <trkpt lat="43.0571650" lon="-2.3546450">
        <ele>642.8</ele>
        <time>2020-08-14T10:20:48Z</time>
      </trkpt>
      <trkpt lat="43.0571430" lon="-2.3547610">
        <ele>644.0</ele>
        <time>2020-08-14T10:20:52Z</time>
      </trkpt>
      <trkpt lat="43.0571190" lon="-2.3548580">
        <ele>645.0</ele>
        <time>2020-08-14T10:20:55Z</time>
      </trkpt>
      <trkpt lat="43.0571010" lon="-2.3549820">
        <ele>646.2</ele>
        <time>2020-08-14T10:20:59Z</time>
      </trkpt>
      <trkpt lat="43.0570910" lon="-2.3551090">
        <ele>647.4</ele>
        <time>2020-08-14T10:21:03Z</time>
      </trkpt>
      <trkpt lat="43.0570260" lon="-2.3552350">
        <ele>648.4</ele>
        <time>2020-08-14T10:21:07Z</time>
      </trkpt>
      <trkpt lat="43.0569580" lon="-2.3552710">
        <ele>649.6</ele>
        <time>2020-08-14T10:21:11Z</time>
      </trkpt>
      <trkpt lat="43.0569440" lon="-2.3552540">
        <ele>649.8</ele>
        <time>2020-08-14T10:21:12Z</time>
      </trkpt>
      <trkpt lat="43.0569440" lon="-2.3551750">
        <ele>650.6</ele>
        <time>2020-08-14T10:21:15Z</time>
      </trkpt>
      <trkpt lat="43.0569450" lon="-2.3551500">
        <ele>650.8</ele>
        <time>2020-08-14T10:21:16Z</time>
      </trkpt>
      <trkpt lat="43.0569550" lon="-2.3550620">
        <ele>652.0</ele>
        <time>2020-08-14T10:21:19Z</time>
      </trkpt>
      <trkpt lat="43.0569590" lon="-2.3549450">
        <ele>653.2</ele>
        <time>2020-08-14T10:21:23Z</time>
      </trkpt>
      <trkpt lat="43.0569410" lon="-2.3548160">
        <ele>654.4</ele>
        <time>2020-08-14T10:21:27Z</time>
      </trkpt>
      <trkpt lat="43.0569000" lon="-2.3546930">
        <ele>655.4</ele>
        <time>2020-08-14T10:21:31Z</time>
      </trkpt>
      <trkpt lat="43.0568600" lon="-2.3545850">
        <ele>656.6</ele>
        <time>2020-08-14T10:21:35Z</time>
      </trkpt>
      <trkpt lat="43.0568110" lon="-2.3544670">
        <ele>658.0</ele>
        <time>2020-08-14T10:21:39Z</time>
      </trkpt>
      <trkpt lat="43.0567510" lon="-2.3543500">
        <ele>659.2</ele>
        <time>2020-08-14T10:21:43Z</time>
      </trkpt>
      <trkpt lat="43.0566610" lon="-2.3542410">
        <ele>660.2</ele>
        <time>2020-08-14T10:21:47Z</time>
      </trkpt>
      <trkpt lat="43.0565840" lon="-2.3541250">
        <ele>661.4</ele>
        <time>2020-08-14T10:21:51Z</time>
      </trkpt>
      <trkpt lat="43.0565330" lon="-2.3540410">
        <ele>662.4</ele>
        <time>2020-08-14T10:21:54Z</time>
      </trkpt>
      <trkpt lat="43.0564420" lon="-2.3539760">
        <ele>663.4</ele>
        <time>2020-08-14T10:21:58Z</time>
      </trkpt>
      <trkpt lat="43.0563600" lon="-2.3540600">
        <ele>664.8</ele>
        <time>2020-08-14T10:22:03Z</time>
      </trkpt>
      <trkpt lat="43.0564090" lon="-2.3542160">
        <ele>665.8</ele>
        <time>2020-08-14T10:22:08Z</time>
      </trkpt>
      <trkpt lat="43.0564420" lon="-2.3543320">
        <ele>667.0</ele>
        <time>2020-08-14T10:22:12Z</time>
      </trkpt>
      <trkpt lat="43.0564390" lon="-2.3543570">
        <ele>667.2</ele>
        <time>2020-08-14T10:22:13Z</time>
      </trkpt>
      <trkpt lat="43.0564450" lon="-2.3544540">
        <ele>668.0</ele>
        <time>2020-08-14T10:22:16Z</time>
      </trkpt>
      <trkpt lat="43.0564480" lon="-2.3546000">
        <ele>669.4</ele>
        <time>2020-08-14T10:22:20Z</time>
      </trkpt>
      <trkpt lat="43.0564510" lon="-2.3547080">
        <ele>670.4</ele>
        <time>2020-08-14T10:22:23Z</time>
      </trkpt>
      <trkpt lat="43.0564320" lon="-2.3548030">
        <ele>671.6</ele>
        <time>2020-08-14T10:22:26Z</time>
      </trkpt>
      <trkpt lat="43.0564220" lon="-2.3548320">
        <ele>672.0</ele>
        <time>2020-08-14T10:22:27Z</time>
      </trkpt>
      <trkpt lat="43.0563900" lon="-2.3548570">
        <ele>673.0</ele>
        <time>2020-08-14T10:22:29Z</time>
      </trkpt>
      <trkpt lat="43.0563500" lon="-2.3547980">
        <ele>673.8</ele>
        <time>2020-08-14T10:22:33Z</time>
      </trkpt>
      <trkpt lat="43.0562870" lon="-2.3546650">
        <ele>675.0</ele>
        <time>2020-08-14T10:22:38Z</time>
      </trkpt>
      <trkpt lat="43.0562380" lon="-2.3545600">
        <ele>676.2</ele>
        <time>2020-08-14T10:22:42Z</time>
      </trkpt>
      <trkpt lat="43.0562030" lon="-2.3544880">
        <ele>677.4</ele>
        <time>2020-08-14T10:22:45Z</time>
      </trkpt>
      <trkpt lat="43.0561510" lon="-2.3544080">
        <ele>678.6</ele>
        <time>2020-08-14T10:22:49Z</time>
      </trkpt>
      <trkpt lat="43.0560510" lon="-2.3543200">
        <ele>679.8</ele>
        <time>2020-08-14T10:22:53Z</time>
      </trkpt>
      <trkpt lat="43.0559770" lon="-2.3542550">
        <ele>681.0</ele>
        <time>2020-08-14T10:22:57Z</time>
      </trkpt>
      <trkpt lat="43.0559180" lon="-2.3542270">
        <ele>682.2</ele>
        <time>2020-08-14T10:23:00Z</time>
      </trkpt>
      <trkpt lat="43.0558480" lon="-2.3541960">
        <ele>683.4</ele>
        <time>2020-08-14T10:23:03Z</time>
      </trkpt>
      <trkpt lat="43.0557930" lon="-2.3541630">
        <ele>684.4</ele>
        <time>2020-08-14T10:23:06Z</time>
      </trkpt>
      <trkpt lat="43.0557220" lon="-2.3541300">
        <ele>685.8</ele>
        <time>2020-08-14T10:23:10Z</time>
      </trkpt>
      <trkpt lat="43.0556580" lon="-2.3541020">
        <ele>686.8</ele>
        <time>2020-08-14T10:23:13Z</time>
      </trkpt>
      <trkpt lat="43.0555880" lon="-2.3540740">
        <ele>687.8</ele>
        <time>2020-08-14T10:23:16Z</time>
      </trkpt>
      <trkpt lat="43.0555230" lon="-2.3540510">
        <ele>688.8</ele>
        <time>2020-08-14T10:23:19Z</time>
      </trkpt>
      <trkpt lat="43.0554600" lon="-2.3540310">
        <ele>689.8</ele>
        <time>2020-08-14T10:23:22Z</time>
      </trkpt>
      <trkpt lat="43.0553910" lon="-2.3540260">
        <ele>691.0</ele>
        <time>2020-08-14T10:23:25Z</time>
      </trkpt>
      <trkpt lat="43.0553350" lon="-2.3540290">
        <ele>692.0</ele>
        <time>2020-08-14T10:23:28Z</time>
      </trkpt>
      <trkpt lat="43.0552850" lon="-2.3540320">
        <ele>693.2</ele>
        <time>2020-08-14T10:23:31Z</time>
      </trkpt>
      <trkpt lat="43.0552140" lon="-2.3540190">
        <ele>694.6</ele>
        <time>2020-08-14T10:23:35Z</time>
      </trkpt>
      <trkpt lat="43.0551560" lon="-2.3540100">
        <ele>696.0</ele>
        <time>2020-08-14T10:23:38Z</time>
      </trkpt>
      <trkpt lat="43.0550850" lon="-2.3540080">
        <ele>697.2</ele>
        <time>2020-08-14T10:23:42Z</time>
      </trkpt>
      <trkpt lat="43.0550100" lon="-2.3540020">
        <ele>698.6</ele>
        <time>2020-08-14T10:23:46Z</time>
      </trkpt>
      <trkpt lat="43.0549280" lon="-2.3539740">
        <ele>699.8</ele>
        <time>2020-08-14T10:23:50Z</time>
      </trkpt>
      <trkpt lat="43.0548690" lon="-2.3539480">
        <ele>700.8</ele>
        <time>2020-08-14T10:23:53Z</time>
      </trkpt>
      <trkpt lat="43.0547750" lon="-2.3539060">
        <ele>702.2</ele>
        <time>2020-08-14T10:23:57Z</time>
      </trkpt>
      <trkpt lat="43.0547010" lon="-2.3538850">
        <ele>703.4</ele>
        <time>2020-08-14T10:24:01Z</time>
      </trkpt>
      <trkpt lat="43.0546380" lon="-2.3538750">
        <ele>704.2</ele>
        <time>2020-08-14T10:24:05Z</time>
      </trkpt>
      <trkpt lat="43.0545530" lon="-2.3538540">
        <ele>705.6</ele>
        <time>2020-08-14T10:24:09Z</time>
      </trkpt>
      <trkpt lat="43.0544930" lon="-2.3538440">
        <ele>706.8</ele>
        <time>2020-08-14T10:24:12Z</time>
      </trkpt>
      <trkpt lat="43.0544490" lon="-2.3538300">
        <ele>707.8</ele>
        <time>2020-08-14T10:24:14Z</time>
      </trkpt>
      <trkpt lat="43.0543890" lon="-2.3538360">
        <ele>708.8</ele>
        <time>2020-08-14T10:24:17Z</time>
      </trkpt>
      <trkpt lat="43.0543210" lon="-2.3538410">
        <ele>709.8</ele>
        <time>2020-08-14T10:24:20Z</time>
      </trkpt>
      <trkpt lat="43.0542610" lon="-2.3538510">
        <ele>711.0</ele>
        <time>2020-08-14T10:24:23Z</time>
      </trkpt>
      <trkpt lat="43.0541980" lon="-2.3538680">
        <ele>712.0</ele>
        <time>2020-08-14T10:24:26Z</time>
      </trkpt>
      <trkpt lat="43.0541290" lon="-2.3538860">
        <ele>713.2</ele>
        <time>2020-08-14T10:24:29Z</time>
      </trkpt>
      <trkpt lat="43.0540470" lon="-2.3538830">
        <ele>714.4</ele>
        <time>2020-08-14T10:24:33Z</time>
      </trkpt>
      <trkpt lat="43.0539830" lon="-2.3538750">
        <ele>715.4</ele>
        <time>2020-08-14T10:24:36Z</time>
      </trkpt>
      <trkpt lat="43.0538990" lon="-2.3538600">
        <ele>716.4</ele>
        <time>2020-08-14T10:24:40Z</time>
      </trkpt>
      <trkpt lat="43.0538070" lon="-2.3538360">
        <ele>717.6</ele>
        <time>2020-08-14T10:24:44Z</time>
      </trkpt>
      <trkpt lat="43.0537320" lon="-2.3538170">
        <ele>719.0</ele>
        <time>2020-08-14T10:24:47Z</time>
      </trkpt>
      <trkpt lat="43.0536340" lon="-2.3538060">
        <ele>720.0</ele>
        <time>2020-08-14T10:24:51Z</time>
      </trkpt>
      <trkpt lat="43.0535590" lon="-2.3537950">
        <ele>721.4</ele>
        <time>2020-08-14T10:24:55Z</time>
      </trkpt>
      <trkpt lat="43.0534850" lon="-2.3537730">
        <ele>722.4</ele>
        <time>2020-08-14T10:24:59Z</time>
      </trkpt>
      <trkpt lat="43.0534020" lon="-2.3537500">
        <ele>723.8</ele>
        <time>2020-08-14T10:25:03Z</time>
      </trkpt>
      <trkpt lat="43.0533150" lon="-2.3537060">
        <ele>725.0</ele>
        <time>2020-08-14T10:25:07Z</time>
      </trkpt>
      <trkpt lat="43.0532120" lon="-2.3536610">
        <ele>726.2</ele>
        <time>2020-08-14T10:25:12Z</time>
      </trkpt>
      <trkpt lat="43.0531540" lon="-2.3536300">
        <ele>727.2</ele>
        <time>2020-08-14T10:25:15Z</time>
      </trkpt>
      <trkpt lat="43.0530710" lon="-2.3535930">
        <ele>728.4</ele>
        <time>2020-08-14T10:25:19Z</time>
      </trkpt>
      <trkpt lat="43.0530140" lon="-2.3535580">
        <ele>729.6</ele>
        <time>2020-08-14T10:25:22Z</time>
      </trkpt>
      <trkpt lat="43.0529580" lon="-2.3535250">
        <ele>730.6</ele>
        <time>2020-08-14T10:25:25Z</time>
      </trkpt>
      <trkpt lat="43.0529010" lon="-2.3534910">
        <ele>731.8</ele>
        <time>2020-08-14T10:25:28Z</time>
      </trkpt>
      <trkpt lat="43.0528460" lon="-2.3534530">
        <ele>733.0</ele>
        <time>2020-08-14T10:25:31Z</time>
      </trkpt>
      <trkpt lat="43.0527860" lon="-2.3534270">
        <ele>734.0</ele>
        <time>2020-08-14T10:25:34Z</time>
      </trkpt>
      <trkpt lat="43.0527090" lon="-2.3533970">
        <ele>735.2</ele>
        <time>2020-08-14T10:25:38Z</time>
      </trkpt>
      <trkpt lat="43.0526170" lon="-2.3533580">
        <ele>736.2</ele>
        <time>2020-08-14T10:25:42Z</time>
      </trkpt>
      <trkpt lat="43.0525380" lon="-2.3533440">
        <ele>737.6</ele>
        <time>2020-08-14T10:25:45Z</time>
      </trkpt>
      <trkpt lat="43.0524150" lon="-2.3533350">
        <ele>738.8</ele>
        <time>2020-08-14T10:25:49Z</time>
      </trkpt>
      <trkpt lat="43.0522420" lon="-2.3534180">
        <ele>739.8</ele>
        <time>2020-08-14T10:25:54Z</time>
      </trkpt>
      <trkpt lat="43.0522100" lon="-2.3534530">
        <ele>740.2</ele>
        <time>2020-08-14T10:25:55Z</time>
      </trkpt>
      <trkpt lat="43.0521550" lon="-2.3535400">
        <ele>740.6</ele>
        <time>2020-08-14T10:25:57Z</time>
      </trkpt>
      <trkpt lat="43.0521160" lon="-2.3536380">
        <ele>741.0</ele>
        <time>2020-08-14T10:25:59Z</time>
      </trkpt>
      <trkpt lat="43.0519790" lon="-2.3540160">
        <ele>742.0</ele>
        <time>2020-08-14T10:26:07Z</time>
      </trkpt>
      <trkpt lat="43.0519230" lon="-2.3541510">
        <ele>743.0</ele>
        <time>2020-08-14T10:26:10Z</time>
      </trkpt>
      <trkpt lat="43.0518230" lon="-2.3543180">
        <ele>744.4</ele>
        <time>2020-08-14T10:26:14Z</time>
      </trkpt>
      <trkpt lat="43.0517380" lon="-2.3544290">
        <ele>745.6</ele>
        <time>2020-08-14T10:26:17Z</time>
      </trkpt>
      <trkpt lat="43.0515750" lon="-2.3545880">
        <ele>746.6</ele>
        <time>2020-08-14T10:26:22Z</time>
      </trkpt>
      <trkpt lat="43.0514140" lon="-2.3546860">
        <ele>747.8</ele>
        <time>2020-08-14T10:26:26Z</time>
      </trkpt>
      <trkpt lat="43.0511570" lon="-2.3547920">
        <ele>748.8</ele>
        <time>2020-08-14T10:26:32Z</time>
      </trkpt>
      <trkpt lat="43.0508890" lon="-2.3549200">
        <ele>749.8</ele>
        <time>2020-08-14T10:26:39Z</time>
      </trkpt>
      <trkpt lat="43.0507080" lon="-2.3549420">
        <ele>751.0</ele>
        <time>2020-08-14T10:26:45Z</time>
      </trkpt>
      <trkpt lat="43.0506170" lon="-2.3549490">
        <ele>752.4</ele>
        <time>2020-08-14T10:26:49Z</time>
      </trkpt>
      <trkpt lat="43.0505050" lon="-2.3549740">
        <ele>753.6</ele>
        <time>2020-08-14T10:26:53Z</time>
      </trkpt>
      <trkpt lat="43.0504230" lon="-2.3550000">
        <ele>754.6</ele>
        <time>2020-08-14T10:26:56Z</time>
      </trkpt>
      <trkpt lat="43.0503580" lon="-2.3550320">
        <ele>755.8</ele>
        <time>2020-08-14T10:26:59Z</time>
      </trkpt>
      <trkpt lat="43.0502760" lon="-2.3550560">
        <ele>756.8</ele>
        <time>2020-08-14T10:27:02Z</time>
      </trkpt>
      <trkpt lat="43.0501520" lon="-2.3551080">
        <ele>758.2</ele>
        <time>2020-08-14T10:27:06Z</time>
      </trkpt>
      <trkpt lat="43.0500850" lon="-2.3551300">
        <ele>759.6</ele>
        <time>2020-08-14T10:27:08Z</time>
      </trkpt>
      <trkpt lat="43.0499680" lon="-2.3551520">
        <ele>760.8</ele>
        <time>2020-08-14T10:27:12Z</time>
      </trkpt>
      <trkpt lat="43.0498920" lon="-2.3551520">
        <ele>761.8</ele>
        <time>2020-08-14T10:27:15Z</time>
      </trkpt>
      <trkpt lat="43.0497990" lon="-2.3551550">
        <ele>763.0</ele>
        <time>2020-08-14T10:27:19Z</time>
      </trkpt>
      <trkpt lat="43.0497090" lon="-2.3551420">
        <ele>764.2</ele>
        <time>2020-08-14T10:27:23Z</time>
      </trkpt>
      <trkpt lat="43.0496180" lon="-2.3551540">
        <ele>765.4</ele>
        <time>2020-08-14T10:27:27Z</time>
      </trkpt>
      <trkpt lat="43.0495310" lon="-2.3551600">
        <ele>766.6</ele>
        <time>2020-08-14T10:27:31Z</time>
      </trkpt>
      <trkpt lat="43.0494400" lon="-2.3551590">
        <ele>767.8</ele>
        <time>2020-08-14T10:27:35Z</time>
      </trkpt>
      <trkpt lat="43.0493580" lon="-2.3551580">
        <ele>768.8</ele>
        <time>2020-08-14T10:27:38Z</time>
      </trkpt>
      <trkpt lat="43.0492720" lon="-2.3551560">
        <ele>770.2</ele>
        <time>2020-08-14T10:27:42Z</time>
      </trkpt>
      <trkpt lat="43.0491960" lon="-2.3551410">
        <ele>771.4</ele>
        <time>2020-08-14T10:27:45Z</time>
      </trkpt>
      <trkpt lat="43.0490980" lon="-2.3551290">
        <ele>772.4</ele>
        <time>2020-08-14T10:27:49Z</time>
      </trkpt>
      <trkpt lat="43.0490050" lon="-2.3551330">
        <ele>773.8</ele>
        <time>2020-08-14T10:27:53Z</time>
      </trkpt>
      <trkpt lat="43.0489160" lon="-2.3551340">
        <ele>775.0</ele>
        <time>2020-08-14T10:27:57Z</time>
      </trkpt>
      <trkpt lat="43.0488260" lon="-2.3551140">
        <ele>776.2</ele>
        <time>2020-08-14T10:28:01Z</time>
      </trkpt>
      <trkpt lat="43.0487590" lon="-2.3551070">
        <ele>777.2</ele>
        <time>2020-08-14T10:28:04Z</time>
      </trkpt>
      <trkpt lat="43.0486800" lon="-2.3551280">
        <ele>778.4</ele>
        <time>2020-08-14T10:28:08Z</time>
      </trkpt>
      <trkpt lat="43.0486060" lon="-2.3551650">
        <ele>779.4</ele>
        <time>2020-08-14T10:28:12Z</time>
      </trkpt>
      <trkpt lat="43.0485410" lon="-2.3552220">
        <ele>780.4</ele>
        <time>2020-08-14T10:28:16Z</time>
      </trkpt>
      <trkpt lat="43.0484950" lon="-2.3552750">
        <ele>781.6</ele>
        <time>2020-08-14T10:28:19Z</time>
      </trkpt>
      <trkpt lat="43.0484050" lon="-2.3553300">
        <ele>782.8</ele>
        <time>2020-08-14T10:28:23Z</time>
      </trkpt>
      <trkpt lat="43.0483420" lon="-2.3553650">
        <ele>784.0</ele>
        <time>2020-08-14T10:28:26Z</time>
      </trkpt>
      <trkpt lat="43.0482610" lon="-2.3554110">
        <ele>785.0</ele>
        <time>2020-08-14T10:28:30Z</time>
      </trkpt>
      <trkpt lat="43.0481880" lon="-2.3554750">
        <ele>786.2</ele>
        <time>2020-08-14T10:28:34Z</time>
      </trkpt>
      <trkpt lat="43.0481390" lon="-2.3554990">
        <ele>786.8</ele>
        <time>2020-08-14T10:28:37Z</time>
      </trkpt>
      <trkpt lat="43.0481080" lon="-2.3554910">
        <ele>787.0</ele>
        <time>2020-08-14T10:28:38Z</time>
      </trkpt>
      <trkpt lat="43.0480110" lon="-2.3554970">
        <ele>788.4</ele>
        <time>2020-08-14T10:28:42Z</time>
      </trkpt>
      <trkpt lat="43.0478920" lon="-2.3555020">
        <ele>789.6</ele>
        <time>2020-08-14T10:28:46Z</time>
      </trkpt>
      <trkpt lat="43.0478200" lon="-2.3555310">
        <ele>790.6</ele>
        <time>2020-08-14T10:28:49Z</time>
      </trkpt>
      <trkpt lat="43.0477560" lon="-2.3555590">
        <ele>792.0</ele>
        <time>2020-08-14T10:28:52Z</time>
      </trkpt>
      <trkpt lat="43.0477080" lon="-2.3555850">
        <ele>793.2</ele>
        <time>2020-08-14T10:28:55Z</time>
      </trkpt>
      <trkpt lat="43.0476900" lon="-2.3555890">
        <ele>793.4</ele>
        <time>2020-08-14T10:28:56Z</time>
      </trkpt>
      <trkpt lat="43.0476570" lon="-2.3556070">
        <ele>794.0</ele>
        <time>2020-08-14T10:28:58Z</time>
      </trkpt>
      <trkpt lat="43.0476200" lon="-2.3556360">
        <ele>794.2</ele>
        <time>2020-08-14T10:29:00Z</time>
      </trkpt>
      <trkpt lat="43.0475170" lon="-2.3556830">
        <ele>795.4</ele>
        <time>2020-08-14T10:29:04Z</time>
      </trkpt>
      <trkpt lat="43.0474430" lon="-2.3557070">
        <ele>796.4</ele>
        <time>2020-08-14T10:29:07Z</time>
      </trkpt>
      <trkpt lat="43.0473260" lon="-2.3557220">
        <ele>797.4</ele>
        <time>2020-08-14T10:29:11Z</time>
      </trkpt>
      <trkpt lat="43.0472190" lon="-2.3557300">
        <ele>798.6</ele>
        <time>2020-08-14T10:29:15Z</time>
      </trkpt>
      <trkpt lat="43.0471400" lon="-2.3557280">
        <ele>799.8</ele>
        <time>2020-08-14T10:29:18Z</time>
      </trkpt>
      <trkpt lat="43.0470360" lon="-2.3557080">
        <ele>801.2</ele>
        <time>2020-08-14T10:29:22Z</time>
      </trkpt>
      <trkpt lat="43.0469410" lon="-2.3557050">
        <ele>802.2</ele>
        <time>2020-08-14T10:29:25Z</time>
      </trkpt>
      <trkpt lat="43.0468490" lon="-2.3557030">
        <ele>803.6</ele>
        <time>2020-08-14T10:29:28Z</time>
      </trkpt>
      <trkpt lat="43.0467170" lon="-2.3557190">
        <ele>804.6</ele>
        <time>2020-08-14T10:29:32Z</time>
      </trkpt>
      <trkpt lat="43.0466130" lon="-2.3557100">
        <ele>805.6</ele>
        <time>2020-08-14T10:29:36Z</time>
      </trkpt>
      <trkpt lat="43.0464400" lon="-2.3556620">
        <ele>806.8</ele>
        <time>2020-08-14T10:29:42Z</time>
      </trkpt>
      <trkpt lat="43.0462520" lon="-2.3555670">
        <ele>808.0</ele>
        <time>2020-08-14T10:29:48Z</time>
      </trkpt>
      <trkpt lat="43.0460600" lon="-2.3554150">
        <ele>809.0</ele>
        <time>2020-08-14T10:29:54Z</time>
      </trkpt>
      <trkpt lat="43.0459030" lon="-2.3553210">
        <ele>810.2</ele>
        <time>2020-08-14T10:29:59Z</time>
      </trkpt>
      <trkpt lat="43.0458620" lon="-2.3552880">
        <ele>810.4</ele>
        <time>2020-08-14T10:30:00Z</time>
      </trkpt>
      <trkpt lat="43.0456620" lon="-2.3549370">
        <ele>811.0</ele>
        <time>2020-08-14T10:30:09Z</time>
      </trkpt>
      <trkpt lat="43.0456480" lon="-2.3548950">
        <ele>811.4</ele>
        <time>2020-08-14T10:30:10Z</time>
      </trkpt>
      <trkpt lat="43.0455660" lon="-2.3546820">
        <ele>812.4</ele>
        <time>2020-08-14T10:30:15Z</time>
      </trkpt>
      <trkpt lat="43.0454920" lon="-2.3545990">
        <ele>813.6</ele>
        <time>2020-08-14T10:30:18Z</time>
      </trkpt>
      <trkpt lat="43.0454140" lon="-2.3544990">
        <ele>814.8</ele>
        <time>2020-08-14T10:30:21Z</time>
      </trkpt>
      <trkpt lat="43.0453320" lon="-2.3543860">
        <ele>816.0</ele>
        <time>2020-08-14T10:30:24Z</time>
      </trkpt>
      <trkpt lat="43.0452620" lon="-2.3543090">
        <ele>817.0</ele>
        <time>2020-08-14T10:30:27Z</time>
      </trkpt>
      <trkpt lat="43.0451440" lon="-2.3542310">
        <ele>818.0</ele>
        <time>2020-08-14T10:30:31Z</time>
      </trkpt>
      <trkpt lat="43.0448950" lon="-2.3541400">
        <ele>819.0</ele>
        <time>2020-08-14T10:30:37Z</time>
      </trkpt>
      <trkpt lat="43.0444780" lon="-2.3537580">
        <ele>820.0</ele>
        <time>2020-08-14T10:30:49Z</time>
      </trkpt>
      <trkpt lat="43.0442920" lon="-2.3534970">
        <ele>821.4</ele>
        <time>2020-08-14T10:30:54Z</time>
      </trkpt>
      <trkpt lat="43.0439260" lon="-2.3529460">
        <ele>822.2</ele>
        <time>2020-08-14T10:31:04Z</time>
      </trkpt>
      <trkpt lat="43.0438910" lon="-2.3528940">
        <ele>822.2</ele>
        <time>2020-08-14T10:31:05Z</time>
      </trkpt>
      <trkpt lat="43.0435760" lon="-2.3525550">
        <ele>823.2</ele>
        <time>2020-08-14T10:31:14Z</time>
      </trkpt>
      <trkpt lat="43.0435230" lon="-2.3525300">
        <ele>823.6</ele>
        <time>2020-08-14T10:31:15Z</time>
      </trkpt>
      <trkpt lat="43.0433680" lon="-2.3524760">
        <ele>824.0</ele>
        <time>2020-08-14T10:31:18Z</time>
      </trkpt>
      <trkpt lat="43.0433200" lon="-2.3524610">
        <ele>824.2</ele>
        <time>2020-08-14T10:31:19Z</time>
      </trkpt>
      <trkpt lat="43.0432370" lon="-2.3524460">
        <ele>825.4</ele>
        <time>2020-08-14T10:31:21Z</time>
      </trkpt>
      <trkpt lat="43.0431460" lon="-2.3524410">
        <ele>826.4</ele>
        <time>2020-08-14T10:31:23Z</time>
      </trkpt>
      <trkpt lat="43.0430010" lon="-2.3524300">
        <ele>827.6</ele>
        <time>2020-08-14T10:31:26Z</time>
      </trkpt>
      <trkpt lat="43.0428660" lon="-2.3524410">
        <ele>828.4</ele>
        <time>2020-08-14T10:31:29Z</time>
      </trkpt>
      <trkpt lat="43.0428220" lon="-2.3524480">
        <ele>828.6</ele>
        <time>2020-08-14T10:31:30Z</time>
      </trkpt>
      <trkpt lat="43.0427800" lon="-2.3524610">
        <ele>828.6</ele>
        <time>2020-08-14T10:31:31Z</time>
      </trkpt>
      <trkpt lat="43.0426400" lon="-2.3525670">
        <ele>829.6</ele>
        <time>2020-08-14T10:31:37Z</time>
      </trkpt>
      <trkpt lat="43.0425500" lon="-2.3526840">
        <ele>830.4</ele>
        <time>2020-08-14T10:31:42Z</time>
      </trkpt>
      <trkpt lat="43.0424990" lon="-2.3527650">
        <ele>831.8</ele>
        <time>2020-08-14T10:31:45Z</time>
      </trkpt>
      <trkpt lat="43.0424560" lon="-2.3528560">
        <ele>832.8</ele>
        <time>2020-08-14T10:31:48Z</time>
      </trkpt>
      <trkpt lat="43.0423990" lon="-2.3529510">
        <ele>834.0</ele>
        <time>2020-08-14T10:31:51Z</time>
      </trkpt>
      <trkpt lat="43.0423180" lon="-2.3530660">
        <ele>835.0</ele>
        <time>2020-08-14T10:31:55Z</time>
      </trkpt>
      <trkpt lat="43.0422470" lon="-2.3531910">
        <ele>836.2</ele>
        <time>2020-08-14T10:31:59Z</time>
      </trkpt>
      <trkpt lat="43.0421950" lon="-2.3533100">
        <ele>837.4</ele>
        <time>2020-08-14T10:32:03Z</time>
      </trkpt>
      <trkpt lat="43.0421600" lon="-2.3534080">
        <ele>838.2</ele>
        <time>2020-08-14T10:32:06Z</time>
      </trkpt>
      <trkpt lat="43.0421070" lon="-2.3535450">
        <ele>839.4</ele>
        <time>2020-08-14T10:32:10Z</time>
      </trkpt>
      <trkpt lat="43.0421080" lon="-2.3536200">
        <ele>840.4</ele>
        <time>2020-08-14T10:32:12Z</time>
      </trkpt>
      <trkpt lat="43.0421150" lon="-2.3537020">
        <ele>841.4</ele>
        <time>2020-08-14T10:32:14Z</time>
      </trkpt>
      <trkpt lat="43.0421220" lon="-2.3538020">
        <ele>842.6</ele>
        <time>2020-08-14T10:32:17Z</time>
      </trkpt>
      <trkpt lat="43.0421240" lon="-2.3539270">
        <ele>843.8</ele>
        <time>2020-08-14T10:32:21Z</time>
      </trkpt>
      <trkpt lat="43.0421150" lon="-2.3539880">
        <ele>844.8</ele>
        <time>2020-08-14T10:32:23Z</time>
      </trkpt>
      <trkpt lat="43.0421020" lon="-2.3541210">
        <ele>846.2</ele>
        <time>2020-08-14T10:32:27Z</time>
      </trkpt>
      <trkpt lat="43.0421120" lon="-2.3542450">
        <ele>847.4</ele>
        <time>2020-08-14T10:32:30Z</time>
      </trkpt>
      <trkpt lat="43.0421310" lon="-2.3544420">
        <ele>848.4</ele>
        <time>2020-08-14T10:32:34Z</time>
      </trkpt>
      <trkpt lat="43.0422210" lon="-2.3547060">
        <ele>849.2</ele>
        <time>2020-08-14T10:32:39Z</time>
      </trkpt>
      <trkpt lat="43.0422770" lon="-2.3548070">
        <ele>849.4</ele>
        <time>2020-08-14T10:32:41Z</time>
      </trkpt>
      <trkpt lat="43.0427180" lon="-2.3552850">
        <ele>849.8</ele>
        <time>2020-08-14T10:32:52Z</time>
      </trkpt>
      <trkpt lat="43.0429280" lon="-2.3555040">
        <ele>849.8</ele>
        <time>2020-08-14T10:32:56Z</time>
      </trkpt>
      <trkpt lat="43.0433710" lon="-2.3560260">
        <ele>849.0</ele>
        <time>2020-08-14T10:33:04Z</time>
      </trkpt>
      <trkpt lat="43.0436430" lon="-2.3563920">
        <ele>848.2</ele>
        <time>2020-08-14T10:33:09Z</time>
      </trkpt>
      <trkpt lat="43.0440480" lon="-2.3569040">
        <ele>848.0</ele>
        <time>2020-08-14T10:33:18Z</time>
      </trkpt>
      <trkpt lat="43.0441920" lon="-2.3570910">
        <ele>848.2</ele>
        <time>2020-08-14T10:33:22Z</time>
      </trkpt>
      <trkpt lat="43.0442910" lon="-2.3572780">
        <ele>849.4</ele>
        <time>2020-08-14T10:33:26Z</time>
      </trkpt>
      <trkpt lat="43.0443670" lon="-2.3574010">
        <ele>850.6</ele>
        <time>2020-08-14T10:33:29Z</time>
      </trkpt>
      <trkpt lat="43.0444510" lon="-2.3575020">
        <ele>851.6</ele>
        <time>2020-08-14T10:33:32Z</time>
      </trkpt>
      <trkpt lat="43.0445410" lon="-2.3576370">
        <ele>853.0</ele>
        <time>2020-08-14T10:33:36Z</time>
      </trkpt>
      <trkpt lat="43.0446280" lon="-2.3577790">
        <ele>854.2</ele>
        <time>2020-08-14T10:33:40Z</time>
      </trkpt>
      <trkpt lat="43.0447080" lon="-2.3578770">
        <ele>855.2</ele>
        <time>2020-08-14T10:33:43Z</time>
      </trkpt>
      <trkpt lat="43.0448300" lon="-2.3580310">
        <ele>856.6</ele>
        <time>2020-08-14T10:33:48Z</time>
      </trkpt>
      <trkpt lat="43.0448910" lon="-2.3581220">
        <ele>857.6</ele>
        <time>2020-08-14T10:33:51Z</time>
      </trkpt>
      <trkpt lat="43.0449490" lon="-2.3582060">
        <ele>858.6</ele>
        <time>2020-08-14T10:33:54Z</time>
      </trkpt>
      <trkpt lat="43.0450160" lon="-2.3583220">
        <ele>859.8</ele>
        <time>2020-08-14T10:33:58Z</time>
      </trkpt>
      <trkpt lat="43.0450710" lon="-2.3584380">
        <ele>861.2</ele>
        <time>2020-08-14T10:34:02Z</time>
      </trkpt>
      <trkpt lat="43.0451060" lon="-2.3585580">
        <ele>862.8</ele>
        <time>2020-08-14T10:34:06Z</time>
      </trkpt>
      <trkpt lat="43.0451180" lon="-2.3586490">
        <ele>863.8</ele>
        <time>2020-08-14T10:34:09Z</time>
      </trkpt>
      <trkpt lat="43.0451360" lon="-2.3587370">
        <ele>865.0</ele>
        <time>2020-08-14T10:34:12Z</time>
      </trkpt>
      <trkpt lat="43.0451710" lon="-2.3588540">
        <ele>866.2</ele>
        <time>2020-08-14T10:34:16Z</time>
      </trkpt>
      <trkpt lat="43.0451980" lon="-2.3589280">
        <ele>867.4</ele>
        <time>2020-08-14T10:34:19Z</time>
      </trkpt>
      <trkpt lat="43.0452280" lon="-2.3590170">
        <ele>868.8</ele>
        <time>2020-08-14T10:34:22Z</time>
      </trkpt>
      <trkpt lat="43.0452640" lon="-2.3591040">
        <ele>870.0</ele>
        <time>2020-08-14T10:34:25Z</time>
      </trkpt>
      <trkpt lat="43.0453010" lon="-2.3592180">
        <ele>871.0</ele>
        <time>2020-08-14T10:34:29Z</time>
      </trkpt>
      <trkpt lat="43.0453280" lon="-2.3593040">
        <ele>872.2</ele>
        <time>2020-08-14T10:34:32Z</time>
      </trkpt>
      <trkpt lat="43.0453450" lon="-2.3594160">
        <ele>873.6</ele>
        <time>2020-08-14T10:34:36Z</time>
      </trkpt>
      <trkpt lat="43.0453620" lon="-2.3595180">
        <ele>874.6</ele>
        <time>2020-08-14T10:34:40Z</time>
      </trkpt>
      <trkpt lat="43.0453680" lon="-2.3595670">
        <ele>875.8</ele>
        <time>2020-08-14T10:34:42Z</time>
      </trkpt>
      <trkpt lat="43.0453640" lon="-2.3596800">
        <ele>877.0</ele>
        <time>2020-08-14T10:34:46Z</time>
      </trkpt>
      <trkpt lat="43.0453570" lon="-2.3597700">
        <ele>878.2</ele>
        <time>2020-08-14T10:34:49Z</time>
      </trkpt>
      <trkpt lat="43.0453620" lon="-2.3598620">
        <ele>879.2</ele>
        <time>2020-08-14T10:34:52Z</time>
      </trkpt>
      <trkpt lat="43.0453660" lon="-2.3599580">
        <ele>880.6</ele>
        <time>2020-08-14T10:34:55Z</time>
      </trkpt>
      <trkpt lat="43.0453760" lon="-2.3600520">
        <ele>881.6</ele>
        <time>2020-08-14T10:34:58Z</time>
      </trkpt>
      <trkpt lat="43.0454030" lon="-2.3601580">
        <ele>882.8</ele>
        <time>2020-08-14T10:35:01Z</time>
      </trkpt>
      <trkpt lat="43.0454230" lon="-2.3602640">
        <ele>884.0</ele>
        <time>2020-08-14T10:35:04Z</time>
      </trkpt>
      <trkpt lat="43.0454470" lon="-2.3604070">
        <ele>885.0</ele>
        <time>2020-08-14T10:35:08Z</time>
      </trkpt>
      <trkpt lat="43.0454950" lon="-2.3605640">
        <ele>886.4</ele>
        <time>2020-08-14T10:35:13Z</time>
      </trkpt>
      <trkpt lat="43.0455470" lon="-2.3606700">
        <ele>887.6</ele>
        <time>2020-08-14T10:35:17Z</time>
      </trkpt>
      <trkpt lat="43.0455590" lon="-2.3606980">
        <ele>887.8</ele>
        <time>2020-08-14T10:35:18Z</time>
      </trkpt>
      <trkpt lat="43.0456170" lon="-2.3607950">
        <ele>888.8</ele>
        <time>2020-08-14T10:35:21Z</time>
      </trkpt>
      <trkpt lat="43.0456850" lon="-2.3609040">
        <ele>890.0</ele>
        <time>2020-08-14T10:35:25Z</time>
      </trkpt>
      <trkpt lat="43.0457600" lon="-2.3609960">
        <ele>891.2</ele>
        <time>2020-08-14T10:35:29Z</time>
      </trkpt>
      <trkpt lat="43.0457790" lon="-2.3610200">
        <ele>891.4</ele>
        <time>2020-08-14T10:35:30Z</time>
      </trkpt>
      <trkpt lat="43.0458730" lon="-2.3610960">
        <ele>892.4</ele>
        <time>2020-08-14T10:35:34Z</time>
      </trkpt>
      <trkpt lat="43.0460310" lon="-2.3611410">
        <ele>893.8</ele>
        <time>2020-08-14T10:35:40Z</time>
      </trkpt>
      <trkpt lat="43.0461390" lon="-2.3611310">
        <ele>895.2</ele>
        <time>2020-08-14T10:35:45Z</time>
      </trkpt>
      <trkpt lat="43.0462310" lon="-2.3611270">
        <ele>896.2</ele>
        <time>2020-08-14T10:35:50Z</time>
      </trkpt>
      <trkpt lat="43.0463240" lon="-2.3611190">
        <ele>897.4</ele>
        <time>2020-08-14T10:35:54Z</time>
      </trkpt>
      <trkpt lat="43.0464170" lon="-2.3611080">
        <ele>899.0</ele>
        <time>2020-08-14T10:35:58Z</time>
      </trkpt>
      <trkpt lat="43.0464990" lon="-2.3611230">
        <ele>900.0</ele>
        <time>2020-08-14T10:36:02Z</time>
      </trkpt>
      <trkpt lat="43.0465690" lon="-2.3611220">
        <ele>901.4</ele>
        <time>2020-08-14T10:36:06Z</time>
      </trkpt>
      <trkpt lat="43.0466550" lon="-2.3611360">
        <ele>902.4</ele>
        <time>2020-08-14T10:36:10Z</time>
      </trkpt>
      <trkpt lat="43.0467380" lon="-2.3611710">
        <ele>903.6</ele>
        <time>2020-08-14T10:36:14Z</time>
      </trkpt>
      <trkpt lat="43.0468110" lon="-2.3611950">
        <ele>904.8</ele>
        <time>2020-08-14T10:36:18Z</time>
      </trkpt>
      <trkpt lat="43.0468980" lon="-2.3612060">
        <ele>906.2</ele>
        <time>2020-08-14T10:36:22Z</time>
      </trkpt>
      <trkpt lat="43.0469950" lon="-2.3612290">
        <ele>907.2</ele>
        <time>2020-08-14T10:36:26Z</time>
      </trkpt>
      <trkpt lat="43.0470660" lon="-2.3612550">
        <ele>908.4</ele>
        <time>2020-08-14T10:36:29Z</time>
      </trkpt>
      <trkpt lat="43.0471640" lon="-2.3612890">
        <ele>909.6</ele>
        <time>2020-08-14T10:36:33Z</time>
      </trkpt>
      <trkpt lat="43.0472340" lon="-2.3613270">
        <ele>910.8</ele>
        <time>2020-08-14T10:36:36Z</time>
      </trkpt>
      <trkpt lat="43.0473020" lon="-2.3613580">
        <ele>911.8</ele>
        <time>2020-08-14T10:36:39Z</time>
      </trkpt>
      <trkpt lat="43.0473910" lon="-2.3613970">
        <ele>913.2</ele>
        <time>2020-08-14T10:36:43Z</time>
      </trkpt>
      <trkpt lat="43.0474350" lon="-2.3614200">
        <ele>913.8</ele>
        <time>2020-08-14T10:36:45Z</time>
      </trkpt>
      <trkpt lat="43.0474760" lon="-2.3614420">
        <ele>914.4</ele>
        <time>2020-08-14T10:36:47Z</time>
      </trkpt>
      <trkpt lat="43.0475780" lon="-2.3614700">
        <ele>915.6</ele>
        <time>2020-08-14T10:36:51Z</time>
      </trkpt>
      <trkpt lat="43.0476380" lon="-2.3614570">
        <ele>916.2</ele>
        <time>2020-08-14T10:36:53Z</time>
      </trkpt>
      <trkpt lat="43.0476610" lon="-2.3614340">
        <ele>916.8</ele>
        <time>2020-08-14T10:36:54Z</time>
      </trkpt>
      <trkpt lat="43.0476570" lon="-2.3613350">
        <ele>917.8</ele>
        <time>2020-08-14T10:36:57Z</time>
      </trkpt>
      <trkpt lat="43.0475720" lon="-2.3612610">
        <ele>918.8</ele>
        <time>2020-08-14T10:37:01Z</time>
      </trkpt>
      <trkpt lat="43.0474940" lon="-2.3611790">
        <ele>920.0</ele>
        <time>2020-08-14T10:37:04Z</time>
      </trkpt>
      <trkpt lat="43.0474460" lon="-2.3611210">
        <ele>920.8</ele>
        <time>2020-08-14T10:37:06Z</time>
      </trkpt>
      <trkpt lat="43.0474220" lon="-2.3610970">
        <ele>921.2</ele>
        <time>2020-08-14T10:37:07Z</time>
      </trkpt>
      <trkpt lat="43.0473580" lon="-2.3610190">
        <ele>922.4</ele>
        <time>2020-08-14T10:37:10Z</time>
      </trkpt>
      <trkpt lat="43.0472950" lon="-2.3609290">
        <ele>923.8</ele>
        <time>2020-08-14T10:37:13Z</time>
      </trkpt>
      <trkpt lat="43.0472330" lon="-2.3608540">
        <ele>924.8</ele>
        <time>2020-08-14T10:37:16Z</time>
      </trkpt>
      <trkpt lat="43.0471750" lon="-2.3607680">
        <ele>926.0</ele>
        <time>2020-08-14T10:37:19Z</time>
      </trkpt>
      <trkpt lat="43.0471190" lon="-2.3606890">
        <ele>927.0</ele>
        <time>2020-08-14T10:37:22Z</time>
      </trkpt>
      <trkpt lat="43.0470670" lon="-2.3605990">
        <ele>928.2</ele>
        <time>2020-08-14T10:37:25Z</time>
      </trkpt>
      <trkpt lat="43.0470120" lon="-2.3604790">
        <ele>929.4</ele>
        <time>2020-08-14T10:37:29Z</time>
      </trkpt>
      <trkpt lat="43.0469770" lon="-2.3603390">
        <ele>930.6</ele>
        <time>2020-08-14T10:37:33Z</time>
      </trkpt>
      <trkpt lat="43.0469570" lon="-2.3602430">
        <ele>931.6</ele>
        <time>2020-08-14T10:37:36Z</time>
      </trkpt>
      <trkpt lat="43.0469460" lon="-2.3601820">
        <ele>932.8</ele>
        <time>2020-08-14T10:37:38Z</time>
      </trkpt>
      <trkpt lat="43.0469550" lon="-2.3601180">
        <ele>933.6</ele>
        <time>2020-08-14T10:37:40Z</time>
      </trkpt>
      <trkpt lat="43.0469660" lon="-2.3600890">
        <ele>934.0</ele>
        <time>2020-08-14T10:37:41Z</time>
      </trkpt>
      <trkpt lat="43.0470090" lon="-2.3600100">
        <ele>935.2</ele>
        <time>2020-08-14T10:37:44Z</time>
      </trkpt>
      <trkpt lat="43.0470690" lon="-2.3599780">
        <ele>936.2</ele>
        <time>2020-08-14T10:37:47Z</time>
      </trkpt>
      <trkpt lat="43.0471310" lon="-2.3599910">
        <ele>937.2</ele>
        <time>2020-08-14T10:37:50Z</time>
      </trkpt>
      <trkpt lat="43.0472100" lon="-2.3600490">
        <ele>938.4</ele>
        <time>2020-08-14T10:37:54Z</time>
      </trkpt>
      <trkpt lat="43.0472440" lon="-2.3600870">
        <ele>939.6</ele>
        <time>2020-08-14T10:37:57Z</time>
      </trkpt>
      <trkpt lat="43.0472620" lon="-2.3600950">
        <ele>940.6</ele>
        <time>2020-08-14T10:38:00Z</time>
      </trkpt>
      <trkpt lat="43.0472420" lon="-2.3600740">
        <ele>942.2</ele>
        <time>2020-08-14T10:38:49Z</time>
      </trkpt>
      <trkpt lat="43.0471610" lon="-2.3601280">
        <ele>942.2</ele>
        <time>2020-08-14T10:38:58Z</time>
      </trkpt>
      <trkpt lat="43.0471490" lon="-2.3601470">
        <ele>942.2</ele>
        <time>2020-08-14T10:39:00Z</time>
      </trkpt>
      <trkpt lat="43.0470990" lon="-2.3601840">
        <ele>942.2</ele>
        <time>2020-08-14T10:39:04Z</time>
      </trkpt>
      <trkpt lat="43.0470210" lon="-2.3601830">
        <ele>942.2</ele>
        <time>2020-08-14T10:39:09Z</time>
      </trkpt>
    </trkseg>
  </trk>
</gpx>
